[[{"header":{"parameterUnit":"m.s-1","parameterCategory":1,"la1":30.6,"la2":29.2853,"lo1":-89.7004,"lo2":-87.6739,"dy":0.0162,"dx":0.0183,"nx":112,"ny":82,"refTime":"2024-07-31T12:00:00:Z","depth":0,"parameterNumber":2,"parameterNumberName":"U-component_of_WINDS"},"data":[0.0,0.0,0.0,0.0,0.0,0.0,0.0,0.0,0.0,0.0,0.0,0.0,0.0,0.0,0.0,0.0,0.0,0.0,0.0,0.0,0.0,0.0,0.0,0.0,0.0,0.0,0.0,0.0,0.0,0.0,0.0,0.0,0.0,0.0,0.0,0.0,0.0,0.0,0.0,0.0,0.0,0.0,0.0,0.0,0.0,0.0,0.0,0.0,0.0,0.0,0.0,0.0,0.0,0.0,0.0,0.0,0.0,0.0,0.0,0.0,0.0,0.0,0.0,0.0,0.0,0.0,0.0,0.0,0.0,0.0,0.0,0.0,0.0,0.0,0.0,0.0,0.0,0.0,0.0,0.0,0.0,0.0,0.0,0.0,0.0,0.0,0.0,0.0,0.0,0.0,-2.9956,-3.2527,-3.3812,-3.4489,-3.4489,-3.3184,-3.1629,-2.9978,0.0,0.0,0.0,0.0,0.0,0.0,0.0,0.0,0.0,0.0,0.0,0.0,0.0,0.0,0.0,0.0,0.0,0.0,0.0,0.0,0.0,0.0,0.0,0.0,0.0,0.0,0.0,0.0,0.0,0.0,0.0,0.0,0.0,0.0,0.0,0.0,0.0,0.0,0.0,0.0,0.0,0.0,0.0,0.0,0.0,0.0,0.0,0.0,0.0,0.0,0.0,0.0,0.0,0.0,0.0,0.0,0.0,0.0,0.0,0.0,0.0,0.0,0.0,0.0,0.0,0.0,0.0,0.0,0.0,0.0,0.0,0.0,0.0,0.0,0.0,0.0,0.0,0.0,0.0,0.0,0.0,0.0,0.0,0.0,0.0,0.0,0.0,0.0,0.0,0.0,0.0,0.0,0.0,0.0,0.0,0.0,0.0,0.0,0.0,0.0,0.0,0.0,0.0,0.0,-3.0565,-3.4675,-3.4742,-3.4489,-3.4489,-3.2717,-3.0767,-2.8874,0.0,0.0,0.0,0.0,0.0,0.0,0.0,0.0,0.0,0.0,0.0,0.0,0.0,0.0,0.0,0.0,0.0,0.0,0.0,0.0,0.0,0.0,0.0,0.0,0.0,0.0,0.0,0.0,0.0,0.0,0.0,0.0,0.0,0.0,0.0,0.0,0.0,0.0,0.0,0.0,0.0,0.0,0.0,0.0,0.0,0.0,0.0,0.0,0.0,0.0,0.0,0.0,0.0,0.0,0.0,0.0,0.0,0.0,0.0,0.0,0.0,0.0,0.0,0.0,0.0,0.0,0.0,0.0,0.0,0.0,0.0,0.0,0.0,0.0,0.0,0.0,0.0,0.0,0.0,0.0,0.0,0.0,0.0,0.0,0.0,0.0,0.0,0.0,0.0,0.0,0.0,0.0,0.0,0.0,0.0,0.0,0.0,0.0,0.0,0.0,0.0,0.0,0.0,-2.9664,-3.1881,-3.4764,-3.408,-3.3428,-3.3428,-3.1193,-2.9278,-2.7939,-2.5784,0.0,0.0,0.0,0.0,0.0,0.0,0.0,0.0,0.0,0.0,0.0,0.0,0.0,0.0,0.0,0.0,0.0,0.0,0.0,0.0,0.0,0.0,0.0,0.0,0.0,0.0,0.0,0.0,0.0,0.0,0.0,0.0,0.0,0.0,0.0,0.0,0.0,0.0,0.0,0.0,0.0,0.0,0.0,0.0,0.0,0.0,0.0,0.0,0.0,0.0,0.0,0.0,0.0,0.0,0.0,0.0,0.0,0.0,0.0,0.0,0.0,0.0,0.0,0.0,0.0,0.0,0.0,0.0,0.0,0.0,0.0,0.0,0.0,0.0,0.0,0.0,0.0,0.0,0.0,0.0,0.0,0.0,0.0,0.0,0.0,0.0,0.0,0.0,0.0,0.0,0.0,0.0,0.0,0.0,0.0,0.0,0.0,0.0,0.0,0.0,0.0,0.0,-3.094,-3.2563,-3.3742,-3.2908,-3.2187,-3.2052,-2.9577,-2.7749,-2.7148,-2.4618,0.0,0.0,0.0,0.0,0.0,0.0,0.0,0.0,0.0,0.0,0.0,0.0,0.0,0.0,0.0,0.0,0.0,0.0,0.0,0.0,0.0,0.0,0.0,0.0,0.0,0.0,0.0,0.0,0.0,0.0,0.0,0.0,0.0,0.0,0.0,0.0,0.0,0.0,0.0,0.0,0.0,0.0,0.0,0.0,0.0,0.0,0.0,0.0,0.0,0.0,0.0,0.0,0.0,0.0,0.0,0.0,0.0,0.0,0.0,0.0,0.0,0.0,0.0,0.0,0.0,0.0,0.0,0.0,0.0,0.0,0.0,0.0,0.0,0.0,0.0,0.0,0.0,0.0,0.0,0.0,0.0,0.0,0.0,0.0,0.0,0.0,0.0,0.0,0.0,0.0,0.0,0.0,0.0,0.0,0.0,0.0,0.0,0.0,0.0,0.0,0.0,0.0,-2.9492,-3.1598,-3.1758,-3.1678,-3.1309,-3.0698,-2.8162,-2.6632,-2.6567,-2.3568,0.0,0.0,0.0,0.0,0.0,0.0,0.0,0.0,0.0,0.0,0.0,0.0,0.0,0.0,0.0,0.0,0.0,0.0,0.0,0.0,0.0,0.0,0.0,0.0,0.0,0.0,0.0,0.0,0.0,0.0,0.0,0.0,0.0,0.0,0.0,0.0,0.0,0.0,0.0,0.0,0.0,0.0,0.0,0.0,0.0,0.0,0.0,0.0,0.0,0.0,0.0,0.0,0.0,0.0,0.0,0.0,0.0,0.0,0.0,0.0,0.0,0.0,0.0,0.0,0.0,0.0,0.0,0.0,0.0,0.0,0.0,0.0,0.0,0.0,0.0,0.0,0.0,0.0,0.0,0.0,0.0,0.0,0.0,0.0,0.0,0.0,0.0,0.0,0.0,0.0,0.0,0.0,0.0,0.0,0.0,0.0,0.0,0.0,0.0,0.0,0.0,0.0,-2.8338,-3.037,0.0,-3.0571,-3.0193,-2.9942,-2.8275,-2.6654,-2.5394,0.0,0.0,0.0,0.0,0.0,0.0,0.0,0.0,0.0,0.0,0.0,0.0,0.0,0.0,0.0,0.0,0.0,0.0,0.0,0.0,0.0,0.0,0.0,0.0,0.0,0.0,0.0,0.0,0.0,0.0,0.0,0.0,0.0,0.0,0.0,0.0,0.0,0.0,0.0,0.0,0.0,0.0,0.0,0.0,0.0,0.0,0.0,0.0,0.0,0.0,0.0,0.0,0.0,0.0,0.0,0.0,0.0,0.0,0.0,0.0,0.0,0.0,0.0,0.0,0.0,0.0,0.0,0.0,0.0,0.0,0.0,0.0,0.0,0.0,0.0,0.0,0.0,0.0,0.0,0.0,0.0,0.0,0.0,0.0,0.0,0.0,0.0,0.0,0.0,0.0,0.0,0.0,0.0,0.0,0.0,0.0,0.0,0.0,0.0,0.0,0.0,0.0,-2.4698,-2.7333,-2.9278,0.0,-2.9423,-2.9193,-2.8962,-2.7527,-2.6063,-2.4672,0.0,0.0,0.0,0.0,0.0,0.0,0.0,0.0,0.0,0.0,0.0,0.0,0.0,0.0,0.0,0.0,0.0,0.0,0.0,0.0,0.0,0.0,0.0,0.0,0.0,0.0,0.0,0.0,0.0,0.0,0.0,0.0,0.0,0.0,0.0,0.0,0.0,0.0,0.0,0.0,0.0,0.0,0.0,0.0,0.0,0.0,0.0,0.0,0.0,0.0,0.0,0.0,0.0,0.0,0.0,0.0,0.0,0.0,0.0,0.0,0.0,0.0,0.0,0.0,0.0,0.0,0.0,0.0,0.0,0.0,0.0,0.0,0.0,0.0,0.0,0.0,0.0,0.0,0.0,0.0,0.0,0.0,0.0,0.0,0.0,0.0,0.0,0.0,0.0,0.0,0.0,0.0,0.0,0.0,0.0,0.0,0.0,0.0,0.0,0.0,0.0,0.0,-2.3595,-2.6512,-2.8323,-2.7685,-2.8173,-2.8308,-2.7685,-2.5779,-2.4597,0.0,0.0,0.0,0.0,0.0,0.0,0.0,0.0,0.0,0.0,0.0,0.0,0.0,0.0,0.0,0.0,0.0,0.0,0.0,0.0,0.0,0.0,0.0,0.0,0.0,0.0,0.0,0.0,0.0,0.0,0.0,0.0,0.0,0.0,0.0,0.0,0.0,0.0,0.0,0.0,0.0,0.0,0.0,0.0,0.0,0.0,0.0,0.0,0.0,0.0,0.0,0.0,0.0,0.0,0.0,0.0,0.0,0.0,0.0,0.0,0.0,0.0,0.0,0.0,0.0,0.0,0.0,0.0,0.0,0.0,0.0,0.0,0.0,0.0,0.0,0.0,0.0,0.0,0.0,0.0,0.0,0.0,0.0,0.0,0.0,0.0,0.0,0.0,0.0,0.0,0.0,0.0,0.0,0.0,0.0,0.0,0.0,0.0,0.0,0.0,0.0,0.0,0.0,-2.3595,-2.6093,-2.7799,-2.764,-2.7754,-2.7784,-2.764,-2.6617,-2.5405,-2.3984,0.0,0.0,0.0,0.0,0.0,0.0,0.0,0.0,0.0,0.0,0.0,0.0,0.0,0.0,0.0,0.0,0.0,0.0,0.0,0.0,0.0,0.0,0.0,0.0,0.0,0.0,0.0,0.0,0.0,0.0,0.0,0.0,0.0,0.0,0.0,0.0,0.0,0.0,0.0,0.0,0.0,0.0,0.0,0.0,0.0,0.0,0.0,0.0,0.0,0.0,0.0,0.0,0.0,0.0,0.0,0.0,0.0,0.0,0.0,0.0,0.0,0.0,0.0,0.0,0.0,0.0,0.0,0.0,0.0,0.0,0.0,0.0,0.0,0.0,0.0,0.0,0.0,0.0,0.0,0.0,0.0,0.0,0.0,0.0,0.0,0.0,0.0,0.0,0.0,0.0,0.0,0.0,0.0,0.0,0.0,0.0,0.0,0.0,0.0,0.0,0.0,0.0,-2.3595,-2.5929,-2.7625,-2.7625,-2.7625,-2.7625,-2.7625,-2.6976,-2.5854,-2.4118,0.0,0.0,0.0,0.0,0.0,0.0,0.0,0.0,0.0,0.0,0.0,0.0,0.0,0.0,0.0,0.0,0.0,0.0,0.0,0.0,0.0,0.0,0.0,0.0,0.0,0.0,0.0,0.0,0.0,0.0,0.0,0.0,0.0,0.0,0.0,0.0,0.0,0.0,0.0,0.0,0.0,0.0,0.0,0.0,0.0,0.0,0.0,0.0,0.0,0.0,0.0,0.0,0.0,0.0,0.0,0.0,0.0,0.0,0.0,0.0,0.0,0.0,0.0,0.0,0.0,0.0,0.0,0.0,0.0,0.0,0.0,0.0,0.0,0.0,0.0,0.0,0.0,0.0,0.0,0.0,0.0,0.0,0.0,0.0,0.0,0.0,0.0,0.0,0.0,0.0,0.0,0.0,0.0,0.0,0.0,0.0,0.0,0.0,0.0,0.0,0.0,0.0,-2.3684,-2.5959,-2.7625,-2.7625,-2.7625,-2.7625,-2.7625,-2.6976,-2.6033,-2.4672,0.0,0.0,0.0,0.0,0.0,0.0,0.0,0.0,0.0,0.0,0.0,0.0,0.0,0.0,0.0,0.0,0.0,0.0,0.0,0.0,0.0,0.0,0.0,0.0,0.0,0.0,0.0,0.0,0.0,0.0,0.0,0.0,0.0,0.0,0.0,0.0,0.0,0.0,0.0,0.0,0.0,0.0,0.0,0.0,0.0,0.0,0.0,0.0,0.0,0.0,0.0,0.0,0.0,0.0,0.0,0.0,0.0,0.0,0.0,0.0,-2.4424,0.0,0.0,0.0,0.0,0.0,0.0,0.0,0.0,0.0,0.0,0.0,0.0,0.0,0.0,0.0,0.0,0.0,0.0,0.0,0.0,0.0,0.0,0.0,0.0,0.0,0.0,0.0,0.0,0.0,0.0,0.0,0.0,0.0,0.0,0.0,0.0,0.0,0.0,0.0,0.0,0.0,-2.4343,-2.6258,-2.7625,-2.7625,-2.7625,-2.7625,-2.7625,-2.6976,-2.6033,-2.4672,-2.34,0.0,0.0,0.0,0.0,0.0,0.0,0.0,0.0,0.0,0.0,0.0,0.0,0.0,0.0,0.0,0.0,0.0,0.0,0.0,0.0,0.0,0.0,0.0,0.0,0.0,0.0,0.0,0.0,0.0,0.0,0.0,0.0,0.0,0.0,0.0,0.0,0.0,0.0,0.0,0.0,0.0,0.0,0.0,0.0,0.0,0.0,0.0,0.0,0.0,0.0,0.0,0.0,0.0,0.0,0.0,0.0,0.0,0.0,0.0,0.0,-2.5308,0.0,0.0,0.0,0.0,0.0,0.0,0.0,0.0,0.0,0.0,0.0,0.0,0.0,0.0,0.0,0.0,0.0,0.0,0.0,0.0,0.0,0.0,0.0,0.0,0.0,0.0,0.0,0.0,0.0,0.0,0.0,0.0,0.0,0.0,0.0,0.0,0.0,0.0,0.0,0.0,-2.4492,-2.6348,-2.7625,-2.7625,-2.7625,-2.7625,-2.7625,-2.726,-2.6497,-2.5181,-2.4163,0.0,0.0,0.0,0.0,0.0,0.0,0.0,0.0,0.0,0.0,0.0,0.0,0.0,0.0,0.0,0.0,0.0,0.0,0.0,0.0,0.0,0.0,0.0,0.0,0.0,0.0,0.0,0.0,0.0,0.0,0.0,0.0,0.0,0.0,0.0,0.0,0.0,0.0,0.0,0.0,0.0,0.0,0.0,0.0,0.0,0.0,0.0,0.0,0.0,0.0,0.0,0.0,0.0,-2.9908,-2.9627,-2.9485,-2.902,-2.9112,-2.9628,-2.8452,-2.7795,-2.7485,0.0,0.0,0.0,0.0,0.0,0.0,0.0,0.0,0.0,0.0,0.0,0.0,0.0,0.0,0.0,0.0,0.0,0.0,0.0,0.0,0.0,0.0,0.0,0.0,0.0,-2.7619,-2.7664,0.0,0.0,0.0,0.0,0.0,0.0,0.0,0.0,0.0,0.0,0.0,0.0,-2.4642,-2.6318,-2.744,-2.761,-2.7625,-2.7625,-2.7625,-2.7625,-2.7006,-2.5689,-2.494,-2.3999,0.0,0.0,0.0,0.0,0.0,0.0,0.0,0.0,0.0,0.0,0.0,0.0,0.0,0.0,0.0,0.0,0.0,0.0,0.0,0.0,0.0,0.0,0.0,0.0,0.0,0.0,0.0,0.0,0.0,0.0,0.0,0.0,-2.0159,-2.208,0.0,0.0,0.0,0.0,0.0,0.0,0.0,0.0,0.0,0.0,0.0,0.0,0.0,-3.0314,-3.0978,-3.1731,-3.182,-3.1254,-3.184,-3.1789,-3.114,-3.0539,-3.0588,-3.1147,-3.0423,0.0,-2.756,-2.6703,0.0,0.0,0.0,0.0,0.0,0.0,0.0,0.0,0.0,0.0,0.0,0.0,0.0,0.0,0.0,0.0,0.0,0.0,0.0,0.0,0.0,0.0,-2.749,-2.749,-2.7575,-2.759,0.0,-2.6602,-2.5839,-2.4612,-2.4328,0.0,0.0,0.0,0.0,0.0,0.0,0.0,-2.5315,-2.6213,-2.6931,-2.7565,-2.7625,-2.7625,-2.7625,-2.7625,-2.7006,-2.5689,-2.494,-2.3748,-2.1903,-2.1095,0.0,0.0,0.0,0.0,0.0,0.0,0.0,0.0,0.0,0.0,0.0,0.0,0.0,0.0,0.0,0.0,0.0,0.0,0.0,0.0,0.0,0.0,0.0,0.0,0.0,0.0,0.0,0.0,0.0,-1.9001,-2.108,-2.4844,-2.5268,-2.4925,0.0,0.0,0.0,0.0,0.0,0.0,0.0,0.0,0.0,-3.1274,-3.1739,-3.2154,-3.2515,-3.286,-3.2699,-3.2068,-3.2007,-3.1796,-3.1467,-3.1225,-3.124,-3.1452,-3.121,-3.0134,-2.851,-2.7816,-2.6674,-2.5256,0.0,0.0,0.0,0.0,0.0,-2.3254,-2.3649,-2.3927,0.0,0.0,0.0,0.0,0.0,0.0,0.0,0.0,0.0,0.0,0.0,0.0,0.0,-2.6906,-2.7505,-2.7935,-2.7598,-2.7647,-2.7335,0.0,-2.5734,-2.5315,-2.3999,0.0,0.0,0.0,0.0,-2.4388,-2.4986,-2.5959,-2.6692,-2.6991,-2.74,-2.7625,-2.7625,-2.7203,-2.6425,-2.5169,-2.4433,-2.3316,-2.1749,-2.1117,-2.075,0.0,0.0,0.0,0.0,0.0,0.0,0.0,0.0,0.0,0.0,0.0,0.0,0.0,0.0,0.0,0.0,0.0,0.0,0.0,0.0,0.0,0.0,0.0,0.0,0.0,0.0,0.0,0.0,-2.0277,-2.2415,-2.7031,-2.8178,-2.7863,0.0,0.0,0.0,0.0,0.0,0.0,-3.0335,-3.0849,-3.1613,-3.285,-3.36,-3.3869,-3.3773,-3.3786,-3.3373,-3.2588,-3.1995,-3.1704,-3.1482,-3.1482,-3.1482,-3.1482,-3.1482,-3.0632,-2.9149,-2.8523,-2.7349,-2.5864,-2.4754,-2.4053,-2.3748,-2.4077,-2.3941,-2.369,-2.4531,-2.482,-2.4696,-2.3961,0.0,-2.3197,-2.2325,0.0,0.0,0.0,0.0,-2.475,-2.5066,-2.5617,-2.6131,-2.6131,-2.6919,-2.7511,-2.7069,-2.7378,-2.7594,0.0,-2.6841,-2.6482,-2.533,0.0,0.0,0.0,0.0,-2.4701,-2.5091,-2.5839,-2.6467,-2.6811,-2.7275,-2.7625,-2.7625,-2.693,-2.6015,-2.4765,-2.3997,-2.2986,-2.1527,-2.1179,-2.0982,-2.0982,0.0,0.0,0.0,0.0,0.0,0.0,0.0,0.0,0.0,0.0,0.0,0.0,0.0,0.0,0.0,0.0,0.0,0.0,0.0,0.0,0.0,0.0,0.0,0.0,0.0,0.0,0.0,0.0,0.0,-2.7253,-2.9815,0.0,0.0,0.0,0.0,-2.7993,-2.9243,-3.0433,-3.131,-3.2604,-3.369,-3.4462,-3.5128,-3.5126,-3.4461,-3.4434,-3.3808,-3.2511,-3.2467,-3.2138,-3.1482,-3.1482,-3.1482,-3.1482,-3.1482,-3.0555,-2.8969,-2.8435,-2.7312,-2.5805,-2.5027,-2.4784,-2.4707,-2.4757,-2.4757,-2.4745,-2.4808,-2.482,-2.4883,-2.5363,-2.4809,-2.3976,-2.3943,-2.3655,0.0,0.0,-2.4338,-2.519,-2.4496,-2.4921,-2.5439,-2.5439,-2.5522,-2.5536,-2.5508,-2.555,-2.5974,0.0,-2.7565,-2.7355,-2.6617,0.0,-2.6273,-2.5615,-2.5016,-2.5076,-2.6333,-2.6004,-2.6138,-2.738,-2.7595,-2.7625,-2.7625,-2.693,-2.6015,-2.4765,-2.3997,-2.2784,-2.0947,-2.1297,-2.1574,-2.1574,-2.0906,0.0,0.0,0.0,0.0,0.0,0.0,0.0,0.0,0.0,0.0,0.0,0.0,0.0,0.0,0.0,0.0,0.0,0.0,0.0,0.0,0.0,0.0,0.0,0.0,0.0,0.0,0.0,0.0,-2.9598,-3.0956,0.0,-2.8622,-2.9415,-2.9993,-2.9685,-3.0125,-3.1285,-3.3351,-3.3471,-3.4038,-3.5123,-3.5419,-3.5192,-3.4516,-3.4516,-3.4061,-3.314,-3.2721,-3.2617,-3.2781,-3.2362,-3.2153,-3.2153,-3.2153,-3.0962,-2.8989,-2.8768,-2.7739,-2.6238,-2.5996,-2.5649,-2.536,-2.5737,-2.5636,-2.5372,-2.5749,-2.5875,-2.5787,-2.5272,-2.4594,-2.3953,-2.359,-2.3331,-2.3224,-2.3165,-2.3541,-2.3872,-2.359,-2.3695,-2.393,-2.393,-2.4337,-2.4681,-2.4681,-2.5063,-2.5563,-2.6108,-2.6549,-2.6504,-2.536,-2.6337,-2.6693,-2.5146,-2.5464,-2.5899,-2.5959,-2.6123,-2.6247,-2.6243,-2.6615,-2.6707,-2.6215,-2.512,-2.4163,-2.3396,-2.2339,-2.1277,-2.0182,-2.0348,-2.045,-2.045,-2.0207,-1.9838,0.0,0.0,0.0,0.0,0.0,0.0,0.0,0.0,0.0,0.0,0.0,0.0,0.0,0.0,0.0,0.0,0.0,0.0,0.0,0.0,0.0,0.0,0.0,0.0,0.0,0.0,-2.6567,-3.0959,-3.1498,-3.1036,-2.9902,-3.0295,-3.0684,-3.0906,-3.1071,-3.1981,-3.3779,-3.384,-3.4224,-3.5126,-3.5401,-3.529,-3.4816,-3.4816,-3.4487,-3.3829,-3.338,-3.317,-3.3155,-3.2946,-3.2602,-3.2198,-3.2422,-3.118,-2.9002,-2.9002,-2.7986,-2.6533,-2.6533,-2.6226,-2.5937,-2.6314,-2.6214,-2.5937,-2.6327,-2.6533,-2.637,-2.5385,-2.472,-2.4167,-2.3602,-2.3288,-2.3078,-2.3078,-2.3078,-2.3078,-2.3078,-2.3078,-2.3078,-2.3078,-2.3484,-2.3884,-2.3884,-2.4279,-2.461,-2.461,-2.5453,-2.5819,-2.49,-2.593,-2.6468,-2.5344,-2.5553,-2.5877,-2.5899,-2.5883,-2.5771,-2.5507,-2.5852,-2.596,-2.5453,-2.416,-2.3279,-2.2895,-2.1476,-2.0542,-2.0112,-2.0087,-2.0087,-2.0087,-2.0087,-1.9924,-1.9572,0.0,0.0,0.0,0.0,0.0,0.0,0.0,0.0,0.0,0.0,0.0,0.0,0.0,0.0,0.0,0.0,0.0,0.0,0.0,0.0,0.0,0.0,0.0,-2.3732,-2.5979,-2.8551,-3.1177,-3.1463,-3.1471,-3.1512,-3.1494,-3.1482,-3.1482,-3.2123,-3.2497,-3.2542,-3.3754,-3.4472,-3.4502,-3.516,-3.5504,-3.5504,-3.5504,-3.5175,-3.4502,-3.4487,-3.3814,-3.2602,-3.3215,-3.2781,-3.1541,-3.2243,-3.118,-2.9002,-2.9002,-2.7986,-2.6533,-2.6533,-2.6533,-2.6533,-2.6533,-2.6521,-2.6496,-2.6483,-2.6483,-2.6382,-2.5737,-2.5209,-2.4695,-2.4142,-2.3577,-2.3078,-2.3078,-2.3078,-2.3078,-2.3078,-2.3078,-2.3078,-2.3078,-2.3078,-2.3078,-2.3078,-2.3078,-2.3078,-2.3078,-2.4323,-2.5342,-2.5342,-2.5342,-2.5618,-2.6336,-2.5303,0.0,-2.6318,-2.5289,-2.4667,-2.5329,-2.5398,-2.5342,-2.5342,-2.4117,-2.3382,-2.3355,-2.1681,-2.0718,-2.0718,-2.0718,-2.0731,-2.0743,-2.0743,-2.0743,-2.0718,0.0,0.0,0.0,0.0,0.0,0.0,0.0,0.0,0.0,0.0,0.0,0.0,0.0,0.0,0.0,0.0,0.0,0.0,0.0,0.0,0.0,-2.4756,-2.6505,-2.6489,-2.7112,-2.855,-3.1173,-3.0915,-3.0836,-3.1441,-3.1507,-3.1482,-3.1482,-3.1646,-3.2213,-3.317,-3.3559,-3.4218,-3.519,-3.54,-3.5504,-3.5504,-3.5504,-3.5415,-3.522,-3.4711,-3.4292,-3.3918,-3.3634,-3.3036,-3.2258,-3.2437,-3.118,-2.9002,-2.9002,-2.7986,-2.6533,-2.6533,-2.6533,-2.6533,-2.6533,-2.6189,-2.5774,-2.5398,-2.5272,-2.5184,-2.4619,-2.4343,-2.4117,-2.354,-2.3203,-2.3078,-2.3078,-2.3078,-2.3078,-2.3078,-2.3078,-2.3078,-2.3078,-2.3078,-2.3078,-2.3078,-2.3078,-2.3078,-2.3078,-2.3412,-2.3695,-2.3695,-2.4667,-2.5287,-2.4951,-2.5025,0.0,-2.5645,-2.5356,-2.5204,-2.5384,-2.4894,-2.4624,-2.4624,-2.3353,-2.2464,-2.2056,-2.1205,-2.0718,-2.0718,-2.0718,-2.0853,-2.1255,-2.1267,-2.1066,0.0,0.0,0.0,0.0,0.0,0.0,0.0,0.0,0.0,0.0,0.0,0.0,0.0,0.0,0.0,0.0,0.0,0.0,0.0,0.0,0.0,0.0,-2.6566,-2.7575,-2.7601,-2.7585,-2.8286,-3.0204,-2.9978,-3.0012,-3.0959,-3.1106,-3.1225,-3.1452,-3.1735,-3.2392,-3.344,-3.3754,-3.4397,-3.5474,-3.5504,-3.5504,-3.5504,-3.522,-3.507,-3.507,-3.4382,-3.3918,-3.3649,-3.3544,-3.2976,0.0,-3.1989,-3.083,-2.9002,-2.862,-2.767,0.0,0.0,0.0,0.0,0.0,-2.5749,-2.5222,-2.4921,-2.482,-2.4732,-2.418,-2.4004,-2.3891,-2.3314,-2.3078,-2.3078,-2.3078,-2.3078,-2.3078,-2.3078,-2.3078,-2.3078,-2.3078,-2.3078,-2.3078,-2.3078,-2.3078,-2.3078,-2.3078,0.0,0.0,-2.3078,-2.3813,-2.4381,-2.4279,-2.4394,-2.4553,0.0,-2.4667,-2.4439,-2.4439,-2.4047,-2.3826,-2.3826,-2.2857,0.0,0.0,0.0,-2.1016,-2.1016,-2.1016,0.0,0.0,0.0,0.0,0.0,0.0,0.0,0.0,-2.2385,-2.2862,0.0,0.0,0.0,0.0,0.0,0.0,0.0,0.0,0.0,0.0,0.0,0.0,0.0,0.0,0.0,0.0,-2.761,-2.7603,-2.758,-2.7594,-2.7935,-2.8827,-2.8961,-2.9387,-3.0417,-3.0567,-3.0866,-3.1437,-3.2078,-3.2721,-3.3455,0.0,0.0,0.0,0.0,-3.5474,-3.5385,-3.4786,-3.4442,-3.4352,-3.3769,-3.3155,-3.2542,-3.3125,-3.2706,-3.1511,-3.1333,-3.0372,-2.8939,-2.8182,-2.7284,-2.6521,-2.6458,-2.6433,-2.6289,-2.5649,-2.5121,0.0,0.0,0.0,0.0,-2.4054,-2.3904,-2.3803,-2.3288,-2.3078,-2.3078,-2.3078,-2.3078,-2.3078,-2.3078,-2.3078,-2.3078,-2.3078,-2.3078,-2.3078,-2.3078,-2.3078,-2.3078,-2.3078,-2.3027,-2.2977,-2.2977,-2.3027,-2.3365,-2.406,-2.3543,0.0,-2.406,-2.3543,-2.3138,-2.3245,0.0,0.0,-2.3245,-2.2745,-2.2585,-2.2952,-2.2121,-2.1581,-2.1581,-2.1644,-2.1907,-2.2397,-2.2397,-2.2648,-2.3078,-2.3653,-2.3966,-2.4067,-2.3125,-2.3489,0.0,0.0,0.0,0.0,0.0,0.0,0.0,0.0,0.0,0.0,0.0,0.0,0.0,0.0,0.0,-2.7072,-2.7598,-2.7615,-2.761,-2.7619,-2.7897,-2.8809,-2.9235,-2.9774,-3.0432,-3.1001,-3.139,-3.1467,-3.1601,-3.2243,-3.344,-3.3619,0.0,-3.5474,-3.5504,-3.5235,-3.4681,-3.4547,-3.4203,-3.3679,0.0,0.0,-3.2512,-3.2647,-3.2273,-3.1482,-3.147,-3.0505,-2.9002,-2.8812,-2.7855,-2.6483,-2.5937,-2.5762,-2.5649,-2.4669,-2.4243,-2.4092,-2.3627,-2.3403,-2.3378,-2.3339,-2.3301,-2.3215,-2.3115,-2.3078,0.0,-2.3078,-2.3078,-2.3078,-2.3078,-2.3078,-2.3078,-2.3078,-2.3078,-2.3078,-2.3078,-2.3078,-2.3078,-2.3078,-2.2774,-2.2472,-2.2472,-2.2836,-2.3125,-2.3305,-2.3198,-2.3138,-2.3305,-2.3198,-2.3365,-2.4002,-2.3484,-2.3365,-2.4002,-2.3382,-2.2824,-2.2498,-2.2272,-2.2159,-2.2159,-2.2585,-2.2862,-2.2915,-2.2975,-2.3025,-2.3078,-2.3251,-2.3778,-2.4669,-2.487,-2.5134,0.0,0.0,0.0,0.0,0.0,0.0,0.0,0.0,0.0,0.0,0.0,-2.0359,-2.1456,0.0,-2.6016,-2.7376,-2.7618,-2.7625,-2.7625,-2.7625,-2.7775,-2.818,-2.8464,-2.8966,-2.9953,-3.0357,-3.0821,-3.1422,-3.1482,-3.1958,-3.2961,-3.332,-3.3948,-3.4966,-3.4996,-3.4816,-3.4472,-3.3829,-3.332,-3.3006,-3.2677,-3.2332,-3.2018,-3.2018,-3.1839,-3.1467,-3.1087,-3.0389,-2.9566,-2.8684,-2.742,-2.5975,-2.5423,-2.5209,-2.5109,-2.4305,-2.3816,-2.3527,-2.3178,-2.3078,-2.3078,-2.3078,-2.3078,-2.3078,-2.3078,-2.3078,-2.3078,-2.3078,-2.3078,-2.3078,-2.3078,-2.3078,-2.3078,-2.3078,-2.3078,-2.3002,-2.2786,-2.2723,-2.2636,-2.2359,-2.2083,-2.1895,-2.1895,-2.2133,-2.2309,-2.2309,-2.2309,-2.2309,-2.2309,-2.2309,-2.2584,-2.3199,-2.2946,-2.2942,-2.3623,-2.3305,-2.2965,-2.2736,-2.2723,-2.2723,-2.2723,-2.2987,-2.3078,-2.3078,-2.3078,-2.3078,-2.3078,-2.3427,-2.3853,-2.4431,-2.5222,-2.5749,0.0,0.0,0.0,0.0,0.0,0.0,0.0,-1.651,-1.6618,-1.7041,-2.0597,-2.3762,-2.4298,-2.6153,-2.7612,-2.7613,-2.759,-2.7625,-2.7625,-2.7505,-2.7475,-2.761,-2.7679,-2.8248,-2.946,-2.9684,-3.0253,-3.1377,-3.1482,-3.1824,-3.2482,-3.3021,-3.3604,-3.4262,-3.4292,-3.4218,-3.4098,-3.3036,-3.2452,-3.2317,-3.1735,-3.1482,-3.1482,-3.1482,-3.1482,-3.1467,-3.0644,-3.0257,-2.9961,-2.8265,-2.6765,-2.557,-2.4922,-2.4657,-2.4594,-2.4042,-2.354,-2.3078,-2.3078,-2.3078,-2.3078,-2.3078,-2.3078,-2.3078,-2.3078,-2.3078,-2.3078,-2.3078,-2.3078,-2.3078,-2.3078,-2.3078,-2.3078,-2.3078,-2.3078,-2.2927,-2.2435,-2.2309,-2.2146,-2.1594,-2.1405,-2.133,-2.133,-2.1242,-2.123,-2.1455,-2.1493,-2.1493,-2.1493,-2.1493,-2.1656,-2.2108,-2.2246,-2.2535,-2.3027,-2.3078,-2.3078,-2.3078,-2.3078,-2.3078,-2.3078,-2.3078,-2.3078,-2.3078,-2.3078,-2.3078,-2.3078,-2.3602,-2.3891,-2.4017,-2.4996,-2.5749,-1.3248,-1.488,-1.6502,-1.6522,-1.6517,-1.6522,0.0,-1.651,-1.7072,-1.9044,-2.1639,-2.4311,-2.6687,-2.7396,-2.7593,-2.759,-2.7595,-2.7625,-2.7625,-2.7066,-2.6916,-2.755,-2.8113,-2.8771,-2.9505,-3.0073,-3.0717,-3.1422,-3.1482,-3.1824,-3.2482,-3.2587,-3.2931,-3.3589,-3.3604,-3.332,-3.2736,-3.2587,-3.2213,-3.1586,-3.1511,-3.1482,-3.1482,-3.1482,-3.1482,-3.1467,-3.0644,-2.9952,-2.9315,-2.7642,-2.6551,-2.5772,-2.4519,-2.4092,-2.4017,-2.3439,-2.3188,-2.3078,-2.3078,-2.3078,-2.3078,-2.3078,-2.3078,-2.3078,-2.3078,-2.3078,-2.3078,-2.3078,-2.3078,-2.3078,-2.3078,-2.3078,-2.3078,-2.3078,-2.3078,-2.2927,-2.2435,-2.2309,-2.2146,-2.1594,-2.1091,-2.0806,-2.0806,-2.0338,-2.0326,-2.1343,-2.1493,-2.1493,-2.1493,-2.1493,-2.1506,-2.1568,-2.202,-2.2535,-2.3027,-2.3078,-2.3078,-2.3078,-2.3078,-2.3078,-2.3078,-2.3078,-2.3078,-2.3078,-2.3078,-2.3078,-2.3078,-2.314,-2.3502,-2.4017,-2.4619,-2.5197,-1.2899,-1.3624,-1.4757,-1.6163,-1.6485,-1.6522,-1.6522,-1.651,-1.7142,-1.9353,-2.1856,-2.3953,-2.5077,-2.6137,-2.6851,0.0,-2.7275,-2.749,-2.7051,-2.6767,-2.6557,-2.6437,-2.7021,-2.7844,-2.8906,-2.925,-2.9819,-3.0851,-3.0941,-3.1225,-3.1898,-3.2302,-3.2647,-3.2916,-3.2916,-3.2796,-3.2512,-3.2138,-3.1809,-3.1482,-3.1482,-3.1482,-3.1482,-3.1482,-3.1315,-3.0869,-3.0554,-2.9522,-2.7998,-2.7338,-2.6144,-2.4769,-2.4204,-2.3791,-2.3464,-2.3165,-2.3078,-2.3078,-2.3078,-2.3078,-2.3078,-2.3078,-2.3078,-2.3078,-2.3078,-2.3078,-2.3078,-2.3078,-2.3078,-2.3078,-2.3078,-2.3078,-2.3078,-2.3078,-2.2887,-2.2498,-2.1945,-2.1581,-2.1192,-2.0614,-2.0326,-2.0162,-2.0162,-1.9962,-1.9962,-2.0439,-2.0514,-2.0514,-2.0514,-2.0514,-2.0639,-2.0978,-2.1506,-2.2058,-2.2611,-2.2661,-2.2786,-2.3053,-2.3078,-2.3078,-2.3078,-2.3078,-2.3078,-2.3078,-2.3078,-2.3078,-2.3078,-2.3078,-2.3263,-2.3502,-2.4079,-2.4456,-1.2323,-1.3002,-1.4321,-1.6077,-1.6516,-1.6522,-1.6522,-1.651,-1.7105,-1.9316,-2.1023,-2.2392,-2.3393,-2.4687,-2.574,-2.6284,-2.6931,-2.72,-2.6901,-2.6557,-2.6273,-2.6168,-2.6243,-2.6841,-2.8188,-2.8487,-2.9056,-3.0163,-3.0253,-3.0537,-3.121,-3.1704,-3.2048,-3.2243,-3.2243,-3.2243,-3.2243,-3.1764,-3.1482,-3.1482,-3.1482,-3.1482,-3.1482,-3.1482,-3.115,-3.0507,-3.0507,-2.9272,-2.7251,-2.7062,-2.5834,-2.406,-2.3815,-2.3502,-2.3078,-2.3078,-2.3078,-2.3078,-2.3078,-2.3078,-2.3078,-2.3078,-2.3078,-2.3078,-2.3078,-2.3078,-2.3078,-2.3078,-2.3078,-2.3078,-2.3078,-2.3078,-2.3078,-2.3078,-2.2711,-2.2159,-2.1606,-2.1054,-2.0542,-1.9911,-1.9798,-1.9798,-1.9798,-1.9798,-1.9798,-1.9798,-1.9798,-1.9798,-1.9798,-1.9798,-2.0024,-2.0655,-2.1071,-2.1543,-2.2246,-2.2171,-2.2385,-2.3027,-2.2927,-2.2975,-2.3065,-2.3078,-2.3078,-2.3078,-2.3078,-2.3078,-2.3078,-2.3078,-2.3078,-2.309,-2.3728,-2.4004,-1.0857,-1.3312,-1.6393,-1.6465,-1.6486,-1.6522,-1.6522,-1.651,-1.7099,-1.9252,-1.8944,-1.938,-2.2935,-2.364,-2.4313,-2.6258,-2.6602,-2.6841,-2.7505,-2.6437,-2.6108,-2.7415,-2.6408,-2.6153,-2.752,-2.8203,-2.8891,-2.9564,-2.9609,-2.9879,-3.0507,-3.0552,-3.0866,-3.1482,-3.1497,-3.1497,-3.1497,-3.1482,-3.1482,-3.1482,-3.1482,-3.1482,-3.1482,-3.1482,-3.115,-3.0507,-3.0507,-2.9374,-2.742,-2.6736,-2.5578,-2.4203,-2.345,-2.309,-2.3078,-2.3078,-2.3078,-2.3078,-2.3078,-2.3078,-2.3078,-2.3078,-2.3078,-2.3078,-2.3078,-2.3078,-2.3078,-2.3078,-2.3078,-2.3078,-2.3078,-2.3078,-2.3078,-2.3078,-2.2711,-2.2159,-2.1606,-2.1054,-2.0542,-1.9911,-1.9798,-1.9798,-1.9798,-1.9798,-1.9798,-1.9798,-1.9798,-1.9798,-1.9798,-1.9798,-2.0024,-2.0655,-2.0731,-2.1129,-2.2221,-2.182,-2.1983,-2.3002,-2.2636,-2.2573,-2.3053,-2.3078,-2.3078,-2.3078,-2.3078,-2.3078,-2.3078,-2.3078,-2.3078,-2.309,-2.3728,-2.4004,-1.0442,-1.3314,-1.6492,-1.6492,-1.6485,-1.6522,-1.6522,-1.651,-1.6921,-1.8329,-1.9003,-1.9894,-2.1554,-2.2822,-2.3969,-2.5106,-2.6019,-2.6662,-2.6886,-2.6542,-2.6258,-2.6273,-2.6647,-2.6916,-2.6916,-2.7515,0.0,-2.9505,-2.9579,-2.9849,-3.0477,-3.0507,-3.0417,-3.0238,-3.0238,-3.0238,-3.0238,-3.0657,-3.0851,-3.0851,-3.0851,-3.0851,-3.0836,-3.0417,-2.9879,-2.9235,-2.9235,-2.834,-2.6827,-2.6543,-2.5591,-2.4292,-2.4002,-2.3603,-2.3078,-2.3078,-2.3078,-2.3078,-2.3078,-2.3078,-2.3078,-2.3078,-2.3078,-2.3078,-2.3078,-2.3078,-2.3078,-2.3078,-2.3078,-2.3078,-2.3078,-2.3078,-2.3078,-2.3078,-2.2435,-2.1707,-2.1531,-2.0752,-2.0037,-1.9836,-1.9798,-1.9798,-1.9798,-1.9798,-1.9798,-1.9798,-1.9798,-1.9798,-1.9798,-1.9798,-1.9874,-2.0075,-2.0087,-2.0401,-2.1154,-2.1054,-2.1255,-2.1995,-2.2209,-2.2397,-2.2585,-2.2937,-2.3078,-2.3078,-2.3078,-2.3078,-2.3078,-2.3078,-2.3078,-2.3078,-2.3339,-2.3427,-1.1074,-1.3792,-1.633,-1.5536,-1.5313,-1.5536,-1.6342,-1.63,-1.6452,-1.7676,-1.8673,-1.9591,-2.0444,-2.1687,-2.2936,-2.4073,-2.5349,-2.6317,-2.6561,-2.699,-2.7102,-2.6684,-2.7215,-2.7595,-2.7606,-2.7605,0.0,-2.9146,-2.9445,-2.9759,-3.0163,-3.0178,-2.9998,-2.9594,-2.9579,-2.9684,-2.9909,-3.0088,-3.0178,-3.0178,-3.0178,-3.0178,-3.0163,-2.9759,-2.922,-2.8607,-2.8607,-2.7823,-2.6457,-2.6229,-2.5398,-2.4292,-2.4002,-2.3543,-2.3078,-2.3078,-2.3078,-2.3078,-2.3078,-2.3078,-2.3078,-2.3078,-2.3078,-2.3078,-2.3078,-2.3078,-2.3078,-2.3078,-2.3078,-2.3088,-2.2887,-2.2836,-2.2836,-2.2836,-2.1995,-2.1255,-2.1443,-2.0602,-1.9798,-1.9798,-1.9798,-1.9798,-1.9798,-1.9798,-1.9798,-1.9798,-1.9798,-1.9798,-1.9798,-1.9798,-1.9798,-1.9798,-1.9798,-2.0037,-2.0668,-2.0476,-2.0677,-2.1443,-2.1631,-2.1807,-2.2008,-2.2548,-2.2836,-2.2836,-2.2977,-2.3078,-2.3078,-2.3078,-2.3078,-2.3078,-2.3078,-2.3078,-1.2338,-1.445,-1.5718,-1.3689,-1.3214,-1.3776,-1.596,-1.5904,-1.585,-1.7286,-1.7841,-1.8444,-1.9634,-2.0347,-2.1395,-2.3323,-2.4713,-2.5823,-2.663,-2.7748,-2.8478,0.0,-2.7984,-2.8155,-2.9348,-2.8469,0.0,-2.8599,0.0,-2.9535,-2.9535,-2.9535,-2.9505,-2.9475,-2.9475,-2.9759,-3.0357,-2.9804,-2.9549,-2.9579,-2.9549,-2.9535,-2.9535,-2.949,-2.9146,-2.8547,-2.8547,-2.7794,-2.651,-2.5783,-2.5063,-2.4292,-2.3531,-2.3185,-2.3078,-2.3078,-2.3078,-2.3078,-2.3078,-2.3078,-2.3078,-2.3078,-2.3078,-2.3078,-2.3078,-2.3078,-2.3078,-2.3078,-2.3053,-2.2915,-2.2447,-2.2284,-2.2272,-2.2272,-2.1443,-2.0857,-2.133,-2.0577,-1.9798,-1.9798,-1.9798,-1.9798,-1.9798,-1.9798,-1.9798,-1.9798,-1.9798,-1.9798,-1.9798,-1.9798,-1.9798,-1.9798,-1.9798,-2.0024,-2.063,-2.0125,-2.0263,-2.133,-2.0941,-2.0903,-2.143,-2.197,-2.2284,-2.2309,-2.2824,-2.3053,-2.3078,-2.3078,-2.3078,-2.3078,-2.3078,-2.3078,-1.0825,-1.1409,-1.2089,-1.2974,-1.3225,-1.3713,-1.529,-1.5627,-1.5942,-1.7137,-1.776,-1.8305,-1.9032,-2.0391,-2.2079,-2.3969,-2.5354,0.0,-2.8448,-2.8955,0.0,-2.9164,-2.9482,-2.9578,-2.9419,-3.0037,0.0,0.0,-2.8988,-2.8846,-2.8846,-2.8846,-2.8622,-2.815,-2.8135,-2.8158,-2.8323,-2.8667,-2.9101,-2.9579,-2.9086,-2.8846,-2.8831,-2.8323,-2.7993,-2.7829,-2.7829,-2.7622,-2.7306,-2.7137,-2.6269,-2.5119,-2.4894,-2.4092,-2.3078,-2.3078,-2.3078,-2.3078,-2.3078,-2.3078,-2.3078,-2.3078,-2.3078,-2.3078,-2.3078,-2.3078,-2.3078,-2.3078,-2.2836,-2.2485,-2.2347,-2.2008,-2.1694,-2.1694,-2.1167,-2.0756,-2.084,-2.0313,-1.9798,-1.9798,-1.9798,-1.9798,-1.9798,-1.9798,-1.9798,-1.9798,-1.9798,-1.9798,-1.9798,-1.9798,-1.9798,-1.9798,-1.9798,-1.9861,-2.0012,-1.9886,-1.9924,-2.0213,-2.0501,-2.0781,-2.092,-2.1405,-2.1895,-2.2297,-2.2447,-2.2723,-2.3078,-2.3078,-2.3078,-2.3078,-2.3078,-2.3078,-1.0311,-1.0606,-1.1236,-1.2474,-1.2992,-1.3524,-1.4571,-1.5089,-1.564,-1.673,-1.7557,-1.8263,-1.8817,-2.0171,-2.1771,-2.3351,-2.5174,-2.6947,-2.8275,-2.9459,-3.0081,-2.9805,-3.0117,-3.0312,-3.0231,-3.0394,-3.0354,0.0,-2.9612,-2.9191,-2.8607,-2.8607,-2.8278,-2.764,-2.7625,-2.7625,-2.7625,-2.8248,-2.8637,-2.8697,-2.8323,-2.8143,-2.8128,-2.779,-2.7625,-2.7625,0.0,-2.7625,-2.7575,-2.7255,-2.6443,-2.5342,-2.5063,-2.4163,-2.3078,-2.3078,-2.3078,-2.3078,-2.3078,-2.3078,-2.3078,-2.3078,-2.3078,-2.3078,-2.3078,-2.3078,-2.3027,-2.2836,-2.2548,-2.2196,-2.1719,-2.1355,-2.1129,-2.1129,-2.0702,-2.0351,-2.0668,-2.0213,-1.9798,-1.9798,-1.9798,-1.9798,-1.9798,-1.9798,-1.9798,-1.9798,-1.9798,-1.9798,-1.9798,-1.9798,-1.9798,-1.9798,-1.9798,-1.9798,-1.9798,-1.9798,-1.9798,-1.9798,-2.0112,-2.0288,-2.0288,-2.0828,-2.128,-2.1581,-2.1832,-2.2221,-2.2774,-2.2332,-2.2322,-2.2567,-2.2187,-2.199,-1.0117,-1.0874,-1.1678,-1.2002,-1.2591,-1.3262,-1.3961,-1.4588,-1.5287,-1.6297,-1.7406,-1.838,-1.8916,-1.9975,-2.122,-2.2524,-2.4856,-2.6751,-2.7574,-2.9696,-3.1015,-3.0477,-3.0435,-3.0591,-3.1077,-3.012,-2.9665,-3.0044,-3.0083,-2.9643,-2.8628,-2.8509,-2.8188,-2.764,-2.7625,-2.7625,-2.7625,-2.8173,-2.8173,-2.7625,-2.7625,-2.7625,-2.7625,-2.7625,-2.7625,-2.7625,0.0,0.0,-2.756,-2.693,-2.6176,-2.5342,-2.4681,-2.3833,-2.2977,-2.3053,-2.2977,-2.2924,-2.294,-2.2975,-2.2937,-2.3027,-2.3027,-2.2965,-2.2965,-2.2915,-2.2811,-2.2334,-2.2146,-2.187,-2.097,-2.0655,-2.0605,-2.0605,-2.0162,-1.9936,-2.0492,-2.0162,-1.9798,-1.9798,-1.9798,-1.9798,-1.9798,-1.9798,-1.9798,-1.9798,-1.9798,-1.9798,-1.9798,-1.9798,-1.9798,-1.9798,-1.9798,-1.9798,-1.9798,-1.9798,-1.9798,-1.9798,-1.9798,-1.9747,-1.9643,-2.017,-2.0416,-2.0436,-2.0841,-2.1361,-2.1894,-2.1152,-2.1018,-2.1552,-2.078,-2.04,-0.9228,-0.9919,-1.0791,-1.1387,-1.2083,-1.289,-1.385,-1.4859,-1.5755,-1.6361,-1.7716,-1.8916,-1.9405,-2.043,-2.192,-2.4186,-2.5917,-2.7618,-2.9381,-3.0516,-3.1151,-3.1055,-3.1055,-3.083,-3.0359,-3.0113,0.0,0.0,0.0,-2.8052,-2.8506,-2.8026,-2.7694,-2.7625,-2.7625,-2.7625,-2.7625,-2.7745,-2.7745,-2.7625,-2.7625,-2.7625,-2.7625,-2.7625,-2.7625,-2.7625,0.0,0.0,-2.7575,-2.7458,-2.6602,-2.5398,-2.5231,-2.4089,-2.251,-2.2915,-2.256,-2.1845,-2.2297,-2.2159,-2.192,-2.2836,-2.2824,-2.2447,-2.2447,-2.2133,-2.1757,-2.1656,-2.1305,-2.0903,-2.0769,-2.0313,-1.9949,-1.9949,-1.9874,-1.9823,-1.9924,-1.9874,-1.9798,-1.9798,-1.9798,-1.9798,-1.9798,-1.9798,-1.9798,-1.9798,-1.9798,-1.9798,-1.9798,-1.9798,-1.9798,-1.9798,-1.9798,-1.9798,-1.9798,-1.9798,-1.9798,-1.9798,-1.9798,-1.9527,-1.8927,-1.897,-1.9005,-1.8895,-1.8999,-1.9287,-1.9794,-1.9675,-1.9661,-1.9753,-1.9621,-1.9501,-0.9157,-0.9881,-1.0776,-1.142,-1.2005,-1.2728,-1.3749,-1.4633,-1.5474,-1.6578,-1.7667,-1.871,-1.9773,-2.0681,-2.1859,-2.3539,-2.499,-2.662,-2.8631,-2.9567,-3.0192,-3.0581,-3.0632,-3.0345,-2.96,-2.9533,-2.9252,-2.8641,0.0,-2.7486,-2.7922,-2.7713,-2.7625,-2.7625,-2.7245,-2.7066,-2.7066,-2.6722,-2.6557,-2.6557,-2.6901,-2.6886,-2.6557,-2.6901,-2.6871,-2.6572,-2.6916,0.0,-2.6572,-2.6539,-2.5739,-2.4405,-2.4069,-2.3086,-2.192,-2.2184,-2.1945,-2.1531,-2.1794,-2.1707,-2.1581,-2.2108,-2.2096,-2.1882,-2.1882,-2.1694,-2.143,-2.1142,-2.092,-2.0655,-2.0288,-2.0012,-1.9798,-1.9798,-1.9798,-1.9798,-1.9798,-1.9798,-1.9798,-1.9798,-1.9798,-1.9798,-1.9798,-1.9798,-1.9798,-1.9798,-1.9798,-1.9798,-1.9798,-1.9798,-1.9798,-1.9798,-1.9798,-1.9798,-1.9798,-1.9798,-1.9643,-1.9254,-1.9579,-1.9319,-1.8167,-1.8501,-1.8511,-1.8047,-1.8059,-1.8306,-1.8859,-1.8449,-1.8344,-1.8594,-1.8169,-1.7934,-0.916,-0.9921,-1.0817,-1.1394,-1.1981,-1.2672,-1.3671,-1.4405,-1.5325,-1.6882,-1.7739,-1.8683,-2.0276,-2.1023,-2.1688,-2.2698,-2.405,-2.5628,-2.7535,-2.8636,-2.9499,-3.026,-3.0209,-2.982,-2.9059,-2.8822,0.0,-2.8501,0.0,0.0,-2.7011,-2.7085,-2.7156,-2.7156,-2.6647,-2.6378,-2.6378,-2.5869,-2.5615,-2.5615,-2.6138,-2.6108,-2.563,-2.6153,-2.6093,-2.563,-2.6153,0.0,0.0,-2.5427,-2.4623,-2.333,-2.2791,-2.2081,-2.133,-2.1443,-2.1343,-2.1142,-2.1267,-2.123,-2.1129,-2.1129,-2.1204,-2.1317,-2.1317,-2.123,-2.1041,-2.0655,-2.0489,-2.0376,-1.9924,-1.9798,-1.9798,-1.9798,-1.9798,-1.9798,-1.9798,-1.9798,-1.9798,-1.9798,-1.9798,-1.9798,-1.9798,-1.9798,-1.9798,-1.9798,-1.9798,-1.9798,-1.9798,-1.9798,-1.9798,-1.9798,-1.9643,-1.9579,-1.9579,-1.9423,-1.9097,-1.8489,-1.8992,-1.8715,-1.7413,-1.7907,-1.7895,-1.7135,-1.7135,-1.7376,-1.7827,-1.7143,-1.7046,-1.7449,-1.6745,-1.6455,-0.8755,-0.9534,-1.0385,-1.0941,-1.1731,-1.2672,-1.3671,-1.4707,-1.5853,-1.7332,-1.8492,-1.9734,-2.1207,-2.154,-2.1972,-2.3139,-2.4565,-2.605,-2.7587,-2.9076,-3.0277,-3.1004,-3.0514,-2.982,-2.9059,-2.8349,-2.7638,-2.6962,0.0,0.0,-2.5785,-2.5796,-2.5794,-2.5794,-2.5734,-2.5689,-2.5689,-2.563,-2.5615,-2.5615,-2.5674,-2.5674,-2.5615,-2.5674,-2.5674,-2.5615,0.0,0.0,0.0,-2.48,-2.396,-2.2684,-2.2631,-2.1848,-2.0803,-2.1305,-2.084,-2.0024,-2.0552,-2.0388,-1.9962,-1.9962,-2.0313,-2.0794,-2.0794,-2.0376,-1.9949,-1.9899,-1.9874,-1.9874,-1.9811,-1.9798,-1.9798,-1.9798,-1.9798,-1.9798,-1.9798,-1.9798,-1.9798,-1.9798,-1.9798,-1.9798,-1.9798,-1.9798,-1.9798,-1.9798,-1.9798,-1.9798,-1.9798,-1.9798,-1.9798,-1.9798,-1.9202,-1.8821,-1.8821,-1.8167,-1.7786,-1.7688,-1.7731,-1.7413,-1.6652,-1.6652,-1.6368,-1.5633,-1.5575,-1.5652,-1.5692,-1.5585,-1.5605,-1.5645,-1.5537,-1.5537,-0.9128,-0.9578,-1.0226,-1.1141,-1.1817,-1.2734,-1.4477,-1.5384,-1.6409,-1.8322,-1.9072,-1.9846,-2.133,-2.1582,-2.1847,-2.2625,-2.3241,-2.4289,-2.6218,-2.7012,-2.801,-2.9668,-2.9194,-2.8619,0.0,0.0,-2.691,0.0,0.0,0.0,-2.4912,-2.5334,-2.5615,-2.5615,-2.5226,-2.5016,-2.5016,-2.4612,-2.4403,-2.4403,-2.4822,-2.4807,-2.4418,-2.4822,-2.4792,-2.4418,0.0,0.0,0.0,-2.3655,-2.2936,-2.1997,-2.1212,-2.0576,-2.0175,-2.0388,-2.0188,-1.9836,-2.0062,-1.9987,-1.9798,-1.9798,-1.9962,-2.015,-2.015,-1.9987,-1.9798,-1.9798,-1.9798,-1.9798,-1.9798,-1.9798,-1.9798,-1.9798,-1.9798,-1.9798,-1.9798,-1.9798,-1.9798,-1.9798,-1.9798,-1.9798,-1.9798,-1.9798,-1.9643,-1.9202,-1.915,-1.8992,-1.8555,-1.8501,-1.8501,-1.8501,-1.8608,-1.8715,-1.8715,-1.8004,-1.7413,-1.6978,-1.7357,-1.7079,-1.5864,-1.6265,-1.6151,-1.541,-1.541,-1.541,-1.541,-1.541,-1.541,-1.541,-1.541,-1.541,-0.9919,-1.021,-1.0755,-1.1763,-1.2406,-1.3326,-1.5432,-1.6186,-1.7089,-1.9296,-1.9751,-2.0175,-2.1556,-2.1878,-2.2051,-2.2354,-2.2679,-2.3551,-2.5462,-2.6236,-2.7279,-2.9113,-2.8932,-2.8543,-2.818,-2.7266,-2.6556,0.0,0.0,0.0,0.0,-2.5035,-2.5183,-2.5016,-2.4567,-2.4313,-2.4313,-2.3849,-2.3595,-2.361,-2.4088,-2.4073,-2.361,-2.4103,-2.4059,-2.3625,0.0,0.0,0.0,-2.2673,-2.2014,-2.1328,-2.0232,-1.9798,-1.9798,-1.9798,-1.9798,-1.9798,-1.9798,-1.9798,-1.9798,-1.9798,-1.9798,-1.9798,-1.9798,-1.9798,-1.9798,-1.9798,-1.9798,-1.9798,-1.9798,-1.9798,-1.9798,-1.9798,-1.9798,-1.9798,-1.9798,-1.9798,-1.9798,-1.9798,-1.9798,-1.9748,-1.9597,-1.9407,-1.9138,-1.8541,-1.8331,-1.8058,-1.7665,-1.7578,-1.7578,-1.7578,-1.7841,-1.8058,-1.8058,-1.7346,-1.6743,-1.6208,-1.6641,-1.6461,-1.5468,-1.5921,-1.5921,-1.541,-1.541,-1.541,-1.541,-1.541,-1.541,-1.541,-1.541,-1.541,-1.1095,-1.1507,-1.2044,-1.2787,-1.3579,-1.4657,-1.6398,-1.7055,-1.7918,-2.0127,-2.0598,-2.0931,-2.2074,-2.2527,-2.2695,-2.2695,-2.3595,-2.4699,-2.5922,-2.7764,-2.9225,-3.0017,-3.0432,-3.0248,-2.9098,-2.7588,-2.6691,0.0,0.0,0.0,0.0,-2.4688,-2.4173,-2.3668,-2.361,-2.361,-2.361,-2.3595,-2.3595,-2.3595,-2.361,-2.361,-2.3595,-2.361,-2.361,0.0,0.0,0.0,0.0,-2.2007,-2.1342,-2.0746,-2.0055,-1.9798,-1.9798,-1.9798,-1.9798,-1.9798,-1.9798,-1.9798,-1.9798,-1.9798,-1.9798,-1.9798,-1.9798,-1.9798,-1.9798,-1.9798,-1.9798,-1.9798,-1.9798,-1.9798,-1.9798,-1.9798,-1.9798,-1.9798,-1.9798,-1.9798,-1.9798,-1.9798,-1.9798,-1.9635,-1.912,-1.8496,-1.8068,-1.7942,-1.7387,-1.7148,-1.7577,-1.7578,-1.7578,-1.7578,-1.6922,-1.6539,-1.6539,-1.5864,-1.541,-1.541,-1.541,-1.541,-1.541,-1.541,-1.541,-1.541,-1.541,-1.541,-1.541,-1.541,-1.541,-1.541,-1.541,-1.541,-1.3004,-1.3159,-1.3416,-1.4001,-1.4929,-1.6068,-1.7498,-1.8496,-1.9533,-2.098,-2.1282,-2.1553,-2.2466,-2.2652,-2.2971,-2.3741,-2.4148,-2.4872,-2.637,-2.7586,-2.8657,-2.9558,-2.9588,-2.9092,0.0,0.0,0.0,0.0,0.0,0.0,0.0,-2.4484,-2.4068,-2.3623,-2.3595,-2.3385,-2.2981,-2.3385,-2.3385,-2.2966,-2.2966,-2.3191,-2.3595,-2.3161,0.0,0.0,0.0,0.0,0.0,-2.1573,-2.0989,-2.072,-1.966,-1.9497,-1.9761,-1.9409,-1.9497,-1.9748,-1.9397,-1.9497,-1.9798,-1.9798,-1.9798,-1.9736,-1.9384,-1.9522,-1.9798,-1.9798,-1.9798,-1.9798,-1.9798,-1.9798,-1.9798,-1.9798,-1.9798,-1.9798,-1.9798,-1.9798,-1.9798,-1.9798,-1.9179,-1.8566,-1.8408,-1.7568,-1.6717,-1.6122,-1.5864,-1.5743,-1.5684,-1.569,-1.5802,-1.6042,-1.5921,-1.5921,-1.6436,-1.5592,-1.5107,-1.5391,-1.5146,-1.5107,-1.54,-1.541,-1.541,-1.541,-1.541,-1.541,-1.541,-1.541,-1.541,-1.541,-1.541,-1.541,-1.4638,-1.4584,-1.4861,-1.518,-1.6281,-1.7559,-1.853,-1.9612,-2.0755,-2.1781,-2.2034,-2.2214,-2.2832,-2.3014,-2.33,-2.4028,-2.4508,-2.5177,-2.6336,-2.7825,-2.9193,-3.0129,-2.9368,0.0,0.0,0.0,0.0,0.0,0.0,0.0,0.0,-2.3977,-2.3579,-2.3122,-2.2945,-2.2697,-2.2308,-2.2697,-2.2682,-2.2308,-2.2308,-2.2637,-2.3236,-2.2847,0.0,0.0,0.0,0.0,0.0,-2.0737,-2.0213,-2.0048,-1.9075,-1.9045,-1.9447,-1.8907,-1.9183,-1.9723,-1.9208,-1.9371,-1.9773,-1.9572,-1.9371,-1.9133,-1.8819,-1.8945,-1.9246,-1.9447,-1.9359,-1.9246,-1.9459,-1.951,-1.956,-1.9761,-1.9798,-1.9798,-1.9798,-1.9579,-1.9362,-1.9165,-1.8386,-1.7568,-1.7182,-1.6348,-1.5548,-1.4972,-1.4676,-1.455,-1.4537,-1.4687,-1.4824,-1.4922,-1.5078,-1.5278,-1.5548,-1.5113,-1.4824,-1.4922,-1.4687,-1.4658,-1.4922,-1.4932,-1.4932,-1.4932,-1.4932,-1.4932,-1.4932,-1.4932,-1.4932,-1.4932,-1.4932,-1.4932,0.0,-1.5933,-1.6386,-1.6447,-1.7674,-1.9005,-1.956,-2.0488,0.0,-2.2531,-2.2746,-2.2865,-2.3236,-2.3589,-2.384,-2.397,-2.4892,-2.5722,-2.6157,-2.8494,-3.0428,0.0,-2.9572,0.0,-2.7844,0.0,0.0,0.0,0.0,0.0,0.0,-2.325,-2.2758,-2.2176,-2.1749,-2.1575,-2.162,-2.168,-2.168,-2.162,-2.162,-2.1964,-2.2649,-2.2604,0.0,0.0,0.0,0.0,0.0,-1.9568,-1.9078,-1.8995,-1.8363,-1.848,-1.8907,-1.8355,-1.8807,-1.961,-1.9095,-1.9258,-1.961,-1.9133,-1.8593,-1.8154,-1.8191,-1.8204,-1.8304,-1.8819,-1.8593,-1.8317,-1.8783,-1.8945,-1.9046,-1.9571,-1.9658,-1.9631,-1.9631,-1.9061,-1.8472,-1.81,-1.7381,-1.6513,-1.5594,-1.492,-1.4458,-1.4299,-1.3842,-1.3613,-1.398,-1.4443,-1.4551,-1.4116,-1.4492,-1.4561,-1.4121,-1.4463,-1.4531,-1.4107,-1.4048,-1.4048,-1.4077,-1.4077,-1.4077,-1.4077,-1.4077,-1.4077,-1.4077,-1.4077,-1.4077,-1.4077,-1.4077,-1.4077,-1.869,0.0,-1.8173,-1.8801,-1.9212,-1.9843,0.0,-2.1663,-2.2036,-2.2911,-2.3069,-2.3383,-2.4329,-2.455,-2.5099,-2.6575,-2.7046,-2.7471,-2.8187,-2.913,-2.9924,-3.0418,-2.9243,-2.8268,-2.7922,0.0,0.0,0.0,0.0,0.0,0.0,-2.2539,-2.1845,-2.081,-2.0379,-2.0408,-2.0932,-2.144,-2.144,-2.0946,-2.0946,-2.1291,-2.1904,-2.1395,0.0,0.0,0.0,0.0,-2.0089,-1.9404,-1.8822,-1.8376,-1.7819,-1.7915,-1.8329,-1.7777,-1.8003,-1.8505,-1.7953,-1.8129,-1.8555,-1.8442,-1.8028,-1.7652,-1.8078,-1.8204,-1.8229,-1.8355,-1.8304,-1.8242,-1.8367,-1.8277,-1.8181,-1.8301,-1.8207,-1.8112,-1.8112,-1.7718,-1.7368,-1.7254,-1.6136,-1.5114,-1.4838,-1.3993,-1.3312,-1.3253,-1.3116,-1.3184,-1.3603,-1.374,-1.3896,-1.4058,-1.4175,-1.4121,-1.3691,-1.375,-1.3896,-1.4068,-1.3828,-1.3799,-1.4068,-1.4077,-1.4077,-1.4077,-1.4077,-1.4077,-1.4077,-1.4077,-1.4077,-1.4077,-1.4077,-1.4077,-1.9682,-1.9576,-1.9503,-2.0192,-2.0675,-2.1176,-2.1945,-2.2321,-2.2716,-2.3302,-2.3414,-2.367,-2.4439,-2.4863,-2.5473,-2.6518,-2.731,-2.8209,-2.9402,-2.9418,-2.9482,-2.9879,-2.9024,-2.8194,0.0,0.0,0.0,0.0,0.0,0.0,0.0,-2.1907,-2.1309,-2.0632,-2.0,-1.9869,-2.0243,-2.0587,-2.0587,-2.0243,-2.0243,-2.0587,-2.1231,-2.0872,0.0,0.0,0.0,0.0,-1.9003,-1.8231,-1.7726,-1.74,-1.7099,-1.7325,-1.7752,-1.72,-1.7501,-1.8129,-1.7576,-1.7576,-1.7827,-1.7827,-1.7451,-1.7036,-1.7338,-1.7426,-1.7488,-1.7752,-1.743,-1.7039,-1.7296,-1.7075,-1.6892,-1.7136,-1.7146,-1.7025,-1.7025,-1.6602,-1.614,-1.5921,-1.4908,-1.4022,-1.3867,-1.3312,-1.2881,-1.2881,-1.2881,-1.2959,-1.3193,-1.3389,-1.3516,-1.3555,-1.373,-1.3682,-1.3262,-1.3223,-1.332,-1.3545,-1.335,-1.332,-1.3545,-1.3555,-1.3555,-1.3555,-1.3555,-1.3555,-1.3555,-1.3555,-1.3555,-1.3555,-1.3555,-1.3555,-2.0111,-2.0344,-2.0625,-2.1075,-2.1837,-2.2475,-2.2467,-2.2847,-2.332,-2.3696,-2.3774,-2.3912,-2.4298,-2.5034,-2.5623,-2.5752,-2.6998,0.0,-2.9843,-2.9439,-2.9119,-2.9471,-2.8727,0.0,0.0,0.0,0.0,0.0,0.0,0.0,0.0,-2.1477,-2.1023,-2.0894,-2.0174,-1.9747,-1.969,-1.969,-1.969,-1.969,-1.969,-1.9989,-2.0557,-2.0557,-2.052,0.0,0.0,0.0,-1.7907,-1.6993,-1.6552,-1.6522,-1.6522,-1.6823,-1.7187,-1.6697,-1.7124,-1.7877,-1.7413,-1.725,-1.725,-1.725,-1.6923,-1.6522,-1.6522,-1.6522,-1.6622,-1.7112,-1.6463,-1.5683,-1.618,-1.5787,-1.5441,-1.5975,-1.6081,-1.6047,-1.6047,-1.545,-1.482,-1.4485,-1.3882,-1.3301,-1.2939,-1.2881,-1.2881,-1.2881,-1.2881,-1.2881,-1.2881,-1.3193,-1.3271,-1.292,-1.3203,-1.3271,-1.291,-1.2881,-1.2881,-1.2881,-1.2881,-1.2881,-1.2881,-1.2881,-1.2881,-1.2881,-1.2881,-1.2881,-1.2881,-1.2881,-1.2881,-1.2881,-1.2774,-1.2774,-2.1526,-2.1951,-2.2009,-2.2093,-2.2234,-2.2655,-2.3871,-2.3691,-2.3435,-2.4005,-2.4113,-2.4353,-2.5071,-2.586,-2.6649,-2.731,0.0,-2.8883,0.0,0.0,-2.903,-2.9093,0.0,0.0,0.0,0.0,0.0,0.0,0.0,0.0,0.0,-2.1598,-2.1165,-2.0449,-2.028,-2.0019,-1.969,-1.969,-1.969,-1.969,-1.969,-1.9735,-1.9839,-1.9839,-1.9605,0.0,0.0,-1.8347,-1.7435,-1.7229,-1.6909,-1.6522,-1.6522,-1.6572,-1.6635,-1.6547,-1.6622,-1.676,-1.6685,-1.6647,-1.6647,-1.6647,-1.6584,-1.6522,-1.6522,-1.6522,-1.6534,-1.6622,-1.6125,-1.5599,-1.5683,-1.5137,-1.4609,-1.4683,-1.4563,-1.444,-1.444,-1.4108,-1.3728,-1.3659,-1.3313,-1.2959,-1.2891,-1.2881,-1.2881,-1.2881,-1.2881,-1.2881,-1.2881,-1.2939,-1.2959,-1.2891,-1.2939,-1.2949,-1.2891,-1.2881,-1.2881,-1.2881,-1.2881,-1.2881,-1.2881,-1.2881,-1.2881,-1.2881,-1.2881,-1.2881,-1.2881,-1.2881,-1.2881,-1.2881,-1.2236,-1.2295,-2.1056,-2.156,-2.1988,-2.2508,-2.3141,-2.3827,-2.4516,-2.4295,-2.4064,-2.4435,-2.4339,-2.4338,-2.4838,-2.585,-2.7016,-2.8264,0.0,-2.8994,-2.8994,-2.8631,-2.8356,0.0,0.0,0.0,0.0,0.0,0.0,0.0,0.0,0.0,0.0,0.0,-2.1337,-2.0698,-2.0449,-2.0089,-1.9711,-1.969,-1.969,-1.969,-1.969,-1.969,-1.969,-1.9406,-1.9132,-1.8855,0.0,-1.7747,-1.7271,-1.6993,-1.671,-1.6522,-1.6522,-1.6522,-1.6522,-1.6522,-1.6522,-1.6522,-1.6522,-1.6522,-1.6522,-1.6522,-1.6281,-1.5996,-1.5996,-1.5788,-1.5522,-1.5522,-1.5332,-1.5096,-1.5096,-1.4352,-1.3579,-1.3579,-1.3501,-1.3457,-1.3457,-1.3301,-1.3174,-1.3174,-1.3018,-1.2881,-1.2881,-1.2881,-1.2881,-1.2881,-1.2881,-1.2881,-1.2881,-1.2881,-1.2881,-1.2881,-1.2881,-1.2881,-1.2881,-1.255,-1.2501,-1.2881,-1.2881,-1.2881,-1.2881,-1.251,-1.2295,-1.2295,-1.194,-1.1792,-1.1792,-1.1792,-1.1792,-1.1742,-1.1425,-1.1425,-2.0579,-2.1111,-2.1763,-2.2695,-2.3631,-2.4422,-2.4761,-2.4576,-2.441,-2.4678,-2.4478,-2.4321,-2.4461,-2.569,-2.7138,-2.8574,-2.8746,-2.8723,-2.8723,-2.8026,0.0,0.0,0.0,0.0,0.0,0.0,0.0,0.0,0.0,0.0,0.0,0.0,-2.1399,-2.0991,-2.055,-2.0089,-1.9711,-1.969,-1.969,-1.969,-1.969,-1.969,-1.969,-1.9132,-1.8817,-1.865,-1.7706,-1.7229,-1.7076,-1.668,-1.6522,-1.6522,-1.6522,-1.6522,-1.6522,-1.6522,-1.6522,-1.6522,-1.6522,-1.6522,-1.6522,-1.6522,-1.6095,-1.5588,-1.5588,-1.5186,-1.4698,-1.4698,-1.4606,-1.4468,-1.4468,-1.3705,-1.2881,-1.2881,-1.2881,-1.2881,-1.2881,-1.2881,-1.2881,-1.2881,-1.2881,-1.2881,-1.2881,-1.2881,-1.2881,-1.2881,-1.2881,-1.2881,-1.2881,-1.2881,-1.2881,-1.2881,-1.2881,-1.2881,-1.2881,-1.2236,-1.203,-1.2618,-1.251,-1.2412,-1.2412,-1.1882,-1.1566,-1.1566,-1.1065,-1.0813,-1.0813,-1.0813,-1.0813,-1.0813,-1.0669,-1.0669,-2.1176,-2.1643,-2.1906,-2.2761,-2.2977,-2.3295,-2.4679,-2.4403,-2.398,-2.4425,-2.4495,-2.4478,-2.4495,-2.58,-2.7158,-2.8031,-2.7994,-2.7879,-2.7879,0.0,0.0,0.0,0.0,0.0,0.0,0.0,0.0,0.0,0.0,0.0,0.0,0.0,0.0,-2.0991,-2.055,-2.0089,-1.9711,-1.969,-1.969,-1.969,-1.969,-1.969,-1.969,-1.9132,-1.8612,-1.8145,-1.7544,-1.7034,-1.6552,-1.6522,-1.6522,-1.6522,-1.6522,-1.6522,-1.6522,-1.6522,-1.6522,-1.6522,-1.6522,-1.6522,-1.6522,-1.6522,-1.6095,-1.5588,-1.5588,-1.5186,-1.4698,-1.4698,-1.4283,-1.3862,-1.3862,-1.3372,-1.2881,-1.2881,-1.2881,-1.2881,-1.2881,-1.2881,-1.2881,-1.2881,-1.2881,-1.2881,-1.2881,-1.2881,-1.2881,-1.2881,-1.2881,-1.2881,-1.2881,-1.2881,-1.2881,-1.2881,-1.2881,-1.2881,-1.2881,-1.2236,-1.1814,-1.1864,-1.1316,-1.0973,-1.0973,-1.0914,-1.0864,-1.0864,-1.0813,-1.0813,-1.0813,-1.0813,-1.0813,-1.0762,-1.0167,-1.0218,-2.0016,-2.0935,-2.1917,-2.2835,-2.2994,-2.3198,-2.4221,-2.4492,-2.4636,-2.4955,-2.4828,-2.4835,-2.5346,-2.5831,-2.6414,-2.7214,-2.7285,-2.7204,0.0,0.0,0.0,0.0,0.0,0.0,0.0,0.0,0.0,0.0,0.0,0.0,0.0,0.0,0.0,-2.1023,-2.0829,-2.0398,-1.9726,-1.969,-1.969,-1.969,-1.969,-1.969,-1.969,-1.8817,-1.8302,-1.8066,-1.7188,-1.668,-1.6522,-1.6522,-1.6522,-1.6522,-1.6522,-1.6522,-1.6522,-1.6522,-1.6522,-1.6522,-1.6522,-1.6522,-1.6423,-1.6051,-1.5543,-1.496,-1.4584,-1.4061,-1.3563,-1.3563,-1.343,-1.3334,-1.3684,-1.3324,-1.2881,-1.2881,-1.2881,-1.2881,-1.2881,-1.2881,-1.2881,-1.2881,-1.2881,-1.2881,-1.2881,-1.2881,-1.2881,-1.2881,-1.2881,-1.2715,-1.2295,-1.2236,-1.2039,-1.1642,-1.1584,-1.1434,-1.099,-1.072,-1.0364,-0.9961,-1.0466,-1.0813,-1.0813,-1.0415,-1.0167,-1.0167,-0.9762,-0.9562,-0.9562,-0.9562,-0.9562,-0.9562,-0.9309,-0.9309,-1.9582,-2.0681,-2.1958,-2.2845,-2.3022,-2.3198,-2.3921,-2.4435,-2.4819,-2.5126,-2.5024,-2.504,-2.5579,-2.5781,0.0,0.0,-2.6579,-2.647,0.0,0.0,0.0,0.0,0.0,0.0,0.0,0.0,0.0,0.0,0.0,0.0,0.0,0.0,0.0,0.0,-2.0862,-2.0431,-1.9726,-1.969,-1.969,-1.969,-1.969,-1.969,-1.9639,-1.8574,-1.8106,-1.8027,-1.6951,-1.6522,-1.6522,-1.6522,-1.6522,-1.6522,-1.6522,-1.6522,-1.6479,-1.6281,-1.6238,-1.6194,-1.602,-1.5932,-1.5876,-1.5454,-1.4915,-1.4329,-1.392,-1.3372,-1.2881,-1.2881,-1.2881,-1.3027,-1.342,-1.319,-1.2881,-1.2881,-1.2881,-1.2881,-1.2881,-1.2881,-1.2881,-1.2881,-1.2715,-1.2559,-1.2559,-1.2353,-1.2255,-1.2255,-1.2255,-1.2049,-1.1566,-1.1466,-1.1316,-1.0864,-1.0813,-1.061,-1.0167,-0.9917,-0.9614,-0.9159,-0.9762,-1.0167,-1.0167,-0.9718,-0.9465,-0.9465,-0.9061,-0.8804,-0.8804,-0.8804,-0.8804,-0.8804,-0.8804,-0.8804,-2.0243,-2.1143,-2.1993,-2.2803,-2.2999,-2.3217,-2.3953,-2.4166,-2.4366,-2.4878,-2.501,-2.501,-2.501,-2.5653,0.0,-2.6199,-2.5901,0.0,0.0,0.0,0.0,0.0,0.0,0.0,0.0,0.0,0.0,0.0,0.0,0.0,0.0,0.0,0.0,0.0,-2.0534,-2.0108,-1.966,-1.966,-1.966,-1.966,-1.966,-1.9675,-1.9639,-1.8574,-1.8106,-1.8027,-1.6951,-1.6522,-1.6522,-1.6522,-1.6522,-1.6522,-1.6522,-1.6522,-1.6423,-1.582,-1.5588,-1.5499,-1.4926,-1.4698,-1.4698,-1.4698,-1.4283,-1.3815,-1.3779,-1.3372,-1.2881,-1.2881,-1.2881,-1.2881,-1.2881,-1.2881,-1.2881,-1.2881,-1.2881,-1.2881,-1.2881,-1.2881,-1.2881,-1.2881,-1.2295,-1.1814,-1.1814,-1.1266,-1.0813,-1.0813,-1.0813,-1.0813,-1.0813,-1.0762,-1.0762,-1.0762,-1.0762,-1.0762,-1.0762,-1.0167,-0.9814,-0.9814,-0.9159,-0.8804,-0.8804,-0.8804,-0.8804,-0.8804,-0.8804,-0.8804,-0.8804,-0.8804,-0.8804,-0.8804,-0.8804,-0.8804,-1.96,-2.1048,-2.2703,-2.294,-2.3888,-2.4807,-2.4981,-2.4976,-2.5014,-2.5166,-2.5099,-2.5034,-2.5173,-2.5298,0.0,-2.5361,0.0,0.0,0.0,0.0,0.0,0.0,0.0,0.0,0.0,0.0,0.0,0.0,0.0,0.0,0.0,0.0,0.0,0.0,-1.9891,-1.9513,-1.8313,-1.8298,-1.8298,-1.8298,-1.8298,-1.8792,-1.9639,-1.8574,-1.8106,-1.8027,-1.6951,-1.6522,-1.6522,-1.6522,-1.6522,-1.6522,-1.6522,-1.6522,-1.6466,-1.6281,-1.5952,-1.5588,-1.541,-1.505,-1.4606,-1.419,-1.3956,-1.3732,-1.3286,-1.3065,-1.2881,-1.2881,-1.2881,-1.2881,-1.2881,-1.2881,-1.2881,-1.2881,-1.2881,-1.2881,-1.2881,-1.2881,-1.2881,-1.2881,-1.2295,-1.1814,-1.1814,-1.1266,-1.0813,-1.0813,-1.0813,-1.0618,-1.0167,-0.9666,-0.9413,-0.9413,-0.9413,-0.9413,-0.9413,-0.9211,-0.9113,-0.9113,-0.891,-0.8804,-0.8804,-0.8804,-0.8804,-0.8804,-0.8804,-0.8804,-0.8804,-0.8804,-0.8804,-0.8804,-0.8804,-0.8804,-2.0235,-2.172,-2.3512,-2.3825,-2.4426,-2.4936,-2.4892,-2.5099,-2.5303,-2.5303,-2.5203,-2.5152,-2.5274,-2.5203,0.0,0.0,0.0,0.0,0.0,0.0,0.0,0.0,0.0,0.0,0.0,0.0,0.0,0.0,0.0,0.0,0.0,0.0,0.0,0.0,-1.9324,-1.8966,-1.773,-1.7697,-1.7697,-1.7697,-1.7552,-1.7884,-1.8652,-1.7979,-1.7714,-1.7747,-1.6879,-1.6522,-1.6522,-1.6522,-1.6522,-1.6522,-1.6522,-1.6522,-1.6423,-1.5976,-1.5555,-1.5186,-1.4687,-1.4283,-1.3931,-1.3552,-1.342,-1.3372,-1.3017,-1.2881,-1.2881,-1.2881,-1.2881,-1.2881,-1.2881,-1.2666,-1.2452,-1.2452,-1.2461,-1.2363,-1.2098,-1.2058,-1.2058,-1.2058,-1.1484,-1.1015,-1.1015,-1.0466,-1.002,-1.002,-1.002,-0.9865,-0.9465,-0.9061,-0.8804,-0.8804,-0.8804,-0.8804,-0.8804,-0.8804,-0.8804,-0.8804,-0.8804,-0.8804,-0.8804,-0.8804,-0.8804,-0.8804,-0.8804,-0.8804,-0.8804,-0.8804,-0.8804,-0.8804,-0.8804,-0.8804,-2.1584,-2.2699,-2.4057,-2.487,-2.4519,-2.398,-2.3974,-2.4543,-2.5072,-2.5072,-2.5072,-2.5072,-2.5072,-2.5072,-2.5004,0.0,0.0,0.0,0.0,0.0,0.0,0.0,0.0,0.0,0.0,0.0,0.0,0.0,0.0,0.0,0.0,0.0,0.0,0.0,-1.8779,-1.8387,-1.755,-1.7518,-1.7518,0.0,-1.7082,-1.691,-1.6866,-1.6945,-1.7033,-1.7109,-1.6697,-1.6522,-1.6522,-1.6522,-1.6466,-1.6423,-1.6423,-1.638,-1.6194,-1.5107,-1.4652,-1.4479,-1.3382,-1.2978,-1.2881,-1.2881,-1.2881,-1.2881,-1.2881,-1.2881,-1.2881,-1.2822,-1.2774,-1.2774,-1.2725,-1.2187,-1.1715,-1.1616,-1.1683,-1.1543,-1.1023,-1.0864,-1.0813,-1.0813,-1.0261,-0.9814,-0.9814,-0.9263,-0.8804,-0.8804,-0.8804,-0.8804,-0.8804,-0.8804,-0.8804,-0.8804,-0.8804,-0.8804,-0.8804,-0.8804,-0.8804,-0.8804,-0.8804,-0.8804,-0.8804,-0.8804,-0.8804,-0.8804,-0.8804,-0.8804,-0.8804,-0.8804,-0.8804,-0.8804,-0.8804,-0.8804,-2.1529,-2.1779,-2.226,-2.3129,-2.3214,-2.3077,-2.3071,-2.3216,-2.3331,-2.3331,-2.3331,-2.3331,-2.3331,-2.3331,0.0,0.0,0.0,0.0,0.0,0.0,0.0,0.0,0.0,0.0,0.0,0.0,0.0,0.0,0.0,0.0,0.0,0.0,0.0,-1.7321,-1.7802,-1.7503,-1.6218,-1.6218,-1.6025,0.0,-1.5569,-1.5431,-1.5241,-1.5761,-1.6021,-1.6046,-1.6363,-1.6522,-1.6522,-1.6522,-1.6238,-1.5776,-1.5776,-1.5511,-1.5062,-1.4789,-1.4376,-1.3956,-1.3695,-1.3286,-1.2881,-1.2881,-1.2881,-1.2881,-1.2881,-1.2881,-1.2774,-1.2187,-1.203,-1.1922,-1.1375,-1.1124,-1.0864,-1.0364,-1.0618,-1.1124,-1.1516,-1.1166,-1.0813,-1.0813,-1.0261,-0.9814,-0.9814,-0.9263,-0.8804,-0.8804,-0.8804,-0.8804,-0.8804,-0.8804,-0.8804,-0.8804,-0.8804,-0.8804,-0.8804,-0.8804,-0.8804,-0.8804,-0.8804,-0.8804,-0.8804,-0.8804,-0.8804,-0.8804,-0.8804,-0.8804,-0.8804,-0.8804,-0.8804,-0.8804,-0.8804,-0.8804,-2.1504,-2.1793,-2.2235,-2.2677,-2.2793,-2.2677,-2.2274,-2.2177,-2.2062,-2.1677,-2.2235,-2.2793,-2.2793,0.0,0.0,0.0,0.0,0.0,0.0,0.0,0.0,0.0,0.0,0.0,0.0,0.0,0.0,0.0,0.0,0.0,0.0,-1.8515,-1.8302,-1.6847,-1.7167,-1.6862,-1.5799,-1.5799,-1.5668,-1.5418,-1.5013,-1.4506,-1.4011,-1.4922,-1.5325,-1.5316,-1.5605,-1.5731,-1.5756,-1.6019,-1.577,-1.5255,-1.5492,-1.5231,-1.4652,-1.4376,-1.405,-1.3779,-1.3467,-1.3152,-1.2881,-1.2881,-1.2881,-1.2881,-1.2881,-1.2881,-1.2774,-1.2021,-1.1814,-1.1665,-1.0965,-1.0568,-1.0312,-1.0269,-1.0312,-1.032,-1.0364,-1.0064,-0.9865,-0.9865,-0.9562,-0.9309,-0.9309,-0.9008,-0.8804,-0.8804,-0.8804,-0.8804,-0.8804,-0.8804,-0.8804,-0.8804,-0.8804,-0.8804,-0.8804,-0.8804,-0.8804,-0.8804,-0.8804,-0.8804,-0.8804,-0.8804,-0.8804,-0.8804,-0.8804,-0.8804,-0.8804,-0.8804,-0.8804,-0.8804,-0.8804,-0.8804,-2.1466,-2.2023,-2.2543,-2.2389,-2.237,-2.2177,-2.1466,-2.1177,-2.0889,-2.0215,-2.1293,-2.237,-2.237,0.0,0.0,0.0,0.0,0.0,0.0,0.0,0.0,0.0,0.0,0.0,0.0,0.0,0.0,0.0,0.0,0.0,-1.7811,-1.7693,-1.7319,-1.6648,-1.6511,-1.6129,-1.5454,-1.5574,-1.5605,-1.5504,-1.4758,-1.4,-1.3235,-1.4174,-1.4676,-1.4777,-1.4865,-1.4916,-1.4941,-1.5367,-1.5135,-1.4587,-1.503,-1.4786,-1.4089,-1.3678,-1.3523,-1.3439,-1.3035,-1.2881,-1.2881,-1.2881,-1.2822,-1.2715,-1.2725,-1.2627,-1.2412,-1.1674,-1.1458,-1.1316,-1.0618,-1.0064,-0.9762,-1.0312,-1.0012,-0.9517,-0.9061,-0.8857,-0.8804,-0.8804,-0.8804,-0.8804,-0.8804,-0.8804,-0.8804,-0.8804,-0.8804,-0.8804,-0.8804,-0.8804,-0.8804,-0.8804,-0.8804,-0.8804,-0.8804,-0.8804,-0.8804,-0.8804,-0.8699,-0.8593,-0.8593,-0.848,-0.8427,-0.8427,-0.8646,-0.8804,-0.8804,-0.8699,-0.8699,-0.8804,-0.8533,-0.854,-2.1312,-2.1581,-2.1504,-2.0812,-2.0639,-2.06,-2.0485,-1.9869,-1.93,0.0,-1.9946,-2.0639,0.0,0.0,0.0,0.0,0.0,0.0,0.0,0.0,0.0,0.0,0.0,0.0,0.0,0.0,0.0,0.0,0.0,0.0,-1.7811,-1.7185,-1.6575,-1.5943,-1.5318,-1.4687,-1.4079,-1.4633,-1.4722,-1.4313,-1.4083,-1.3702,-1.321,-1.3348,-1.3709,-1.4223,-1.4702,-1.4916,-1.4916,-1.4991,-1.4401,-1.3414,-1.3482,-1.2914,-1.2033,-1.2296,-1.2398,-1.2457,-1.2802,-1.2881,-1.2881,-1.2881,-1.2452,-1.1931,-1.195,-1.1543,-1.0922,-1.0261,-1.0064,-0.9909,-0.9263,-0.9008,-0.8956,-0.9061,-0.9008,-0.9061,-0.9562,-0.9211,-0.8804,-0.8804,-0.8804,-0.8804,-0.8804,-0.8804,-0.8804,-0.8804,-0.8804,-0.8804,-0.8804,-0.8804,-0.8804,-0.8804,-0.8804,-0.8804,-0.8804,-0.8804,-0.8804,-0.8804,-0.8209,-0.783,-0.783,-0.7235,-0.6912,-0.6912,-0.8156,-0.8804,-0.8804,-0.8156,-0.8156,-0.8752,-0.7509,-0.7563,-2.0735,-2.0831,-2.0735,-2.0389,-2.0312,-2.0169,-1.9669,-1.9273,-1.8857,-1.8376,-1.8581,0.0,0.0,0.0,0.0,0.0,0.0,0.0,0.0,0.0,0.0,0.0,0.0,0.0,0.0,0.0,0.0,0.0,0.0,-1.6576,-1.6576,-1.6114,-1.5659,-1.5197,-1.4733,-1.4264,-1.381,-1.4094,-1.3923,-1.3305,-1.3074,-1.2888,-1.2735,-1.2735,-1.3069,-1.3609,-1.3848,-1.3961,-1.3937,-1.3975,-1.3497,-1.2758,-1.2789,-1.2319,-1.1626,-1.1787,-1.2012,-1.2209,-1.2451,-1.2676,-1.2881,-1.2881,-1.2666,-1.2344,-1.194,-1.1575,-1.1166,-1.0115,-0.9814,-0.9666,-0.8956,-0.8804,-0.8804,-0.8804,-0.8804,-0.8857,-0.9159,-0.9008,-0.8804,-0.8804,-0.8804,-0.8804,-0.8804,-0.8804,-0.8804,-0.8804,-0.8804,-0.8804,-0.8804,-0.8804,-0.8804,-0.8804,-0.8804,-0.8804,-0.8804,-0.8804,-0.8804,-0.8804,-0.848,-0.8315,-0.8315,-0.7616,-0.7235,-0.7235,-0.745,-0.7563,-0.7563,-0.7235,-0.7235,-0.7563,-0.6912,-0.6966,-1.9958,-2.0131,-2.0312,-2.0312,-2.0312,-2.0131,-1.9477,-1.8984,-1.8491,0.0,-1.735,0.0,0.0,0.0,0.0,0.0,0.0,0.0,0.0,0.0,0.0,0.0,0.0,0.0,0.0,0.0,0.0,0.0,0.0,-1.5654,-1.5595,-1.5231,-1.485,-1.4453,-1.4063,-1.3667,-1.3301,-1.3391,-1.3142,-1.2566,-1.2312,-1.2199,-1.2203,-1.2203,-1.2504,-1.2998,-1.2998,-1.3012,-1.3015,-1.2961,-1.2579,-1.2064,-1.2114,-1.1767,-1.1292,-1.14,-1.1602,-1.1879,-1.1909,-1.2186,-1.2474,-1.2374,-1.2264,-1.1999,-1.1475,-1.1166,-1.0813,-0.9814,-0.9562,-0.9413,-0.891,-0.8804,-0.8804,-0.8804,-0.8804,-0.8804,-0.8804,-0.8804,-0.8804,-0.8804,-0.8804,-0.8804,-0.8804,-0.8804,-0.8804,-0.8804,-0.8804,-0.8804,-0.8804,-0.8804,-0.8804,-0.8804,-0.8804,-0.8699,-0.8533,-0.8533,-0.8533,-0.8533,-0.8368,-0.8262,-0.8262,-0.7557,-0.7069,-0.6907,-0.6367,-0.6263,-0.6588,-0.6421,-0.6421,-0.6588,-0.6209,-0.6263,-1.9073,-1.9669,-2.0312,-2.0312,-2.0312,-2.0292,-2.0235,0.0,-1.776,-1.7722,-1.6445,0.0,0.0,0.0,0.0,0.0,0.0,0.0,0.0,0.0,0.0,0.0,0.0,0.0,0.0,0.0,0.0,0.0,0.0,-1.5808,-1.5615,-1.4917,-1.4302,-1.3774,-1.3055,-1.2446,-1.191,-1.2214,-1.2347,-1.2226,-1.2197,-1.1991,-1.1625,-1.1625,-1.1927,-1.2459,-1.2503,-1.2544,-1.2508,-1.2052,-1.1549,-1.105,-1.1082,-1.0797,-1.04,-1.0801,-1.0957,-1.101,-1.1205,-1.1246,-1.1232,-1.1005,-1.0466,-0.9969,-0.9917,-0.9465,-0.8962,-0.8857,-0.8857,-0.8857,-0.8811,-0.8804,-0.8804,-0.8804,-0.8804,-0.8804,-0.8804,-0.8804,-0.8804,-0.8804,-0.8804,-0.8804,-0.8804,-0.8804,-0.8804,-0.8804,-0.8804,-0.8804,-0.8804,-0.8804,-0.8804,-0.8804,-0.8804,-0.8533,-0.783,-0.7777,-0.7777,-0.7777,-0.7128,-0.6696,-0.6696,-0.5977,-0.5328,-0.468,-0.4625,-0.5281,-0.6588,-0.5873,-0.5923,-0.6588,-0.5226,-0.5336,-1.8981,-1.9234,-1.9331,-1.8773,-1.9042,-1.9311,-1.8754,-1.8138,-1.7542,-1.7042,0.0,0.0,0.0,0.0,0.0,0.0,0.0,0.0,0.0,0.0,0.0,0.0,0.0,0.0,0.0,0.0,0.0,0.0,0.0,0.0,-1.4192,-1.3778,-1.3373,-1.3015,-1.2578,-1.2169,-1.179,-1.1517,-1.1399,-1.1368,-1.0926,-1.0822,-1.1035,-1.1035,-1.1337,-1.1858,-1.1317,-1.164,-1.2425,-1.1616,-1.1169,-1.0981,-1.0687,-1.0467,-1.0303,-1.0449,-1.0674,-1.0906,-1.0994,-1.0962,-1.0976,-1.1033,-1.067,-1.0129,-0.99,-0.9614,-0.9361,-0.891,-0.8804,-0.8804,-0.8804,-0.8804,-0.8804,-0.8804,-0.8804,-0.8646,-0.8209,-0.848,-0.8804,-0.8804,-0.8804,-0.8804,-0.8804,-0.8804,-0.8804,-0.8804,-0.8374,-0.8103,-0.8103,-0.767,-0.7402,-0.7402,-0.7402,-0.7289,-0.702,-0.702,-0.702,-0.702,-0.675,-0.6588,-0.6588,-0.5873,-0.5378,-0.5164,-0.4732,-0.4736,-0.5226,-0.5007,-0.5007,-0.5226,-0.4736,-0.4791,-1.8474,-1.8677,-1.8785,-1.8217,-1.8316,-1.8491,-1.8196,-1.7696,-1.7138,-1.6599,0.0,0.0,0.0,0.0,0.0,0.0,0.0,0.0,0.0,0.0,0.0,0.0,0.0,0.0,0.0,0.0,0.0,0.0,0.0,0.0,-1.3103,-1.2891,-1.2599,-1.2239,-1.2127,-1.1918,-1.1637,-1.1141,-1.0849,-1.0715,-1.0173,-1.0094,-1.0418,-1.0309,-1.059,-1.108,-1.0205,-1.0541,-1.1711,-1.0871,-1.0528,-1.0511,-1.0379,-1.0283,-1.0283,-1.0079,-1.0211,-1.0387,-1.0136,-1.0012,-0.9983,-1.0081,-0.9947,-0.966,-0.9394,-0.9379,-0.9361,-0.891,-0.8804,-0.8804,-0.8804,-0.8804,-0.8804,-0.8804,-0.8804,-0.8646,-0.8156,-0.8262,-0.8374,-0.8103,-0.8049,-0.8049,-0.8049,-0.8049,-0.8049,-0.8049,-0.767,-0.7343,-0.7343,-0.6912,-0.6588,-0.6588,-0.6588,-0.648,-0.6253,-0.6258,-0.6258,-0.6258,-0.6258,-0.6258,-0.6258,-0.576,-0.5378,-0.5164,-0.4732,-0.4519,-0.4519,-0.4519,-0.4519,-0.4519,-0.4519,-0.4519,0.0,0.0,0.0,-1.8733,0.0,0.0,-1.8746,0.0,-1.6484,-1.6484,0.0,0.0,0.0,0.0,0.0,0.0,0.0,0.0,0.0,0.0,0.0,0.0,0.0,0.0,0.0,0.0,0.0,0.0,0.0,-1.263,-1.2474,-1.2336,-1.2008,-1.1482,-1.1663,-1.163,-1.1304,-1.1048,-1.0739,-1.0396,-1.0072,-0.9905,-0.9905,-0.9567,-0.9682,-1.013,-0.9264,-0.9412,-1.022,-0.9778,-0.9583,-0.9641,-1.0098,-1.0273,-1.0244,-0.9677,-0.9518,-0.9372,-0.8567,-0.8297,-0.8268,-0.8003,-0.8116,-0.84,-0.8357,-0.8557,-0.8784,-0.8791,-0.8791,-0.8798,-0.8804,-0.8752,-0.8752,-0.8752,-0.8752,-0.8752,-0.8699,-0.8156,-0.745,-0.675,-0.6588,-0.6588,-0.6588,-0.6588,-0.6588,-0.6588,-0.6588,-0.6588,-0.6588,-0.6534,-0.6534,-0.6534,-0.6534,-0.6258,-0.5542,-0.5487,-0.5487,-0.5487,-0.5487,-0.5487,-0.5487,-0.5487,-0.5164,-0.4519,-0.4519,-0.4519,-0.4519,-0.4519,-0.4519,-0.4519,-0.4519,-0.4519,-1.8377,0.0,0.0,0.0,0.0,0.0,0.0,0.0,-1.6368,-1.6368,0.0,0.0,0.0,0.0,0.0,0.0,0.0,0.0,0.0,0.0,0.0,0.0,0.0,0.0,0.0,0.0,0.0,0.0,-1.2618,-1.2143,-1.152,-1.1317,-1.1073,-1.0783,-1.111,-1.1172,-1.0929,-1.0915,-1.0849,-1.0739,-1.0173,-0.9905,-0.9905,-0.9567,-0.9479,-0.9595,-0.8803,-0.8601,-0.8869,-0.9067,-0.932,-0.9602,-0.9729,-1.0,-1.0244,-0.9677,-0.9518,-0.9417,-0.8791,-0.8333,-0.8022,-0.8172,-0.7969,-0.7809,-0.7983,-0.811,-0.8216,-0.8437,-0.849,-0.8544,-0.8751,-0.7996,-0.7343,-0.7883,-0.7616,-0.7069,-0.6519,-0.6244,-0.6357,-0.7235,-0.6966,-0.6588,-0.6588,-0.6588,-0.6588,-0.6588,-0.6145,-0.5814,-0.5814,-0.5386,-0.5062,-0.5062,-0.5062,-0.5007,-0.4787,-0.4787,-0.4787,-0.4787,-0.4787,-0.4787,-0.4787,-0.4787,-0.4677,-0.4519,-0.4519,-0.4519,-0.4519,-0.4519,-0.4519,-0.4519,-0.4519,-0.4519,-1.854,-1.8372,-1.8207,-1.7336,0.0,0.0,-1.6837,-1.6249,0.0,0.0,0.0,0.0,0.0,0.0,0.0,0.0,0.0,0.0,0.0,0.0,0.0,0.0,0.0,0.0,0.0,0.0,0.0,-1.3036,-1.2333,-1.1523,-1.069,-1.0418,-1.0215,-1.0047,-1.0449,-1.0549,-1.0264,-1.0412,-1.0441,-1.0338,-1.0045,-0.9905,-0.9867,-0.9384,-0.9155,-0.9101,-0.8365,-0.8033,-0.8074,-0.8355,-0.8721,-0.9106,-0.923,-0.9441,-0.96,-0.9058,-0.8837,-0.8756,-0.8177,-0.7773,-0.7559,-0.7702,-0.7626,-0.754,-0.7682,-0.7635,-0.7621,-0.7788,-0.771,-0.7605,-0.7817,-0.7235,-0.6696,-0.7128,-0.6912,-0.6475,-0.6036,-0.5706,-0.5651,-0.6253,-0.6041,-0.5719,-0.5719,-0.5719,-0.5719,-0.5719,-0.5332,-0.5058,-0.5058,-0.4732,-0.4519,-0.4519,-0.4519,-0.4519,-0.4519,-0.4519,-0.4519,-0.4519,-0.4519,-0.4519,-0.4519,-0.4519,-0.4519,-0.4519,-0.4519,-0.4519,-0.4519,-0.4519,-0.4519,-0.4519,-0.4519,-0.4519,-1.8427,-1.8324,-1.839,-1.8286,-1.7274,0.0,-1.6923,-1.5913,-1.4849,0.0,0.0,0.0,0.0,0.0,0.0,0.0,0.0,0.0,0.0,0.0,0.0,0.0,0.0,0.0,0.0,-1.2287,-1.2353,-1.3514,-1.2021,-1.0711,-0.9912,-0.9653,-0.9451,-0.93,-0.9765,-0.9833,-0.9438,-0.9681,-0.9723,-0.9542,-0.9663,-0.9755,-0.9779,-0.9077,-0.8788,-0.8761,-0.8052,-0.7754,-0.7695,-0.7666,-0.7948,-0.8415,-0.8664,-0.8802,-0.8807,-0.8142,-0.7923,-0.7912,-0.7231,-0.6979,-0.6979,-0.6979,-0.7201,-0.7459,-0.7459,-0.7236,-0.7014,-0.6949,-0.6591,-0.6319,-0.6546,-0.6445,-0.6342,-0.6475,-0.6426,-0.6372,-0.6372,-0.5873,-0.5218,-0.4625,-0.4519,-0.4519,-0.4519,-0.4519,-0.4519,-0.4519,-0.4519,-0.4519,-0.4519,-0.4519,-0.4519,-0.4519,-0.4519,-0.4519,-0.4519,-0.4519,-0.4519,-0.4519,-0.4519,-0.4519,-0.4519,-0.4519,-0.4519,-0.4519,-0.4519,-0.4519,-0.4519,-0.4519,-0.4519,-0.4519,-0.4519,-0.4519,-1.906,-1.9081,-1.8826,-1.7647,0.0,0.0,-1.5734,-1.5038,-1.456,0.0,0.0,0.0,0.0,0.0,0.0,0.0,0.0,0.0,0.0,0.0,0.0,0.0,0.0,0.0,0.0,-1.2384,-1.2158,-1.1829,-1.0389,-0.9405,-0.914,-0.9077,-0.8895,-0.8594,-0.9209,-0.9375,-0.9019,-0.918,-0.9226,-0.9199,-0.8792,-0.8838,-0.924,-0.8777,-0.8645,-0.8789,-0.8365,-0.8004,-0.7666,-0.7344,-0.7687,-0.8389,-0.8458,-0.8862,-0.9336,-0.832,-0.823,-0.839,-0.7356,-0.6979,-0.6979,-0.6979,-0.7061,-0.7108,-0.7108,-0.6761,-0.6328,-0.6065,-0.5668,-0.5539,-0.6257,-0.554,-0.4847,-0.5567,-0.5273,-0.4901,-0.4901,-0.4787,-0.468,-0.4515,-0.4519,-0.4519,-0.4519,-0.4519,-0.4519,-0.4519,-0.4519,-0.4519,-0.4519,-0.4519,-0.4519,-0.4519,-0.4519,-0.4519,-0.4519,-0.4519,-0.4519,-0.4519,-0.4519,-0.4519,-0.4519,-0.4519,-0.4519,-0.4519,-0.4519,-0.4519,-0.4519,-0.4519,-0.4519,-0.4519,-0.4519,-0.4519,-1.8965,-1.9049,-1.8933,-1.8066,0.0,0.0,0.0,-1.5048,-1.4444,-1.4421,-1.3482,0.0,0.0,0.0,0.0,0.0,0.0,0.0,0.0,0.0,0.0,0.0,0.0,0.0,0.0,-1.2407,-1.2224,-1.1821,-1.0741,-0.9913,-0.9484,-0.9042,-0.8689,-0.8415,-0.8627,-0.8587,-0.8255,-0.8476,-0.8556,-0.8449,-0.835,-0.8358,-0.8481,-0.8087,-0.8026,-0.8192,-0.7835,-0.7595,-0.7373,-0.7178,-0.7245,-0.7453,-0.7387,-0.7593,-0.7894,-0.7463,-0.7467,-0.7591,-0.7134,-0.6979,-0.6979,-0.6979,-0.6979,-0.6937,-0.6689,-0.5996,-0.5217,-0.4846,-0.4593,-0.4561,-0.5085,-0.4698,-0.4319,-0.4759,-0.4678,-0.4519,-0.4519,-0.4519,-0.4519,-0.4519,-0.4519,-0.4519,-0.4519,-0.4519,-0.4519,-0.4519,-0.4519,-0.4519,-0.4519,-0.4519,-0.4519,-0.4519,-0.4519,-0.4519,-0.4519,-0.4519,-0.4519,-0.4519,-0.4519,-0.4519,-0.4519,-0.4519,-0.4519,-0.4519,-0.4519,-0.4519,-0.4519,-0.4519,-0.4519,-0.4519,-0.4519,-0.4519,0.0,0.0,-1.8807,0.0,0.0,-1.6441,0.0,0.0,0.0,-1.4719,0.0,0.0,0.0,0.0,0.0,0.0,0.0,0.0,0.0,0.0,0.0,0.0,0.0,0.0,0.0,-1.2301,-1.229,-1.217,-1.1521,-1.0788,-0.9967,-0.9267,-0.8751,-0.8415,-0.8198,-0.7952,-0.7665,-0.7851,-0.7842,-0.7685,-0.7879,-0.7884,-0.7744,-0.7404,-0.7387,-0.7587,-0.7319,-0.7176,-0.708,-0.702,-0.676,-0.639,-0.6361,-0.6375,-0.6462,-0.653,-0.6642,-0.6772,-0.6902,-0.6974,-0.6979,-0.6894,-0.6768,-0.655,-0.6002,-0.5173,-0.4292,-0.3897,-0.3751,-0.3785,-0.3938,-0.404,-0.416,-0.4187,-0.4358,-0.4519,-0.4519,-0.4519,-0.4519,-0.4519,-0.4519,-0.4519,-0.4519,-0.4519,-0.4519,-0.4519,-0.4519,-0.4519,-0.4519,-0.4519,-0.4519,-0.4519,-0.4519,-0.4519,-0.4519,-0.4519,-0.4519,-0.4519,-0.4519,-0.4519,-0.4519,-0.4519,-0.4519,-0.4519,-0.4519,-0.4519,-0.4519,-0.4519,-0.4519,-0.4519,-0.4519,-0.4519,0.0,0.0,0.0,0.0,-1.6974,0.0,0.0,0.0,-1.375,-1.3125,0.0,0.0,0.0,0.0,0.0,0.0,0.0,0.0,0.0,0.0,0.0,0.0,0.0,0.0,0.0,0.0,-1.1975,-1.162,-1.1399,-1.0794,-0.9708,-0.9669,-0.9274,-0.8431,-0.8198,-0.8037,-0.787,-0.7496,-0.729,-0.7272,-0.6945,-0.6926,-0.7191,-0.715,-0.7293,-0.7587,-0.7561,-0.7368,-0.708,-0.6721,-0.6336,-0.6006,-0.6353,-0.6704,-0.6959,-0.6511,-0.6738,-0.7238,-0.6818,-0.6807,-0.6937,-0.6435,-0.5916,-0.5389,-0.4778,-0.4522,-0.4308,-0.3773,-0.3605,-0.3636,-0.3782,-0.3931,-0.403,-0.4164,-0.4358,-0.4519,-0.4519,-0.4519,-0.4519,-0.4519,-0.4519,-0.4519,-0.4519,-0.4519,-0.4519,-0.4519,-0.4519,-0.4519,-0.4519,-0.4519,-0.4519,-0.4519,-0.4519,-0.4519,-0.4519,-0.4519,-0.4519,-0.4519,-0.4519,-0.4519,-0.4519,-0.4519,-0.4519,-0.4519,-0.4519,-0.4519,-0.4519,-0.4519,-0.4519,-0.4519,-0.4519,-0.4519,0.0,0.0,0.0,0.0,0.0,0.0,-1.4721,0.0,-1.3759,0.0,0.0,0.0,0.0,0.0,0.0,0.0,0.0,0.0,0.0,0.0,0.0,0.0,0.0,0.0,0.0,0.0,0.0,0.0,0.0,-1.1205,-1.072,-0.9978,-0.9327,-0.8826,-0.8349,-0.798,-0.7724,-0.7379,-0.7146,-0.7029,-0.674,-0.6535,-0.6406,-0.6406,-0.6473,-0.6566,-0.6562,-0.6483,-0.6393,-0.6225,-0.5913,-0.5554,-0.5734,-0.5909,-0.6017,-0.5699,-0.5782,-0.6039,-0.5824,-0.5803,-0.5879,-0.5738,-0.5265,-0.4739,-0.4474,-0.4176,-0.388,-0.3667,-0.3581,-0.3595,-0.3653,-0.3843,-0.4036,-0.405,-0.4294,-0.4519,-0.4519,-0.4519,-0.4519,-0.4519,-0.4519,-0.4519,-0.4519,-0.4519,-0.4519,-0.4519,-0.4519,-0.4519,-0.4519,-0.4519,-0.4519,-0.4519,-0.4519,-0.4519,-0.4519,-0.4519,-0.4519,-0.4519,-0.4519,-0.4519,-0.4519,-0.4519,-0.4519,-0.4519,-0.4519,-0.4519,-0.4519,-0.4519,-0.4519,-0.4519,-0.4519,-0.4519,-1.7816,0.0,0.0,0.0,0.0,0.0,0.0,0.0,0.0,0.0,0.0,0.0,0.0,0.0,0.0,0.0,0.0,0.0,0.0,0.0,0.0,0.0,0.0,0.0,0.0,0.0,0.0,0.0,0.0,0.0,-1.1422,-1.0428,-0.964,-0.9127,-0.8589,-0.8092,-0.7605,-0.7332,-0.7112,-0.6908,-0.6608,-0.6278,-0.5911,-0.5819,-0.5792,-0.5801,-0.5792,-0.583,-0.5892,-0.5888,-0.5654,-0.5309,-0.5309,-0.5309,-0.5272,-0.5186,-0.5134,-0.5121,-0.5137,-0.504,-0.492,-0.5033,-0.4652,-0.4176,-0.4176,-0.3921,-0.3581,-0.3581,-0.3581,-0.3581,-0.3581,-0.3768,-0.3968,-0.4009,-0.4216,-0.4412,-0.4508,-0.4519,-0.4519,-0.4519,-0.4519,-0.4519,-0.4519,-0.4519,-0.4519,-0.4519,-0.4519,-0.4519,-0.4519,-0.4519,-0.4519,-0.4519,-0.4519,-0.4519,-0.4519,-0.4519,-0.4519,-0.4519,-0.4519,-0.4519,-0.4519,-0.4519,-0.4519,-0.4519,-0.4522,-0.4522,-0.4522,-0.4525,-0.4525,-0.4525,-0.4522,-0.4519,0.0,0.0,0.0,-1.5923,0.0,0.0,0.0,0.0,-1.3396,0.0,0.0,0.0,0.0,0.0,-1.1514,-1.1482,-1.1249,0.0,0.0,0.0,0.0,0.0,0.0,0.0,0.0,0.0,0.0,0.0,0.0,0.0,-1.1162,-1.1126,-1.0508,-0.9142,-0.894,-0.8451,-0.7605,-0.7332,-0.7112,-0.6908,-0.6428,-0.6094,-0.5893,-0.5633,-0.5623,-0.5803,-0.5791,-0.5838,-0.5904,-0.5912,-0.5665,-0.5309,-0.5309,-0.5309,-0.5309,-0.5291,-0.5208,-0.5133,-0.5259,-0.4899,-0.4426,-0.443,-0.4049,-0.3622,-0.3622,-0.3622,-0.3581,-0.3581,-0.3581,-0.3581,-0.3581,-0.369,-0.3836,-0.3985,-0.409,-0.4241,-0.4433,-0.4519,-0.4519,-0.4519,-0.4519,-0.4519,-0.4519,-0.4519,-0.4519,-0.4519,-0.4519,-0.4519,-0.4519,-0.4519,-0.4519,-0.4519,-0.4519,-0.4519,-0.4519,-0.4519,-0.4519,-0.4519,-0.4519,-0.4519,-0.4519,-0.4519,-0.4519,-0.4519,-0.4473,-0.448,-0.448,-0.449,-0.4494,-0.4494,-0.4473,-0.4519,0.0,0.0,-1.6207,-1.5759,0.0,0.0,0.0,0.0,0.0,0.0,0.0,0.0,0.0,0.0,-1.2164,-1.1987,-1.1505,-1.0884,0.0,0.0,0.0,0.0,0.0,0.0,0.0,0.0,0.0,0.0,0.0,0.0,0.0,-1.1709,-1.1296,-1.0248,-0.9883,-0.9205,-0.821,-0.7966,-0.7537,-0.6908,-0.6608,-0.626,-0.5911,-0.58,-0.5604,-0.5341,-0.5387,-0.5322,-0.5184,-0.5374,-0.5262,-0.4973,-0.5204,-0.5309,-0.5214,-0.4634,-0.4595,-0.4699,-0.4317,-0.3948,-0.3672,-0.3672,-0.3619,-0.3581,-0.3581,-0.3581,-0.3581,-0.3581,-0.3581,-0.3581,-0.3581,-0.3687,-0.3829,-0.3982,-0.4086,-0.4234,-0.4433,-0.4519,-0.4519,-0.4519,-0.4519,-0.4519,-0.4519,-0.4519,-0.4519,-0.4519,-0.4519,-0.4519,-0.4519,-0.4519,-0.4519,-0.4519,-0.4525,-0.4525,-0.4519,-0.4525,-0.4477,-0.4484,-0.4484,-0.4484,-0.4484,-0.4484,-0.4484,-0.4484,-0.4487,-0.3978,-0.2959,-0.2961,-0.2961,-0.2961,-0.2956,-0.3516,-1.6209,-1.5687,0.0,-1.5048,-1.4471,0.0,-1.3564,0.0,0.0,0.0,0.0,0.0,0.0,0.0,-1.2215,-1.1924,-1.1525,-1.0857,0.0,-0.8863,0.0,0.0,0.0,0.0,0.0,0.0,-1.0591,-1.127,0.0,0.0,0.0,0.0,-1.1994,-1.1191,-1.0537,-0.9732,-0.8713,-0.8277,-0.7726,-0.707,-0.6657,-0.626,-0.5911,-0.58,-0.5509,-0.5108,-0.5047,-0.4932,-0.4812,-0.5,-0.4963,-0.4805,-0.4971,-0.5055,-0.4985,-0.4409,-0.4236,-0.4153,-0.3572,-0.333,-0.3306,-0.3306,-0.3453,-0.3581,-0.3581,-0.3581,-0.3581,-0.3581,-0.3581,-0.3581,-0.3581,-0.3646,-0.3768,-0.3972,-0.4043,-0.4219,-0.4419,-0.4519,-0.4519,-0.4522,-0.4525,-0.4525,-0.4473,-0.4473,-0.4525,-0.4519,-0.4519,-0.4519,-0.4522,-0.4525,-0.4525,-0.4473,-0.448,-0.4484,-0.4473,-0.4024,-0.3691,-0.3697,-0.3697,-0.3697,-0.3697,-0.3697,-0.3697,-0.3697,-0.4212,-0.399,-0.3023,-0.1955,-0.1676,-0.2181,-0.2181,-0.2745]},{"header":{"parameterUnit":"m.s-1","parameterCategory":1,"la1":30.6,"la2":29.2853,"lo1":-89.7004,"lo2":-87.6739,"dy":0.0162,"dx":0.0183,"nx":112,"ny":82,"refTime":"2024-07-31T12:00:00:Z","depth":0,"parameterNumber":3,"parameterNumberName":"V-component_of_WINDS"},"data":[0.0,0.0,0.0,0.0,0.0,0.0,0.0,0.0,0.0,0.0,0.0,0.0,0.0,0.0,0.0,0.0,0.0,0.0,0.0,0.0,0.0,0.0,0.0,0.0,0.0,0.0,0.0,0.0,0.0,0.0,0.0,0.0,0.0,0.0,0.0,0.0,0.0,0.0,0.0,0.0,0.0,0.0,0.0,0.0,0.0,0.0,0.0,0.0,0.0,0.0,0.0,0.0,0.0,0.0,0.0,0.0,0.0,0.0,0.0,0.0,0.0,0.0,0.0,0.0,0.0,0.0,0.0,0.0,0.0,0.0,0.0,0.0,0.0,0.0,0.0,0.0,0.0,0.0,0.0,0.0,0.0,0.0,0.0,0.0,0.0,0.0,0.0,0.0,0.0,0.0,-1.7295,-1.8779,-1.9521,-1.9912,-1.9912,-2.0236,-1.9668,-1.7835,0.0,0.0,0.0,0.0,0.0,0.0,0.0,0.0,0.0,0.0,0.0,0.0,0.0,0.0,0.0,0.0,0.0,0.0,0.0,0.0,0.0,0.0,0.0,0.0,0.0,0.0,0.0,0.0,0.0,0.0,0.0,0.0,0.0,0.0,0.0,0.0,0.0,0.0,0.0,0.0,0.0,0.0,0.0,0.0,0.0,0.0,0.0,0.0,0.0,0.0,0.0,0.0,0.0,0.0,0.0,0.0,0.0,0.0,0.0,0.0,0.0,0.0,0.0,0.0,0.0,0.0,0.0,0.0,0.0,0.0,0.0,0.0,0.0,0.0,0.0,0.0,0.0,0.0,0.0,0.0,0.0,0.0,0.0,0.0,0.0,0.0,0.0,0.0,0.0,0.0,0.0,0.0,0.0,0.0,0.0,0.0,0.0,0.0,0.0,0.0,0.0,0.0,0.0,0.0,-1.7646,-2.0019,-2.0059,-1.9912,-1.9912,-1.9951,-1.979,-1.9293,0.0,0.0,0.0,0.0,0.0,0.0,0.0,0.0,0.0,0.0,0.0,0.0,0.0,0.0,0.0,0.0,0.0,0.0,0.0,0.0,0.0,0.0,0.0,0.0,0.0,0.0,0.0,0.0,0.0,0.0,0.0,0.0,0.0,0.0,0.0,0.0,0.0,0.0,0.0,0.0,0.0,0.0,0.0,0.0,0.0,0.0,0.0,0.0,0.0,0.0,0.0,0.0,0.0,0.0,0.0,0.0,0.0,0.0,0.0,0.0,0.0,0.0,0.0,0.0,0.0,0.0,0.0,0.0,0.0,0.0,0.0,0.0,0.0,0.0,0.0,0.0,0.0,0.0,0.0,0.0,0.0,0.0,0.0,0.0,0.0,0.0,0.0,0.0,0.0,0.0,0.0,0.0,0.0,0.0,0.0,0.0,0.0,0.0,0.0,0.0,0.0,0.0,0.0,-1.7561,-1.8686,-2.1095,-2.068,-2.0285,-2.0285,-2.0744,-2.0501,-1.9382,-1.943,0.0,0.0,0.0,0.0,0.0,0.0,0.0,0.0,0.0,0.0,0.0,0.0,0.0,0.0,0.0,0.0,0.0,0.0,0.0,0.0,0.0,0.0,0.0,0.0,0.0,0.0,0.0,0.0,0.0,0.0,0.0,0.0,0.0,0.0,0.0,0.0,0.0,0.0,0.0,0.0,0.0,0.0,0.0,0.0,0.0,0.0,0.0,0.0,0.0,0.0,0.0,0.0,0.0,0.0,0.0,0.0,0.0,0.0,0.0,0.0,0.0,0.0,0.0,0.0,0.0,0.0,0.0,0.0,0.0,0.0,0.0,0.0,0.0,0.0,0.0,0.0,0.0,0.0,0.0,0.0,0.0,0.0,0.0,0.0,0.0,0.0,0.0,0.0,0.0,0.0,0.0,0.0,0.0,0.0,0.0,0.0,0.0,0.0,0.0,0.0,0.0,0.0,-1.9334,-2.0053,-2.1808,-2.1371,-2.0903,-2.0716,-2.1194,-2.0911,-1.9454,-1.9407,0.0,0.0,0.0,0.0,0.0,0.0,0.0,0.0,0.0,0.0,0.0,0.0,0.0,0.0,0.0,0.0,0.0,0.0,0.0,0.0,0.0,0.0,0.0,0.0,0.0,0.0,0.0,0.0,0.0,0.0,0.0,0.0,0.0,0.0,0.0,0.0,0.0,0.0,0.0,0.0,0.0,0.0,0.0,0.0,0.0,0.0,0.0,0.0,0.0,0.0,0.0,0.0,0.0,0.0,0.0,0.0,0.0,0.0,0.0,0.0,0.0,0.0,0.0,0.0,0.0,0.0,0.0,0.0,0.0,0.0,0.0,0.0,0.0,0.0,0.0,0.0,0.0,0.0,0.0,0.0,0.0,0.0,0.0,0.0,0.0,0.0,0.0,0.0,0.0,0.0,0.0,0.0,0.0,0.0,0.0,0.0,0.0,0.0,0.0,0.0,0.0,0.0,-2.0364,-2.1818,-2.1929,-2.1874,-2.172,-2.1197,-2.065,-2.0251,-2.0111,-1.9,0.0,0.0,0.0,0.0,0.0,0.0,0.0,0.0,0.0,0.0,0.0,0.0,0.0,0.0,0.0,0.0,0.0,0.0,0.0,0.0,0.0,0.0,0.0,0.0,0.0,0.0,0.0,0.0,0.0,0.0,0.0,0.0,0.0,0.0,0.0,0.0,0.0,0.0,0.0,0.0,0.0,0.0,0.0,0.0,0.0,0.0,0.0,0.0,0.0,0.0,0.0,0.0,0.0,0.0,0.0,0.0,0.0,0.0,0.0,0.0,0.0,0.0,0.0,0.0,0.0,0.0,0.0,0.0,0.0,0.0,0.0,0.0,0.0,0.0,0.0,0.0,0.0,0.0,0.0,0.0,0.0,0.0,0.0,0.0,0.0,0.0,0.0,0.0,0.0,0.0,0.0,0.0,0.0,0.0,0.0,0.0,0.0,0.0,0.0,0.0,0.0,0.0,-2.0307,-2.1563,0.0,-2.2518,-2.224,-2.2055,-2.1992,-2.1584,-2.0563,0.0,0.0,0.0,0.0,0.0,0.0,0.0,0.0,0.0,0.0,0.0,0.0,0.0,0.0,0.0,0.0,0.0,0.0,0.0,0.0,0.0,0.0,0.0,0.0,0.0,0.0,0.0,0.0,0.0,0.0,0.0,0.0,0.0,0.0,0.0,0.0,0.0,0.0,0.0,0.0,0.0,0.0,0.0,0.0,0.0,0.0,0.0,0.0,0.0,0.0,0.0,0.0,0.0,0.0,0.0,0.0,0.0,0.0,0.0,0.0,0.0,0.0,0.0,0.0,0.0,0.0,0.0,0.0,0.0,0.0,0.0,0.0,0.0,0.0,0.0,0.0,0.0,0.0,0.0,0.0,0.0,0.0,0.0,0.0,0.0,0.0,0.0,0.0,0.0,0.0,0.0,0.0,0.0,0.0,0.0,0.0,0.0,0.0,0.0,0.0,0.0,0.0,-1.9558,-2.0878,-2.2063,0.0,-2.3091,-2.2911,-2.273,-2.2491,-2.187,-2.0794,0.0,0.0,0.0,0.0,0.0,0.0,0.0,0.0,0.0,0.0,0.0,0.0,0.0,0.0,0.0,0.0,0.0,0.0,0.0,0.0,0.0,0.0,0.0,0.0,0.0,0.0,0.0,0.0,0.0,0.0,0.0,0.0,0.0,0.0,0.0,0.0,0.0,0.0,0.0,0.0,0.0,0.0,0.0,0.0,0.0,0.0,0.0,0.0,0.0,0.0,0.0,0.0,0.0,0.0,0.0,0.0,0.0,0.0,0.0,0.0,0.0,0.0,0.0,0.0,0.0,0.0,0.0,0.0,0.0,0.0,0.0,0.0,0.0,0.0,0.0,0.0,0.0,0.0,0.0,0.0,0.0,0.0,0.0,0.0,0.0,0.0,0.0,0.0,0.0,0.0,0.0,0.0,0.0,0.0,0.0,0.0,0.0,0.0,0.0,0.0,0.0,0.0,-1.9798,-2.2246,-2.3766,-2.3128,-2.364,-2.3753,-2.3128,-2.1631,-2.0731,0.0,0.0,0.0,0.0,0.0,0.0,0.0,0.0,0.0,0.0,0.0,0.0,0.0,0.0,0.0,0.0,0.0,0.0,0.0,0.0,0.0,0.0,0.0,0.0,0.0,0.0,0.0,0.0,0.0,0.0,0.0,0.0,0.0,0.0,0.0,0.0,0.0,0.0,0.0,0.0,0.0,0.0,0.0,0.0,0.0,0.0,0.0,0.0,0.0,0.0,0.0,0.0,0.0,0.0,0.0,0.0,0.0,0.0,0.0,0.0,0.0,0.0,0.0,0.0,0.0,0.0,0.0,0.0,0.0,0.0,0.0,0.0,0.0,0.0,0.0,0.0,0.0,0.0,0.0,0.0,0.0,0.0,0.0,0.0,0.0,0.0,0.0,0.0,0.0,0.0,0.0,0.0,0.0,0.0,0.0,0.0,0.0,0.0,0.0,0.0,0.0,0.0,0.0,-1.9798,-2.1895,-2.3326,-2.309,-2.3288,-2.3314,-2.309,-2.2334,-2.1317,-2.0125,0.0,0.0,0.0,0.0,0.0,0.0,0.0,0.0,0.0,0.0,0.0,0.0,0.0,0.0,0.0,0.0,0.0,0.0,0.0,0.0,0.0,0.0,0.0,0.0,0.0,0.0,0.0,0.0,0.0,0.0,0.0,0.0,0.0,0.0,0.0,0.0,0.0,0.0,0.0,0.0,0.0,0.0,0.0,0.0,0.0,0.0,0.0,0.0,0.0,0.0,0.0,0.0,0.0,0.0,0.0,0.0,0.0,0.0,0.0,0.0,0.0,0.0,0.0,0.0,0.0,0.0,0.0,0.0,0.0,0.0,0.0,0.0,0.0,0.0,0.0,0.0,0.0,0.0,0.0,0.0,0.0,0.0,0.0,0.0,0.0,0.0,0.0,0.0,0.0,0.0,0.0,0.0,0.0,0.0,0.0,0.0,0.0,0.0,0.0,0.0,0.0,0.0,-1.9798,-2.1757,-2.3078,-2.3078,-2.3078,-2.3078,-2.3078,-2.2636,-2.1694,-2.0238,0.0,0.0,0.0,0.0,0.0,0.0,0.0,0.0,0.0,0.0,0.0,0.0,0.0,0.0,0.0,0.0,0.0,0.0,0.0,0.0,0.0,0.0,0.0,0.0,0.0,0.0,0.0,0.0,0.0,0.0,0.0,0.0,0.0,0.0,0.0,0.0,0.0,0.0,0.0,0.0,0.0,0.0,0.0,0.0,0.0,0.0,0.0,0.0,0.0,0.0,0.0,0.0,0.0,0.0,0.0,0.0,0.0,0.0,0.0,0.0,0.0,0.0,0.0,0.0,0.0,0.0,0.0,0.0,0.0,0.0,0.0,0.0,0.0,0.0,0.0,0.0,0.0,0.0,0.0,0.0,0.0,0.0,0.0,0.0,0.0,0.0,0.0,0.0,0.0,0.0,0.0,0.0,0.0,0.0,0.0,0.0,0.0,0.0,0.0,0.0,0.0,0.0,-1.9874,-2.1782,-2.3078,-2.3078,-2.3078,-2.3078,-2.3078,-2.2636,-2.1845,-2.0794,0.0,0.0,0.0,0.0,0.0,0.0,0.0,0.0,0.0,0.0,0.0,0.0,0.0,0.0,0.0,0.0,0.0,0.0,0.0,0.0,0.0,0.0,0.0,0.0,0.0,0.0,0.0,0.0,0.0,0.0,0.0,0.0,0.0,0.0,0.0,0.0,0.0,0.0,0.0,0.0,0.0,0.0,0.0,0.0,0.0,0.0,0.0,0.0,0.0,0.0,0.0,0.0,0.0,0.0,0.0,0.0,0.0,0.0,0.0,0.0,-1.8573,0.0,0.0,0.0,0.0,0.0,0.0,0.0,0.0,0.0,0.0,0.0,0.0,0.0,0.0,0.0,0.0,0.0,0.0,0.0,0.0,0.0,0.0,0.0,0.0,0.0,0.0,0.0,0.0,0.0,0.0,0.0,0.0,0.0,0.0,0.0,0.0,0.0,0.0,0.0,0.0,0.0,-2.0426,-2.2033,-2.3078,-2.3078,-2.3078,-2.3078,-2.3078,-2.2636,-2.1845,-2.0794,-1.9635,0.0,0.0,0.0,0.0,0.0,0.0,0.0,0.0,0.0,0.0,0.0,0.0,0.0,0.0,0.0,0.0,0.0,0.0,0.0,0.0,0.0,0.0,0.0,0.0,0.0,0.0,0.0,0.0,0.0,0.0,0.0,0.0,0.0,0.0,0.0,0.0,0.0,0.0,0.0,0.0,0.0,0.0,0.0,0.0,0.0,0.0,0.0,0.0,0.0,0.0,0.0,0.0,0.0,0.0,0.0,0.0,0.0,0.0,0.0,0.0,-1.9951,0.0,0.0,0.0,0.0,0.0,0.0,0.0,0.0,0.0,0.0,0.0,0.0,0.0,0.0,0.0,0.0,0.0,0.0,0.0,0.0,0.0,0.0,0.0,0.0,0.0,0.0,0.0,0.0,0.0,0.0,0.0,0.0,0.0,0.0,0.0,0.0,0.0,0.0,0.0,0.0,-2.0643,-2.2108,-2.3078,-2.3078,-2.3078,-2.3078,-2.3078,-2.2874,-2.2234,-2.1129,-2.0275,0.0,0.0,0.0,0.0,0.0,0.0,0.0,0.0,0.0,0.0,0.0,0.0,0.0,0.0,0.0,0.0,0.0,0.0,0.0,0.0,0.0,0.0,0.0,0.0,0.0,0.0,0.0,0.0,0.0,0.0,0.0,0.0,0.0,0.0,0.0,0.0,0.0,0.0,0.0,0.0,0.0,0.0,0.0,0.0,0.0,0.0,0.0,0.0,0.0,0.0,0.0,0.0,0.0,-2.1235,-2.1724,-2.1917,-2.2369,-2.295,-2.3462,-2.243,-2.2408,-2.3062,0.0,0.0,0.0,0.0,0.0,0.0,0.0,0.0,0.0,0.0,0.0,0.0,0.0,0.0,0.0,0.0,0.0,0.0,0.0,0.0,0.0,0.0,0.0,0.0,0.0,-2.3175,-2.3213,0.0,0.0,0.0,0.0,0.0,0.0,0.0,0.0,0.0,0.0,0.0,0.0,-2.0769,-2.2083,-2.3025,-2.3065,-2.3078,-2.3078,-2.3078,-2.3078,-2.2661,-2.1556,-2.102,-2.0227,0.0,0.0,0.0,0.0,0.0,0.0,0.0,0.0,0.0,0.0,0.0,0.0,0.0,0.0,0.0,0.0,0.0,0.0,0.0,0.0,0.0,0.0,0.0,0.0,0.0,0.0,0.0,0.0,0.0,0.0,0.0,0.0,-1.5469,-1.5896,0.0,0.0,0.0,0.0,0.0,0.0,0.0,0.0,0.0,0.0,0.0,0.0,0.0,-1.8035,-1.964,-2.0312,-2.1666,-2.3659,-2.4212,-2.4948,-2.5784,-2.5286,-2.544,-2.602,-2.5303,0.0,-2.3125,-2.3729,0.0,0.0,0.0,0.0,0.0,0.0,0.0,0.0,0.0,0.0,0.0,0.0,0.0,0.0,0.0,0.0,0.0,0.0,0.0,0.0,0.0,0.0,-2.2965,-2.2965,-2.3138,-2.315,0.0,-2.2322,-2.1681,-2.0652,-2.0504,0.0,0.0,0.0,0.0,0.0,0.0,0.0,-2.1242,-2.1995,-2.2598,-2.3027,-2.3078,-2.3078,-2.3078,-2.3078,-2.2661,-2.1556,-2.102,-2.0462,-1.9895,-1.9245,0.0,0.0,0.0,0.0,0.0,0.0,0.0,0.0,0.0,0.0,0.0,0.0,0.0,0.0,0.0,0.0,0.0,0.0,0.0,0.0,0.0,0.0,0.0,0.0,0.0,0.0,0.0,0.0,0.0,-1.5944,-1.6544,-1.6288,-1.6567,-1.6342,0.0,0.0,0.0,0.0,0.0,0.0,0.0,0.0,0.0,-1.9353,-1.964,-2.0485,-2.2138,-2.3116,-2.3976,-2.4718,-2.546,-2.6094,-2.6521,-2.6201,-2.6214,-2.6508,-2.6189,-2.5737,-2.5224,-2.5266,-2.5092,-2.4819,0.0,0.0,0.0,0.0,0.0,-2.6054,-2.7086,-2.7284,0.0,0.0,0.0,0.0,0.0,0.0,0.0,0.0,0.0,0.0,0.0,0.0,0.0,-2.4872,-2.4766,-2.4606,-2.4309,-2.3717,-2.2937,0.0,-2.1594,-2.1242,-2.0137,0.0,0.0,0.0,0.0,-2.0464,-2.0966,-2.1782,-2.2397,-2.2648,-2.289,-2.3078,-2.3078,-2.3543,-2.3276,-2.2073,-2.2193,-2.1934,-2.1003,-2.0392,-2.0125,0.0,0.0,0.0,0.0,0.0,0.0,0.0,0.0,0.0,0.0,0.0,0.0,0.0,0.0,0.0,0.0,0.0,0.0,0.0,0.0,0.0,0.0,0.0,0.0,0.0,0.0,0.0,0.0,-1.7549,-1.791,-1.7221,-1.8038,-1.8094,0.0,0.0,0.0,0.0,0.0,0.0,-1.868,-1.9843,-2.0924,-2.1743,-2.2239,-2.3169,-2.4425,-2.546,-2.584,-2.5575,-2.6375,-2.6603,-2.6533,-2.6533,-2.6533,-2.6533,-2.6533,-2.6863,-2.7421,-2.6832,-2.6758,-2.7018,-2.7252,-2.7068,-2.6842,-2.8315,-2.8532,-2.8233,-2.9235,-2.9579,-2.9301,-2.7565,0.0,-2.6104,-2.394,0.0,0.0,0.0,0.0,-2.4858,-2.5507,-2.5841,-2.6018,-2.6018,-2.5882,-2.5655,-2.5242,-2.476,-2.3987,0.0,-2.2523,-2.2221,-2.1255,0.0,0.0,0.0,0.0,-2.0819,-2.1054,-2.1681,-2.2209,-2.2498,-2.2887,-2.3078,-2.3078,-2.3826,-2.3734,-2.2495,-2.3173,-2.3086,-2.2002,-2.1741,-2.1633,-2.1633,0.0,0.0,0.0,0.0,0.0,0.0,0.0,0.0,0.0,0.0,0.0,0.0,0.0,0.0,0.0,0.0,0.0,0.0,0.0,0.0,0.0,0.0,0.0,0.0,0.0,0.0,0.0,0.0,0.0,-1.9709,-2.1365,0.0,0.0,0.0,0.0,-2.0152,-2.0955,-2.1608,-2.1924,-2.2936,-2.37,-2.413,-2.4711,-2.552,-2.6443,-2.6542,-2.6772,-2.716,-2.7243,-2.6967,-2.6533,-2.6533,-2.6533,-2.6533,-2.6533,-2.7391,-2.8843,-2.8188,-2.8036,-2.8409,-2.9174,-2.9406,-2.9445,-2.9505,-2.9505,-2.949,-2.9564,-2.9579,-2.9654,-3.0093,-2.9436,-2.8196,-2.6826,-2.5928,0.0,0.0,-2.5424,-2.5522,-2.6269,-2.592,-2.5439,-2.5439,-2.5411,-2.5425,-2.5397,-2.5328,-2.4865,0.0,-2.3027,-2.2852,-2.2334,0.0,-2.2046,-2.1493,-2.0991,-2.1041,-2.2096,-2.182,-2.1933,-2.2975,-2.3053,-2.3078,-2.3078,-2.3826,-2.3734,-2.2495,-2.3173,-2.3286,-2.2661,-2.3241,-2.3544,-2.3544,-2.3016,0.0,0.0,0.0,0.0,0.0,0.0,0.0,0.0,0.0,0.0,0.0,0.0,0.0,0.0,0.0,0.0,0.0,0.0,0.0,0.0,0.0,0.0,0.0,0.0,0.0,0.0,0.0,0.0,-2.0725,-2.2388,0.0,-2.1667,-2.2367,-2.2704,-2.2268,-2.343,-2.4006,-2.357,-2.4542,-2.5417,-2.6347,-2.6569,-2.7126,-2.8075,-2.8075,-2.7953,-2.7808,-2.7457,-2.7369,-2.7507,-2.7155,-2.6979,-2.6979,-2.6979,-2.7756,-2.8989,-2.8768,-2.9359,-3.045,-3.0708,-3.0567,-3.0223,-3.0672,-3.0552,-3.0238,-3.0687,-3.0836,-3.0731,-3.0118,-2.931,-2.842,-2.7498,-2.7077,-2.6834,-2.6885,-2.6843,-2.6864,-2.7137,-2.7019,-2.6811,-2.6811,-2.6443,-2.6122,-2.6122,-2.5728,-2.5231,-2.4667,-2.4221,-2.3864,-2.3752,-2.3199,-2.2698,-2.2247,-2.1941,-2.1732,-2.1782,-2.192,-2.2318,-2.3218,-2.3651,-2.4047,-2.4553,-2.4902,-2.4696,-2.3807,-2.4061,-2.3944,-2.3319,-2.3511,-2.3629,-2.3629,-2.3452,-2.3023,0.0,0.0,0.0,0.0,0.0,0.0,0.0,0.0,0.0,0.0,0.0,0.0,0.0,0.0,0.0,0.0,0.0,0.0,0.0,0.0,0.0,0.0,0.0,0.0,0.0,0.0,-2.1998,-2.188,-2.3628,-2.4357,-2.3048,-2.4098,-2.4737,-2.4365,-2.55,-2.5898,-2.5339,-2.632,-2.7223,-2.794,-2.8159,-2.8577,-2.9214,-2.9214,-2.8938,-2.8386,-2.8009,-2.7833,-2.7821,-2.7645,-2.7356,-2.7017,-2.7205,-2.7952,-2.9002,-2.9002,-3.0011,-3.1482,-3.1482,-3.1255,-3.0911,-3.136,-3.124,-3.0911,-3.1375,-3.1482,-3.1287,-3.0253,-2.946,-2.8801,-2.8128,-2.7754,-2.7625,-2.7625,-2.7625,-2.7625,-2.7625,-2.7625,-2.7625,-2.7625,-2.7255,-2.6878,-2.6878,-2.6496,-2.6162,-2.6162,-2.5342,-2.4716,-2.4791,-2.4286,-2.3728,-2.3223,-2.3109,-2.2894,-2.2514,-2.2799,-2.3306,-2.3995,-2.4426,-2.4851,-2.5342,-2.5459,-2.5293,-2.4876,-2.4705,-2.4373,-2.3969,-2.3939,-2.3939,-2.3939,-2.3939,-2.3744,-2.3325,0.0,0.0,0.0,0.0,0.0,0.0,0.0,0.0,0.0,0.0,0.0,0.0,0.0,0.0,0.0,0.0,0.0,0.0,0.0,0.0,0.0,0.0,0.0,-2.063,-2.2091,-2.312,-2.3175,-2.5139,-2.6058,-2.4953,-2.5847,-2.6533,-2.6533,-2.6954,-2.7268,-2.7306,-2.8323,-2.8925,-2.895,-2.9503,-2.9792,-2.9792,-2.9792,-2.9515,-2.895,-2.8938,-2.8373,-2.7356,-2.7871,-2.7507,-2.6584,-2.7055,-2.7952,-2.9002,-2.9002,-3.0011,-3.1482,-3.1482,-3.1482,-3.1482,-3.1482,-3.1467,-3.1437,-3.1422,-3.1422,-3.1302,-3.0672,-3.0043,-2.943,-2.8771,-2.8098,-2.7625,-2.7625,-2.7625,-2.7625,-2.7625,-2.7625,-2.7625,-2.7625,-2.7625,-2.7625,-2.7625,-2.7625,-2.7625,-2.7625,-2.6428,-2.5453,-2.5453,-2.5453,-2.5175,-2.4452,-2.4435,0.0,-2.4328,-2.4422,-2.4775,-2.5329,-2.5398,-2.5453,-2.5453,-2.5526,-2.5517,-2.5488,-2.4941,-2.4582,-2.4582,-2.4582,-2.4597,-2.4612,-2.4612,-2.4612,-2.4582,0.0,0.0,0.0,0.0,0.0,0.0,0.0,0.0,0.0,0.0,0.0,0.0,0.0,0.0,0.0,0.0,0.0,0.0,0.0,0.0,0.0,-2.0047,-2.1083,-2.1259,-2.235,-2.343,-2.4246,-2.5259,-2.5875,-2.6034,-2.6321,-2.6533,-2.6533,-2.6672,-2.703,-2.7833,-2.816,-2.8712,-2.9528,-2.9704,-2.9792,-2.9792,-2.9792,-2.9716,-2.9553,-2.9126,-2.8775,-2.8461,-2.8222,-2.772,-2.7067,-2.7218,-2.7952,-2.9002,-2.9002,-3.0011,-3.1482,-3.1482,-3.1482,-3.1482,-3.1482,-3.121,-3.0717,-3.0268,-3.0118,-3.0013,-2.934,-2.9011,-2.8742,-2.8053,-2.7775,-2.7625,-2.7625,-2.7625,-2.7625,-2.7625,-2.7625,-2.7625,-2.7625,-2.7625,-2.7625,-2.7625,-2.7625,-2.7625,-2.7625,-2.7291,-2.7019,-2.7019,-2.6108,-2.5508,-2.5837,-2.5465,0.0,-2.5092,-2.5135,-2.5204,-2.5384,-2.5892,-2.6176,-2.6176,-2.628,-2.6071,-2.5597,-2.4938,-2.4582,-2.4582,-2.4582,-2.4852,-2.533,-2.5345,-2.5106,0.0,0.0,0.0,0.0,0.0,0.0,0.0,0.0,0.0,0.0,0.0,0.0,0.0,0.0,0.0,0.0,0.0,0.0,0.0,0.0,0.0,0.0,-2.0943,-2.1934,-2.2152,-2.2942,-2.384,-2.4678,-2.5043,-2.5519,-2.6093,-2.6101,-2.6201,-2.6508,-2.6747,-2.718,-2.8059,-2.8323,-2.8863,-2.9767,-2.9792,-2.9792,-2.9792,-2.9553,-2.9428,-2.9428,-2.885,-2.8461,-2.8235,-2.8147,-2.767,0.0,-2.7564,-2.8251,-2.9002,-2.938,-3.0329,0.0,0.0,0.0,0.0,0.0,-3.0687,-3.0058,-2.9699,-2.9579,-2.9475,-2.8816,-2.8607,-2.8472,-2.7784,-2.7625,-2.7625,-2.7625,-2.7625,-2.7625,-2.7625,-2.7625,-2.7625,-2.7625,-2.7625,-2.7625,-2.7625,-2.7625,-2.7625,-2.7625,0.0,0.0,-2.7625,-2.6916,-2.6375,-2.6496,-2.639,-2.6215,0.0,-2.6108,-2.6322,-2.6322,-2.6707,-2.693,-2.693,-2.6763,0.0,0.0,0.0,-2.5046,-2.5046,-2.5046,0.0,0.0,0.0,0.0,0.0,0.0,0.0,0.0,-2.6677,-2.7245,0.0,0.0,0.0,0.0,0.0,0.0,0.0,0.0,0.0,0.0,0.0,0.0,0.0,0.0,0.0,0.0,-2.1669,-2.2552,-2.304,-2.3568,-2.407,-2.4621,-2.4735,-2.4988,-2.5523,-2.5649,-2.59,-2.6496,-2.6917,-2.7457,-2.8072,0.0,0.0,0.0,0.0,-2.9767,-2.9691,-2.9189,-2.89,-2.8825,-2.8335,-2.7821,-2.7306,-2.7795,-2.7444,-2.6559,-2.7721,-2.8572,-2.9066,-2.9827,-3.0703,-3.1467,-3.1392,-3.1362,-3.133,-3.0567,-2.9939,0.0,0.0,0.0,0.0,-2.8667,-2.8487,-2.8368,-2.7754,-2.7625,-2.7625,-2.7625,-2.7625,-2.7625,-2.7625,-2.7625,-2.7625,-2.7625,-2.7625,-2.7625,-2.7625,-2.7625,-2.7625,-2.7625,-2.7565,-2.7505,-2.7505,-2.7565,-2.7357,-2.6721,-2.7203,0.0,-2.6721,-2.7203,-2.7575,-2.7458,0.0,0.0,-2.7458,-2.6986,-2.6916,-2.7475,-2.6363,-2.5719,-2.5719,-2.5794,-2.6108,-2.6692,-2.6692,-2.6991,-2.7625,-2.8188,-2.8562,-2.8682,-2.756,-2.7993,0.0,0.0,0.0,0.0,0.0,0.0,0.0,0.0,0.0,0.0,0.0,0.0,0.0,0.0,0.0,-2.1246,-2.2249,-2.2967,-2.3065,-2.3175,-2.3513,-2.4067,-2.4531,-2.4983,-2.5536,-2.6013,-2.6339,-2.6521,-2.6634,-2.7055,-2.8059,-2.821,0.0,-2.9767,-2.9792,-2.9566,-2.9101,-2.8988,-2.8699,-2.826,0.0,0.0,-2.7281,-2.7394,-2.708,-2.6533,-2.6759,-2.7709,-2.9002,-2.9192,-3.0133,-3.1422,-3.0911,-3.0702,-3.0567,-2.94,-2.8891,-2.8712,-2.8158,-2.8015,-2.7985,-2.7814,-2.7769,-2.779,-2.767,-2.7625,0.0,-2.7625,-2.7625,-2.7625,-2.7625,-2.7625,-2.7625,-2.7625,-2.7625,-2.7625,-2.7625,-2.7625,-2.7625,-2.7625,-2.7141,-2.6782,-2.6782,-2.7215,-2.756,-2.7408,-2.7524,-2.7575,-2.7408,-2.7524,-2.7357,-2.6774,-2.7255,-2.7357,-2.6774,-2.7136,-2.72,-2.6811,-2.6542,-2.6408,-2.6408,-2.6916,-2.7245,-2.743,-2.738,-2.744,-2.7625,-2.7709,-2.8338,-2.94,-2.9639,-2.9953,0.0,0.0,0.0,0.0,0.0,0.0,0.0,0.0,0.0,0.0,0.0,-1.9489,-1.9747,0.0,-2.0974,-2.1776,-2.2565,-2.3078,-2.3078,-2.3078,-2.3203,-2.3541,-2.3779,-2.4305,-2.5134,-2.5473,-2.5862,-2.6483,-2.6533,-2.6816,-2.7657,-2.7959,-2.8486,-2.934,-2.9365,-2.9214,-2.8925,-2.8386,-2.7959,-2.7695,-2.7419,-2.713,-2.6866,-2.6866,-2.6716,-2.6521,-2.6905,-2.7604,-2.8427,-2.9317,-3.0187,-3.0956,-3.0298,-3.0043,-2.9924,-2.8966,-2.8382,-2.8038,-2.7745,-2.7625,-2.7625,-2.7625,-2.7625,-2.7625,-2.7625,-2.7625,-2.7625,-2.7625,-2.7625,-2.7625,-2.7625,-2.7625,-2.7625,-2.7625,-2.7625,-2.7535,-2.7156,-2.7081,-2.6976,-2.6647,-2.6318,-2.6093,-2.6093,-2.6378,-2.6587,-2.6587,-2.6587,-2.6587,-2.6587,-2.6587,-2.656,-2.6571,-2.6867,-2.7101,-2.7056,-2.7408,-2.749,-2.7096,-2.7081,-2.7081,-2.7081,-2.7395,-2.7625,-2.7625,-2.7625,-2.7625,-2.7625,-2.7919,-2.8427,-2.9116,-3.0058,-3.0687,0.0,0.0,0.0,0.0,0.0,0.0,0.0,-2.0207,-2.0521,-1.9864,-1.989,-2.0205,-2.0661,-2.0803,-2.1188,-2.2261,-2.2845,-2.3078,-2.3078,-2.2977,-2.2952,-2.3065,-2.3226,-2.3703,-2.472,-2.4908,-2.5385,-2.6445,-2.6533,-2.6703,-2.7256,-2.7708,-2.8197,-2.875,-2.8775,-2.8712,-2.8612,-2.772,-2.7231,-2.7118,-2.6747,-2.6533,-2.6533,-2.6533,-2.6533,-2.6521,-2.7351,-2.7604,-2.7696,-2.9397,-3.0119,-3.0071,-2.957,-2.9385,-2.931,-2.8652,-2.8053,-2.7625,-2.7625,-2.7625,-2.7625,-2.7625,-2.7625,-2.7625,-2.7625,-2.7625,-2.7625,-2.7625,-2.7625,-2.7625,-2.7625,-2.7625,-2.7625,-2.7625,-2.7625,-2.7445,-2.6737,-2.6587,-2.6393,-2.5734,-2.551,-2.542,-2.542,-2.5315,-2.53,-2.557,-2.5615,-2.5615,-2.5615,-2.5615,-2.5809,-2.6348,-2.6512,-2.6856,-2.7565,-2.7625,-2.7625,-2.7625,-2.7625,-2.7625,-2.7625,-2.7625,-2.7625,-2.7625,-2.7625,-2.7625,-2.7625,-2.8128,-2.8472,-2.8622,-2.9789,-3.0687,-2.1408,-2.0958,-2.0288,-2.0222,-1.9948,-1.969,0.0,-2.0207,-2.0527,-1.9893,-2.0267,-2.0856,-2.1323,-2.1404,-2.1753,-2.2845,-2.3053,-2.3078,-2.3078,-2.2711,-2.2585,-2.3015,-2.359,-2.4142,-2.4757,-2.5234,-2.5774,-2.6483,-2.6533,-2.6703,-2.7256,-2.7344,-2.7632,-2.8185,-2.8197,-2.7959,-2.7469,-2.7344,-2.703,-2.6622,-2.6559,-2.6533,-2.6533,-2.6533,-2.6533,-2.6521,-2.7351,-2.7446,-2.7099,-2.875,-2.9103,-2.8623,-2.8708,-2.8712,-2.8622,-2.7934,-2.7634,-2.7625,-2.7625,-2.7625,-2.7625,-2.7625,-2.7625,-2.7625,-2.7625,-2.7625,-2.7625,-2.7625,-2.7625,-2.7625,-2.7625,-2.7625,-2.7625,-2.7625,-2.7625,-2.7445,-2.6737,-2.6587,-2.6393,-2.5734,-2.5136,-2.4686,-2.4686,-2.4238,-2.4223,-2.5435,-2.5615,-2.5615,-2.5615,-2.5615,-2.563,-2.5704,-2.6243,-2.6856,-2.7565,-2.7625,-2.7625,-2.7625,-2.7625,-2.7625,-2.7625,-2.7625,-2.7625,-2.7625,-2.7625,-2.7625,-2.7625,-2.77,-2.8008,-2.8622,-2.934,-3.0028,-2.105,-2.0681,-2.0034,-1.996,-1.9822,-1.969,-1.969,-2.0207,-2.052,-1.9866,-2.0292,-2.0822,-2.0949,-2.126,-2.1743,0.0,-2.2887,-2.2965,-2.2698,-2.246,-2.2284,-2.2184,-2.2673,-2.3364,-2.4255,-2.4544,-2.5021,-2.5887,-2.5963,-2.6201,-2.6766,-2.7105,-2.7394,-2.762,-2.762,-2.7519,-2.7281,-2.6967,-2.6691,-2.6533,-2.6533,-2.6533,-2.6533,-2.6533,-2.6276,-2.6017,-2.6327,-2.6699,-2.7155,-2.7819,-2.8283,-2.8493,-2.8591,-2.8353,-2.7964,-2.773,-2.7625,-2.7625,-2.7625,-2.7625,-2.7625,-2.7625,-2.7625,-2.7625,-2.7625,-2.7625,-2.7625,-2.7625,-2.7625,-2.7625,-2.7625,-2.7625,-2.7625,-2.7625,-2.7275,-2.6811,-2.6153,-2.5719,-2.5255,-2.4567,-2.4223,-2.4029,-2.4029,-2.3789,-2.3789,-2.4358,-2.4448,-2.4448,-2.4448,-2.4448,-2.4597,-2.5001,-2.563,-2.6288,-2.6946,-2.7006,-2.7156,-2.7595,-2.7625,-2.7625,-2.7625,-2.7625,-2.7625,-2.7625,-2.7625,-2.7625,-2.7625,-2.7625,-2.7724,-2.8008,-2.8697,-2.9146,-2.0713,-2.0409,-1.9893,-1.9854,-1.9771,-1.969,-1.969,-2.0207,-2.0475,-1.9656,-2.0038,-2.0518,-2.0425,-2.0715,-2.1313,-2.2153,-2.2598,-2.2824,-2.2573,-2.2284,-2.2046,-2.1958,-2.202,-2.2523,-2.3653,-2.3904,-2.4381,-2.531,-2.5385,-2.5624,-2.6189,-2.6603,-2.6892,-2.7055,-2.7055,-2.7055,-2.7055,-2.6653,-2.6533,-2.6533,-2.6533,-2.6533,-2.6533,-2.6533,-2.6138,-2.5598,-2.5598,-2.6012,-2.6663,-2.6827,-2.7343,-2.8047,-2.8256,-2.8008,-2.7625,-2.7625,-2.7625,-2.7625,-2.7625,-2.7625,-2.7625,-2.7625,-2.7625,-2.7625,-2.7625,-2.7625,-2.7625,-2.7625,-2.7625,-2.7625,-2.7625,-2.7625,-2.7625,-2.7625,-2.7066,-2.6408,-2.5749,-2.5091,-2.4373,-2.3729,-2.3595,-2.3595,-2.3595,-2.3595,-2.3595,-2.3595,-2.3595,-2.3595,-2.3595,-2.3595,-2.3864,-2.4507,-2.5,-2.5674,-2.6512,-2.6422,-2.6677,-2.7565,-2.7445,-2.738,-2.761,-2.7625,-2.7625,-2.7625,-2.7625,-2.7625,-2.7625,-2.7625,-2.7625,-2.764,-2.8278,-2.8607,-2.0418,-2.0208,-1.9974,-2.0243,-1.9999,-1.969,-1.969,-2.0207,-2.0378,-1.9169,-1.9446,-1.9894,-1.985,-1.9836,-2.0401,-2.2033,-2.2322,-2.2523,-2.2977,-2.2184,-2.1907,-2.2902,-2.2159,-2.1945,-2.299,-2.3665,-2.4243,-2.4808,-2.4845,-2.5071,-2.5598,-2.5636,-2.59,-2.6533,-2.6546,-2.6546,-2.6546,-2.6533,-2.6533,-2.6533,-2.6533,-2.6533,-2.6533,-2.6533,-2.6138,-2.5598,-2.5598,-2.5422,-2.5236,-2.5932,-2.6372,-2.6645,-2.7335,-2.764,-2.7625,-2.7625,-2.7625,-2.7625,-2.7625,-2.7625,-2.7625,-2.7625,-2.7625,-2.7625,-2.7625,-2.7625,-2.7625,-2.7625,-2.7625,-2.7625,-2.7625,-2.7625,-2.7625,-2.7625,-2.7066,-2.6408,-2.5749,-2.5091,-2.4373,-2.3729,-2.3595,-2.3595,-2.3595,-2.3595,-2.3595,-2.3595,-2.3595,-2.3595,-2.3595,-2.3595,-2.3864,-2.4507,-2.4597,-2.5181,-2.6482,-2.6004,-2.6198,-2.7535,-2.6976,-2.6901,-2.7595,-2.7625,-2.7625,-2.7625,-2.7625,-2.7625,-2.7625,-2.7625,-2.7625,-2.764,-2.8278,-2.8607,-1.9952,-2.002,-1.9918,-1.9918,-1.9822,-1.969,-1.969,-1.9852,-1.9812,-1.9063,-1.9086,-1.9128,-1.8819,-1.9321,-2.0112,-2.1066,-2.1832,-2.2372,-2.256,-2.2272,-2.2033,-2.2046,-2.2359,-2.2585,-2.2585,-2.3088,0.0,-2.4757,-2.482,-2.5046,-2.5573,-2.5598,-2.5523,-2.5372,-2.5372,-2.5372,-2.5372,-2.5724,-2.5887,-2.5887,-2.5887,-2.5887,-2.5875,-2.5523,-2.5071,-2.4531,-2.4531,-2.4528,-2.4582,-2.486,-2.5591,-2.651,-2.6774,-2.7152,-2.7625,-2.7625,-2.7625,-2.7625,-2.7625,-2.7625,-2.7625,-2.7625,-2.7625,-2.7625,-2.7625,-2.7625,-2.7625,-2.7625,-2.7625,-2.7625,-2.7625,-2.7625,-2.7625,-2.7625,-2.6737,-2.5869,-2.5659,-2.4732,-2.3879,-2.364,-2.3595,-2.3595,-2.3595,-2.3595,-2.3595,-2.3595,-2.3595,-2.3595,-2.3595,-2.3595,-2.3684,-2.3924,-2.3939,-2.4313,-2.5211,-2.5091,-2.533,-2.6213,-2.6467,-2.6692,-2.6916,-2.7335,-2.7625,-2.7625,-2.7625,-2.7625,-2.7625,-2.7625,-2.7625,-2.7625,-2.7814,-2.7919,-1.9181,-1.9335,-1.9289,-1.9186,-1.9165,-1.9186,-1.9304,-1.934,-1.9263,-1.8955,-1.8754,-1.8511,-1.8247,-1.8605,-1.9246,-2.02,-2.0896,-2.1502,-2.2189,-2.1758,-2.1461,-2.1608,-2.2038,-2.2346,-2.2455,-2.2857,0.0,-2.4456,-2.4707,-2.4971,-2.531,-2.5322,-2.5172,-2.4833,-2.482,-2.4908,-2.5096,-2.5247,-2.5322,-2.5322,-2.5322,-2.5322,-2.531,-2.4971,-2.4519,-2.4004,-2.4004,-2.408,-2.435,-2.4567,-2.5398,-2.651,-2.6774,-2.7203,-2.7625,-2.7625,-2.7625,-2.7625,-2.7625,-2.7625,-2.7625,-2.7625,-2.7625,-2.7625,-2.7625,-2.7625,-2.7625,-2.7625,-2.7625,-2.7515,-2.7275,-2.7215,-2.7215,-2.7215,-2.6213,-2.533,-2.5555,-2.4552,-2.3595,-2.3595,-2.3595,-2.3595,-2.3595,-2.3595,-2.3595,-2.3595,-2.3595,-2.3595,-2.3595,-2.3595,-2.3595,-2.3595,-2.3595,-2.3879,-2.4522,-2.4403,-2.4642,-2.5555,-2.5779,-2.5989,-2.6228,-2.6871,-2.7215,-2.7215,-2.7505,-2.7625,-2.7625,-2.7625,-2.7625,-2.7625,-2.7625,-2.7625,-1.8205,-1.8329,-1.8322,-1.8249,-1.8187,-1.8281,-1.8604,-1.8703,-1.8723,-1.8864,-1.8475,-1.8125,-1.815,-1.7766,-1.7953,-1.9484,-1.957,-2.0085,-2.1952,-2.0815,-2.0313,0.0,-2.1376,-2.141,-2.2519,-2.2849,0.0,-2.3891,0.0,-2.4782,-2.4782,-2.4782,-2.4757,-2.4732,-2.4732,-2.4971,-2.5473,-2.5008,-2.4795,-2.482,-2.4795,-2.4782,-2.4782,-2.4745,-2.4456,-2.3954,-2.3954,-2.4055,-2.4292,-2.5007,-2.5728,-2.651,-2.7188,-2.7509,-2.7625,-2.7625,-2.7625,-2.7625,-2.7625,-2.7625,-2.7625,-2.7625,-2.7625,-2.7625,-2.7625,-2.7625,-2.7625,-2.7625,-2.7595,-2.743,-2.6752,-2.6557,-2.6542,-2.6542,-2.5555,-2.4746,-2.542,-2.4522,-2.3595,-2.3595,-2.3595,-2.3595,-2.3595,-2.3595,-2.3595,-2.3595,-2.3595,-2.3595,-2.3595,-2.3595,-2.3595,-2.3595,-2.3595,-2.3864,-2.4477,-2.3984,-2.4148,-2.542,-2.4956,-2.4911,-2.554,-2.6183,-2.6557,-2.6587,-2.72,-2.7595,-2.7625,-2.7625,-2.7625,-2.7625,-2.7625,-2.7625,-1.8377,-1.871,-1.8976,-1.8358,-1.8203,-1.828,-1.8631,-1.8706,-1.8748,-1.8867,-1.8472,-1.7988,-1.7593,-1.7804,-1.82,-1.8811,-1.9543,0.0,-2.0954,-2.0653,0.0,-2.0899,-2.1126,-2.1293,-2.1179,-2.1924,0.0,0.0,-2.379,-2.4205,-2.4205,-2.4205,-2.4017,-2.3516,-2.3503,-2.3627,-2.3766,-2.4054,-2.4418,-2.482,-2.4406,-2.4205,-2.4192,-2.3766,-2.3489,-2.3351,-2.3351,-2.3384,-2.3424,-2.359,-2.4496,-2.5673,-2.5892,-2.664,-2.7625,-2.7625,-2.7625,-2.7625,-2.7625,-2.7625,-2.7625,-2.7625,-2.7625,-2.7625,-2.7625,-2.7625,-2.7625,-2.7625,-2.7215,-2.6797,-2.6632,-2.6228,-2.5854,-2.5854,-2.5226,-2.4627,-2.4837,-2.4208,-2.3595,-2.3595,-2.3595,-2.3595,-2.3595,-2.3595,-2.3595,-2.3595,-2.3595,-2.3595,-2.3595,-2.3595,-2.3595,-2.3595,-2.3595,-2.367,-2.3849,-2.3699,-2.3744,-2.4088,-2.4433,-2.4657,-2.4821,-2.551,-2.6093,-2.6572,-2.6752,-2.7081,-2.7625,-2.7625,-2.7625,-2.7625,-2.7625,-2.7625,-1.8133,-1.8278,-1.8335,-1.7732,-1.7478,-1.7466,-1.7755,-1.8062,-1.8312,-1.8419,-1.8261,-1.7947,-1.7394,-1.7612,-1.7867,-1.7918,-1.8713,-1.9399,-1.989,-1.9684,-1.9628,-2.0009,-2.0314,-2.0445,-2.0391,-2.1085,-2.1652,0.0,-2.3135,-2.385,-2.4004,-2.4004,-2.3728,-2.309,-2.3078,-2.3078,-2.3078,-2.3703,-2.4029,-2.4079,-2.3766,-2.3615,-2.3602,-2.3215,-2.3078,-2.3078,0.0,-2.3078,-2.3138,-2.3484,-2.4337,-2.5453,-2.5728,-2.6602,-2.7625,-2.7625,-2.7625,-2.7625,-2.7625,-2.7625,-2.7625,-2.7625,-2.7625,-2.7625,-2.7625,-2.7625,-2.7565,-2.7215,-2.6871,-2.6452,-2.5884,-2.545,-2.5181,-2.5181,-2.4672,-2.4253,-2.4522,-2.4088,-2.3595,-2.3595,-2.3595,-2.3595,-2.3595,-2.3595,-2.3595,-2.3595,-2.3595,-2.3595,-2.3595,-2.3595,-2.3595,-2.3595,-2.3595,-2.3595,-2.3595,-2.3595,-2.3595,-2.3595,-2.3969,-2.4178,-2.4178,-2.4822,-2.536,-2.5719,-2.6019,-2.6482,-2.7141,-2.7455,-2.7689,-2.7993,-2.8271,-2.84,-1.7523,-1.7318,-1.7071,-1.6749,-1.6483,-1.6378,-1.6637,-1.7156,-1.7663,-1.7863,-1.7946,-1.7827,-1.7258,-1.7211,-1.7183,-1.6973,-1.7486,-1.8214,-1.8775,-1.8376,-1.8269,-1.9044,-1.911,-1.9302,-1.9703,-2.003,-2.0388,-2.0939,-2.2159,-2.3159,-2.3704,-2.3816,-2.3653,-2.309,-2.3078,-2.3078,-2.3078,-2.364,-2.364,-2.3078,-2.3078,-2.3078,-2.3078,-2.3078,-2.3078,-2.3078,0.0,0.0,-2.3125,-2.3826,-2.4624,-2.5453,-2.6122,-2.682,-2.7505,-2.7595,-2.7505,-2.732,-2.746,-2.738,-2.7335,-2.7565,-2.7565,-2.749,-2.749,-2.743,-2.7186,-2.6617,-2.6393,-2.6063,-2.4881,-2.4507,-2.4448,-2.4448,-2.4029,-2.3759,-2.4313,-2.4029,-2.3595,-2.3595,-2.3595,-2.3595,-2.3595,-2.3595,-2.3595,-2.3595,-2.3595,-2.3595,-2.3595,-2.3595,-2.3595,-2.3595,-2.3595,-2.3595,-2.3595,-2.3595,-2.3595,-2.3595,-2.3595,-2.3638,-2.3724,-2.4251,-2.4656,-2.4791,-2.5395,-2.6029,-2.6678,-2.7196,-2.7766,-2.8342,-2.8865,-2.9134,-1.5984,-1.6187,-1.6303,-1.5964,-1.6108,-1.6351,-1.6653,-1.6869,-1.7193,-1.7777,-1.7639,-1.7258,-1.6646,-1.6544,-1.6443,-1.6008,-1.6751,-1.7426,-1.7654,-1.7886,-1.8076,-1.8202,-1.8202,-1.816,-1.7883,-1.7915,0.0,0.0,0.0,-2.0569,-2.2171,-2.2898,-2.3238,-2.3078,-2.3078,-2.3078,-2.3078,-2.3178,-2.3178,-2.3078,-2.3078,-2.3078,-2.3078,-2.3078,-2.3078,-2.3078,0.0,0.0,-2.3138,-2.3245,-2.4163,-2.5398,-2.5563,-2.606,-2.6826,-2.743,-2.6886,-2.6033,-2.6572,-2.6408,-2.6123,-2.7215,-2.72,-2.6752,-2.6752,-2.6378,-2.5929,-2.5809,-2.539,-2.4911,-2.4642,-2.4208,-2.3774,-2.3774,-2.3684,-2.3625,-2.3744,-2.3684,-2.3595,-2.3595,-2.3595,-2.3595,-2.3595,-2.3595,-2.3595,-2.3595,-2.3595,-2.3595,-2.3595,-2.3595,-2.3595,-2.3595,-2.3595,-2.3595,-2.3595,-2.3595,-2.3595,-2.3595,-2.3595,-2.3794,-2.4225,-2.439,-2.488,-2.5888,-2.603,-2.6425,-2.7119,-2.7205,-2.7311,-2.7438,-2.7508,-2.7593,-1.5392,-1.5288,-1.5248,-1.5433,-1.5505,-1.5579,-1.5816,-1.6181,-1.6522,-1.665,-1.6765,-1.6699,-1.6083,-1.623,-1.6101,-1.5141,-1.5844,-1.6554,-1.6697,-1.707,-1.7432,-1.7656,-1.7686,-1.7519,-1.709,-1.7051,-1.7145,-1.7294,0.0,-1.9787,-2.1425,-2.2541,-2.3078,-2.3078,-2.2862,-2.2711,-2.2711,-2.2422,-2.2284,-2.2284,-2.2573,-2.256,-2.2284,-2.2573,-2.2548,-2.2297,-2.2585,0.0,-2.2297,-2.2968,-2.3689,-2.4512,-2.4815,-2.5416,-2.6123,-2.6437,-2.6153,-2.5659,-2.5974,-2.5869,-2.5719,-2.6348,-2.6333,-2.6078,-2.6078,-2.5854,-2.554,-2.5196,-2.4821,-2.4507,-2.4178,-2.3849,-2.3595,-2.3595,-2.3595,-2.3595,-2.3595,-2.3595,-2.3595,-2.3595,-2.3595,-2.3595,-2.3595,-2.3595,-2.3595,-2.3595,-2.3595,-2.3595,-2.3595,-2.3595,-2.3595,-2.3595,-2.3595,-2.3595,-2.3595,-2.3595,-2.3724,-2.3991,-2.3752,-2.3964,-2.4776,-2.4552,-2.4789,-2.5655,-2.5671,-2.6023,-2.6684,-2.6969,-2.7324,-2.7697,-2.7977,-2.8151,-1.4659,-1.4368,-1.4225,-1.4916,-1.4927,-1.4837,-1.505,-1.5516,-1.58,-1.5401,-1.5763,-1.5957,-1.5348,-1.5556,-1.547,-1.439,-1.5028,-1.5782,-1.6058,-1.6533,-1.7031,-1.7471,-1.7441,-1.7217,-1.6777,-1.6641,0.0,-1.6455,0.0,0.0,-2.1198,-2.2228,-2.2786,-2.2786,-2.2359,-2.2133,-2.2133,-2.1707,-2.1493,-2.1493,-2.1933,-2.1907,-2.1506,-2.1945,-2.1895,-2.1506,-2.1945,0.0,0.0,-2.2695,-2.3366,-2.3844,-2.4333,-2.4849,-2.542,-2.5555,-2.5435,-2.5196,-2.5345,-2.53,-2.5181,-2.5181,-2.527,-2.5405,-2.5405,-2.53,-2.5076,-2.4507,-2.4418,-2.4283,-2.3744,-2.3595,-2.3595,-2.3595,-2.3595,-2.3595,-2.3595,-2.3595,-2.3595,-2.3595,-2.3595,-2.3595,-2.3595,-2.3595,-2.3595,-2.3595,-2.3595,-2.3595,-2.3595,-2.3595,-2.3595,-2.3595,-2.3724,-2.3752,-2.3752,-2.3879,-2.4116,-2.4536,-2.4199,-2.4389,-2.5335,-2.4989,-2.4973,-2.5524,-2.5524,-2.5762,-2.6306,-2.678,-2.728,-2.7789,-2.8286,-2.8501,-1.2918,-1.3063,-1.3474,-1.413,-1.4552,-1.4837,-1.505,-1.523,-1.5242,-1.4803,-1.4841,-1.4736,-1.4103,-1.3988,-1.393,-1.363,-1.4326,-1.5192,-1.6007,-1.6787,-1.748,-1.79,-1.7617,-1.7217,-1.6777,-1.6367,-1.5957,-1.5566,0.0,0.0,-2.135,-2.155,-2.1644,-2.1644,-2.1594,-2.1556,-2.1556,-2.1506,-2.1493,-2.1493,-2.1543,-2.1543,-2.1493,-2.1543,-2.1543,-2.1493,0.0,0.0,0.0,-2.2428,-2.3239,-2.4433,-2.4482,-2.4586,-2.4792,-2.539,-2.4837,-2.3864,-2.4492,-2.4298,-2.3789,-2.3789,-2.4208,-2.4672,-2.4672,-2.4283,-2.3774,-2.3714,-2.3684,-2.3684,-2.361,-2.3595,-2.3595,-2.3595,-2.3595,-2.3595,-2.3595,-2.3595,-2.3595,-2.3595,-2.3595,-2.3595,-2.3595,-2.3595,-2.3595,-2.3595,-2.3595,-2.3595,-2.3595,-2.3595,-2.3595,-2.3595,-2.4032,-2.4307,-2.4307,-2.4776,-2.5051,-2.5144,-2.5089,-2.5335,-2.5888,-2.5888,-2.6068,-2.6539,-2.6573,-2.6572,-2.664,-2.6725,-2.6759,-2.6826,-2.6911,-2.6911,-1.2392,-1.237,-1.2629,-1.3697,-1.3897,-1.408,-1.4991,-1.5052,-1.4905,-1.4771,-1.4767,-1.4618,-1.3918,-1.3815,-1.3652,-1.3195,-1.3418,-1.4023,-1.5137,-1.5596,-1.6172,-1.7129,-1.6855,-1.6523,0.0,0.0,-1.5772,0.0,0.0,0.0,-1.9728,-2.0884,-2.1493,-2.1493,-2.1167,-2.0991,-2.0991,-2.0652,-2.0476,-2.0476,-2.0828,-2.0815,-2.0489,-2.0828,-2.0803,-2.0489,0.0,0.0,0.0,-2.2058,-2.2638,-2.2879,-2.3661,-2.3985,-2.4044,-2.4298,-2.4059,-2.364,-2.3909,-2.3819,-2.3595,-2.3595,-2.3789,-2.4014,-2.4014,-2.3819,-2.3595,-2.3595,-2.3595,-2.3595,-2.3595,-2.3595,-2.3595,-2.3595,-2.3595,-2.3595,-2.3595,-2.3595,-2.3595,-2.3595,-2.3595,-2.3595,-2.3595,-2.3595,-2.3724,-2.4032,-2.4074,-2.4199,-2.4511,-2.4552,-2.4552,-2.4552,-2.4471,-2.4389,-2.4389,-2.4894,-2.5335,-2.5652,-2.5373,-2.5561,-2.6401,-2.6156,-2.6227,-2.6691,-2.6691,-2.6691,-2.6691,-2.6691,-2.6691,-2.6691,-2.6691,-2.6691,-1.2249,-1.2008,-1.2103,-1.3532,-1.348,-1.3384,-1.458,-1.451,-1.4212,-1.4278,-1.4284,-1.4127,-1.3601,-1.3341,-1.3054,-1.2647,-1.2506,-1.2987,-1.4332,-1.4468,-1.5043,-1.6724,-1.6369,-1.6067,-1.6269,-1.5742,-1.5642,0.0,0.0,0.0,0.0,-1.9825,-2.0759,-2.0991,-2.0614,-2.0401,-2.0401,-2.0012,-1.9798,-1.9811,-2.0213,-2.02,-1.9811,-2.0225,-2.0188,-1.9823,0.0,0.0,0.0,-2.1704,-2.2207,-2.2086,-2.3172,-2.3595,-2.3595,-2.3595,-2.3595,-2.3595,-2.3595,-2.3595,-2.3595,-2.3595,-2.3595,-2.3595,-2.3595,-2.3595,-2.3595,-2.3595,-2.3595,-2.3595,-2.3595,-2.3595,-2.3595,-2.3595,-2.3595,-2.3595,-2.3595,-2.3595,-2.3595,-2.3595,-2.3595,-2.3535,-2.3355,-2.3438,-2.3633,-2.4055,-2.4215,-2.4516,-2.5112,-2.5221,-2.5221,-2.5221,-2.5012,-2.4855,-2.4855,-2.5357,-2.5783,-2.6191,-2.5872,-2.5964,-2.6657,-2.6367,-2.6367,-2.6691,-2.6691,-2.6691,-2.6691,-2.6691,-2.6691,-2.6691,-2.6691,-2.6691,-1.2376,-1.2021,-1.2097,-1.3713,-1.3462,-1.2968,-1.3638,-1.3385,-1.3018,-1.3008,-1.2996,-1.3016,-1.2938,-1.2295,-1.1814,-1.1814,-1.1636,-1.2047,-1.3566,-1.3692,-1.4571,-1.7069,-1.6523,-1.6083,-1.6631,-1.5928,-1.541,0.0,0.0,0.0,0.0,-1.8352,-1.9056,-1.9772,-1.9811,-1.9811,-1.9811,-1.9798,-1.9798,-1.9798,-1.9811,-1.9811,-1.9798,-1.9811,-1.9811,0.0,0.0,0.0,0.0,-2.1438,-2.21,-2.274,-2.3377,-2.3595,-2.3595,-2.3595,-2.3595,-2.3595,-2.3595,-2.3595,-2.3595,-2.3595,-2.3595,-2.3595,-2.3595,-2.3595,-2.3595,-2.3595,-2.3595,-2.3595,-2.3595,-2.3595,-2.3595,-2.3595,-2.3595,-2.3595,-2.3595,-2.3595,-2.3595,-2.3595,-2.3595,-2.34,-2.2787,-2.3046,-2.3335,-2.3382,-2.3822,-2.4377,-2.5102,-2.5221,-2.5221,-2.5221,-2.5689,-2.5961,-2.5961,-2.6401,-2.6691,-2.6691,-2.6691,-2.6691,-2.6691,-2.6691,-2.6691,-2.6691,-2.6691,-2.6691,-2.6691,-2.6691,-2.6691,-2.6691,-2.6691,-2.6691,-1.1505,-1.1388,-1.1509,-1.2442,-1.2472,-1.2554,-1.361,-1.3749,-1.3613,-1.356,-1.3558,-1.3273,-1.2325,-1.1981,-1.1704,-1.1515,-1.1389,-1.1731,-1.2719,-1.2937,-1.3822,-1.5882,-1.6317,-1.6043,0.0,0.0,0.0,0.0,0.0,0.0,0.0,-1.7064,-1.8137,-1.9734,-1.9798,-1.9623,-1.9284,-1.9623,-1.9623,-1.9271,-1.9271,-1.9459,-1.9798,-1.9434,0.0,0.0,0.0,0.0,0.0,-2.1015,-2.1735,-2.2711,-2.2918,-2.3236,-2.355,-2.3131,-2.3236,-2.3535,-2.3116,-2.3236,-2.3595,-2.3595,-2.3595,-2.352,-2.3101,-2.3266,-2.3595,-2.3595,-2.3595,-2.3595,-2.3595,-2.3595,-2.3595,-2.3595,-2.3595,-2.3595,-2.3595,-2.3595,-2.3595,-2.3595,-2.3474,-2.3341,-2.3142,-2.3103,-2.3222,-2.3568,-2.3742,-2.4243,-2.5344,-2.5478,-2.5661,-2.6179,-2.6367,-2.6367,-2.6049,-2.5949,-2.6167,-2.6657,-2.6234,-2.6167,-2.6674,-2.6691,-2.6691,-2.6691,-2.6691,-2.6691,-2.6691,-2.6691,-2.6691,-2.6691,-2.6691,-2.6691,-1.1081,-1.099,-1.0946,-1.1913,-1.1883,-1.1899,-1.3036,-1.3291,-1.3223,-1.3087,-1.3044,-1.2696,-1.1633,-1.1225,-1.0989,-1.0761,-1.0593,-1.0817,-1.1725,-1.2026,-1.2845,-1.4858,-1.5615,0.0,0.0,0.0,0.0,0.0,0.0,0.0,0.0,-1.6249,-1.7289,-1.8807,-1.9083,-1.9045,-1.8719,-1.9045,-1.9032,-1.8719,-1.8719,-1.8995,-1.9497,-1.9171,0.0,0.0,0.0,0.0,0.0,-2.0557,-2.1207,-2.1975,-2.2236,-2.2697,-2.3176,-2.2532,-2.2862,-2.3505,-2.2892,-2.3086,-2.3565,-2.3325,-2.3086,-2.2802,-2.2428,-2.2577,-2.2936,-2.3176,-2.3071,-2.2936,-2.3191,-2.3251,-2.331,-2.355,-2.3595,-2.3595,-2.3595,-2.3752,-2.3803,-2.3561,-2.3533,-2.342,-2.2905,-2.2814,-2.2943,-2.3276,-2.3487,-2.3978,-2.5053,-2.5439,-2.5676,-2.5845,-2.6116,-2.6067,-2.5497,-2.553,-2.5676,-2.5845,-2.5439,-2.5389,-2.5845,-2.5862,-2.5862,-2.5862,-2.5862,-2.5862,-2.5862,-2.5862,-2.5862,-2.5862,-2.5862,-2.5862,0.0,-1.0747,-1.0339,-1.1786,-1.1478,-1.1028,-1.1928,-1.2128,0.0,-1.1791,-1.1715,-1.1525,-1.0897,-1.0257,-0.9814,-0.9806,-0.9493,-0.9617,-1.0701,-1.1009,-1.1909,0.0,-1.4663,0.0,-1.5834,0.0,0.0,0.0,0.0,0.0,0.0,-1.5756,-1.6459,-1.7171,-1.777,-1.8103,-1.8141,-1.8191,-1.8191,-1.8141,-1.8141,-1.843,-1.892,-1.8883,0.0,0.0,0.0,0.0,0.0,-2.0175,-2.0638,-2.0821,-2.1406,-2.2024,-2.2532,-2.1874,-2.2413,-2.337,-2.2757,-2.2951,-2.337,-2.2802,-2.2158,-2.1635,-2.168,-2.1695,-2.1814,-2.2428,-2.2158,-2.1829,-2.2484,-2.2679,-2.29,-2.3428,-2.3636,-2.3709,-2.3709,-2.407,-2.4182,-2.3482,-2.3705,-2.3583,-2.2271,-2.2329,-2.2585,-2.2663,-2.3036,-2.3579,-2.4337,-2.5017,-2.5203,-2.4574,-2.5101,-2.522,-2.4458,-2.505,-2.5169,-2.4557,-2.4455,-2.4455,-2.4506,-2.4506,-2.4506,-2.4506,-2.4506,-2.4506,-2.4506,-2.4506,-2.4506,-2.4506,-2.4506,-2.4506,-0.9523,0.0,-0.916,-0.9735,-0.9789,-0.9839,0.0,-1.0742,-1.0867,-1.0989,-1.1065,-1.0904,-1.0515,-1.0295,-1.0141,-1.0068,-0.9978,-1.0067,-1.0609,-1.1475,-1.2014,-1.1829,-1.3636,-1.4559,-1.377,0.0,0.0,0.0,0.0,0.0,0.0,-1.5203,-1.5654,-1.5968,-1.6576,-1.7124,-1.7564,-1.799,-1.799,-1.7576,-1.7576,-1.7865,-1.838,-1.7953,0.0,0.0,0.0,0.0,-1.9656,-1.9404,-2.0184,-2.1421,-2.1048,-2.135,-2.1844,-2.1186,-2.1455,-2.2054,-2.1395,-2.1605,-2.2113,-2.1979,-2.1485,-2.1036,-2.1545,-2.1695,-2.1724,-2.1874,-2.1814,-2.1739,-2.1889,-2.2571,-2.3271,-2.3425,-2.4162,-2.4816,-2.4816,-2.4499,-2.4125,-2.3967,-2.3369,-2.2834,-2.2524,-2.2394,-2.2375,-2.2387,-2.249,-2.2835,-2.3562,-2.3799,-2.4069,-2.4472,-2.4675,-2.4458,-2.3714,-2.3816,-2.4069,-2.4489,-2.3951,-2.39,-2.4489,-2.4506,-2.4506,-2.4506,-2.4506,-2.4506,-2.4506,-2.4506,-2.4506,-2.4506,-2.4506,-2.4506,-0.731,-0.7909,-0.8632,-0.9149,-0.9313,-0.9484,-1.0059,-1.0409,-1.0532,-1.0375,-1.0364,-1.0169,-0.9688,-0.9731,-0.9778,-0.9717,-0.994,-1.0267,-1.0701,-1.1219,-1.1539,-1.1544,-1.2696,-1.3523,0.0,0.0,0.0,0.0,0.0,0.0,0.0,-1.4568,-1.506,-1.5197,-1.6051,-1.6672,-1.6986,-1.7275,-1.7275,-1.6986,-1.6986,-1.7275,-1.7815,-1.7513,0.0,0.0,0.0,0.0,-1.9086,-1.9211,-1.9861,-2.0737,-2.0378,-2.0647,-2.1156,-2.0498,-2.0857,-2.1605,-2.0946,-2.0946,-2.1246,-2.1246,-2.0797,-2.0303,-2.0662,-2.0767,-2.0842,-2.1156,-2.1144,-2.1135,-2.1455,-2.2152,-2.2828,-2.3158,-2.3707,-2.4201,-2.4201,-2.4044,-2.3816,-2.3492,-2.3178,-2.2881,-2.2518,-2.2375,-2.231,-2.231,-2.231,-2.2446,-2.2852,-2.319,-2.341,-2.3477,-2.3782,-2.3697,-2.297,-2.2902,-2.3071,-2.346,-2.3122,-2.3071,-2.346,-2.3477,-2.3477,-2.3477,-2.3477,-2.3477,-2.3477,-2.3477,-2.3477,-2.3477,-2.3477,-2.3477,-0.5389,-0.6659,-0.8125,-0.8783,-0.8934,-0.9023,-0.9653,-1.0053,-1.014,-0.9755,-0.9666,-0.948,-0.8964,-0.9112,-0.9263,-0.9309,-0.9826,0.0,-1.0862,-1.0715,-1.096,-1.1832,-1.1899,0.0,0.0,0.0,0.0,0.0,0.0,0.0,0.0,-1.4014,-1.4652,-1.4835,-1.5832,-1.6423,-1.6522,-1.6522,-1.6522,-1.6522,-1.6522,-1.6773,-1.725,-1.725,-1.7295,0.0,0.0,0.0,-1.8302,-1.9207,-1.9639,-1.969,-1.969,-2.0049,-2.0483,-1.9899,-2.0408,-2.1306,-2.0752,-2.0557,-2.0557,-2.0557,-2.0168,-1.969,-1.969,-1.969,-1.9809,-2.0393,-2.0421,-2.0438,-2.0992,-2.1629,-2.2258,-2.2815,-2.3074,-2.324,-2.324,-2.3454,-2.3489,-2.2846,-2.2989,-2.3038,-2.2412,-2.231,-2.231,-2.231,-2.231,-2.231,-2.231,-2.2852,-2.2987,-2.2378,-2.2868,-2.2987,-2.2361,-2.231,-2.231,-2.231,-2.231,-2.231,-2.231,-2.231,-2.231,-2.231,-2.231,-2.231,-2.231,-2.231,-2.231,-2.231,-2.2349,-2.2349,-0.5768,-0.6139,-0.6363,-0.6492,-0.6428,-0.6657,-0.7814,-0.7984,-0.8069,-0.8797,-0.8956,-0.8984,-0.9125,-0.9412,-0.9699,-0.994,0.0,-1.0584,0.0,0.0,-1.0638,-1.0805,0.0,0.0,0.0,0.0,0.0,0.0,0.0,0.0,0.0,-1.3826,-1.4411,-1.541,-1.5632,-1.5996,-1.6522,-1.6522,-1.6522,-1.6522,-1.6522,-1.6559,-1.6647,-1.6647,-1.6893,0.0,0.0,-1.8029,-1.8779,-1.8968,-1.9281,-1.969,-1.969,-1.975,-1.9824,-1.972,-1.9809,-1.9974,-1.9884,-1.9839,-1.9839,-1.9839,-1.9765,-1.969,-1.969,-1.969,-1.9705,-1.9809,-2.0091,-2.033,-2.0438,-2.1518,-2.2604,-2.2719,-2.3534,-2.4271,-2.4271,-2.3832,-2.3422,-2.3304,-2.2827,-2.2446,-2.2327,-2.231,-2.231,-2.231,-2.231,-2.231,-2.231,-2.2412,-2.2446,-2.2327,-2.2412,-2.2429,-2.2327,-2.231,-2.231,-2.231,-2.231,-2.231,-2.231,-2.231,-2.231,-2.231,-2.231,-2.231,-2.231,-2.231,-2.231,-2.231,-2.2537,-2.2527,-0.3855,-0.424,-0.4774,-0.4477,-0.5343,-0.6385,-0.6972,-0.7312,-0.753,-0.7587,-0.8262,-0.8738,-0.8431,-0.9091,-0.9833,-1.0287,0.0,-1.0624,-1.0624,-1.0421,-1.0321,0.0,0.0,0.0,0.0,0.0,0.0,0.0,0.0,0.0,0.0,0.0,-1.419,-1.5107,-1.541,-1.5908,-1.6466,-1.6522,-1.6522,-1.6522,-1.6522,-1.6522,-1.6522,-1.6795,-1.7076,-1.7353,0.0,-1.8458,-1.893,-1.9207,-1.9479,-1.969,-1.969,-1.969,-1.969,-1.969,-1.969,-1.969,-1.969,-1.969,-1.969,-1.969,-1.9839,-2.0019,-2.0019,-2.0208,-2.0413,-2.0413,-2.0532,-2.0682,-2.0682,-2.1581,-2.2488,-2.2488,-2.2921,-2.3308,-2.3308,-2.3038,-2.2818,-2.2818,-2.2547,-2.231,-2.231,-2.231,-2.231,-2.231,-2.231,-2.231,-2.231,-2.231,-2.231,-2.231,-2.231,-2.231,-2.231,-2.2409,-2.2436,-2.231,-2.231,-2.231,-2.231,-2.2453,-2.2527,-2.2527,-2.2695,-2.2773,-2.2773,-2.2773,-2.2773,-2.2798,-2.2915,-2.2915,-0.2072,-0.2592,-0.3301,-0.2988,-0.4433,-0.6033,-0.6288,-0.6758,-0.7057,-0.6902,-0.7777,-0.8374,-0.783,-0.8658,-0.961,-1.0118,-1.0392,-1.0454,-1.0454,-1.02,0.0,0.0,0.0,0.0,0.0,0.0,0.0,0.0,0.0,0.0,0.0,0.0,-1.4097,-1.4698,-1.5276,-1.5908,-1.6466,-1.6522,-1.6522,-1.6522,-1.6522,-1.6522,-1.6522,-1.7076,-1.7394,-1.7544,-1.8496,-1.8968,-1.9132,-1.953,-1.969,-1.969,-1.969,-1.969,-1.969,-1.969,-1.969,-1.969,-1.969,-1.969,-1.969,-1.969,-1.9965,-2.0314,-2.0314,-2.0616,-2.0991,-2.0991,-2.1055,-2.115,-2.115,-2.1721,-2.231,-2.231,-2.231,-2.231,-2.231,-2.231,-2.231,-2.231,-2.231,-2.231,-2.231,-2.231,-2.231,-2.231,-2.231,-2.231,-2.231,-2.231,-2.231,-2.231,-2.231,-2.231,-2.231,-2.2537,-2.2625,-2.2415,-2.2453,-2.2508,-2.2508,-2.2704,-2.2822,-2.2822,-2.3069,-2.3189,-2.3189,-2.3189,-2.3189,-2.3189,-2.3277,-2.3277,-0.1992,-0.2036,-0.2158,-0.2242,-0.3229,-0.4423,-0.5358,-0.5522,-0.5868,-0.7351,-0.7723,-0.7777,-0.7723,-0.8259,-0.8759,-0.904,-0.9707,-1.0147,-1.0147,0.0,0.0,0.0,0.0,0.0,0.0,0.0,0.0,0.0,0.0,0.0,0.0,0.0,0.0,-1.4698,-1.5276,-1.5908,-1.6466,-1.6522,-1.6522,-1.6522,-1.6522,-1.6522,-1.6522,-1.7076,-1.7585,-1.8066,-1.865,-1.9169,-1.9639,-1.969,-1.969,-1.969,-1.969,-1.969,-1.969,-1.969,-1.969,-1.969,-1.969,-1.969,-1.969,-1.969,-1.9965,-2.0314,-2.0314,-2.0616,-2.0991,-2.0991,-2.1275,-2.1552,-2.1552,-2.1928,-2.231,-2.231,-2.231,-2.231,-2.231,-2.231,-2.231,-2.231,-2.231,-2.231,-2.231,-2.231,-2.231,-2.231,-2.231,-2.231,-2.231,-2.231,-2.231,-2.231,-2.231,-2.231,-2.231,-2.2537,-2.2695,-2.2669,-2.2947,-2.3135,-2.3135,-2.3141,-2.3165,-2.3165,-2.3189,-2.3189,-2.3189,-2.3189,-2.3189,-2.3212,-2.3522,-2.35,-0.0961,-0.1326,-0.1821,-0.1597,-0.2062,-0.29,-0.389,-0.4816,-0.5462,-0.5647,-0.6421,-0.7063,-0.7268,-0.7897,-0.8455,-0.8711,-0.8997,-0.9301,0.0,0.0,0.0,0.0,0.0,0.0,0.0,0.0,0.0,0.0,0.0,0.0,0.0,0.0,0.0,-1.4652,-1.4926,-1.5511,-1.6479,-1.6522,-1.6522,-1.6522,-1.6522,-1.6522,-1.6522,-1.7394,-1.7907,-1.8145,-1.9006,-1.953,-1.969,-1.969,-1.969,-1.969,-1.969,-1.969,-1.969,-1.969,-1.969,-1.969,-1.969,-1.969,-1.9747,-2.0,-2.0348,-2.0781,-2.1023,-2.1446,-2.1811,-2.1811,-2.1915,-2.1974,-2.1688,-2.1957,-2.231,-2.231,-2.231,-2.231,-2.231,-2.231,-2.231,-2.231,-2.231,-2.231,-2.231,-2.231,-2.231,-2.231,-2.231,-2.236,-2.2527,-2.2537,-2.2643,-2.2849,-2.2857,-2.2933,-2.317,-2.3253,-2.3414,-2.361,-2.3369,-2.3189,-2.3189,-2.3392,-2.3522,-2.3522,-2.3714,-2.3816,-2.3816,-2.3816,-2.3816,-2.3816,-2.3937,-2.3937,-0.0556,-0.0948,-0.1535,-0.1447,-0.1711,-0.2183,-0.3096,-0.4034,-0.4768,-0.4827,-0.5605,-0.6301,-0.6556,-0.7089,0.0,0.0,-0.819,-0.8664,0.0,0.0,0.0,0.0,0.0,0.0,0.0,0.0,0.0,0.0,0.0,0.0,0.0,0.0,0.0,0.0,-1.488,-1.5466,-1.6479,-1.6522,-1.6522,-1.6522,-1.6522,-1.6522,-1.6552,-1.7626,-1.8106,-1.8185,-1.9244,-1.969,-1.969,-1.969,-1.969,-1.969,-1.969,-1.969,-1.9726,-1.9839,-1.9874,-1.9909,-2.005,-2.012,-2.0139,-2.0416,-2.0813,-2.1244,-2.1538,-2.1928,-2.231,-2.231,-2.231,-2.2225,-2.1899,-2.2061,-2.231,-2.231,-2.231,-2.231,-2.231,-2.231,-2.231,-2.231,-2.236,-2.2426,-2.2426,-2.2517,-2.2571,-2.2571,-2.2571,-2.266,-2.2822,-2.2873,-2.2947,-2.3165,-2.3189,-2.3282,-2.3522,-2.3649,-2.3795,-2.4016,-2.3714,-2.3522,-2.3522,-2.3753,-2.3876,-2.3876,-2.4074,-2.419,-2.419,-2.419,-2.419,-2.419,-2.419,-2.419,-0.1105,-0.1108,-0.1297,-0.1995,-0.2215,-0.2389,-0.3154,-0.3182,-0.3587,-0.5175,-0.5487,-0.5487,-0.5487,-0.5746,0.0,-0.5988,-0.7244,0.0,0.0,0.0,0.0,0.0,0.0,0.0,0.0,0.0,0.0,0.0,0.0,0.0,0.0,0.0,0.0,0.0,-1.5264,-1.5852,-1.6497,-1.6497,-1.6497,-1.6497,-1.6497,-1.6509,-1.6552,-1.7626,-1.8106,-1.8185,-1.9244,-1.969,-1.969,-1.969,-1.969,-1.969,-1.969,-1.969,-1.9747,-2.0158,-2.0314,-2.0382,-2.0829,-2.0991,-2.0991,-2.0991,-2.1275,-2.1582,-2.1628,-2.1928,-2.231,-2.231,-2.231,-2.231,-2.231,-2.231,-2.231,-2.231,-2.231,-2.231,-2.231,-2.231,-2.231,-2.231,-2.2527,-2.2695,-2.2695,-2.2972,-2.3189,-2.3189,-2.3189,-2.3189,-2.3189,-2.3212,-2.3212,-2.3212,-2.3212,-2.3212,-2.3212,-2.3522,-2.3692,-2.3692,-2.4016,-2.419,-2.419,-2.419,-2.419,-2.419,-2.419,-2.419,-2.419,-2.419,-2.419,-2.419,-2.419,-2.419,-0.1629,-0.1657,-0.1787,-0.2007,-0.2142,-0.2389,-0.3123,-0.3733,-0.4242,-0.4721,-0.5164,-0.5378,-0.4893,-0.5262,0.0,-0.5622,0.0,0.0,0.0,0.0,0.0,0.0,0.0,0.0,0.0,0.0,0.0,0.0,0.0,0.0,0.0,0.0,0.0,0.0,-1.4123,-1.4704,-1.5367,-1.5354,-1.5354,-1.5354,-1.5354,-1.5768,-1.6552,-1.7626,-1.8106,-1.8185,-1.9244,-1.969,-1.969,-1.969,-1.969,-1.969,-1.969,-1.969,-1.9711,-1.9839,-2.0054,-2.0314,-2.0449,-2.0715,-2.1055,-2.1337,-2.1491,-2.1658,-2.2003,-2.218,-2.231,-2.231,-2.231,-2.231,-2.231,-2.231,-2.231,-2.231,-2.231,-2.231,-2.231,-2.231,-2.231,-2.231,-2.2527,-2.2695,-2.2695,-2.2972,-2.3189,-2.3189,-2.3189,-2.33,-2.3522,-2.3774,-2.3896,-2.3896,-2.3896,-2.3896,-2.3896,-2.3996,-2.4054,-2.4054,-2.4151,-2.419,-2.419,-2.419,-2.419,-2.419,-2.419,-2.419,-2.419,-2.419,-2.419,-2.419,-2.419,-2.419,-0.235,-0.2427,-0.2575,-0.2925,-0.2837,-0.2841,-0.3498,-0.4088,-0.4519,-0.4519,-0.4842,-0.5003,-0.457,-0.4842,0.0,0.0,0.0,0.0,0.0,0.0,0.0,0.0,0.0,0.0,0.0,0.0,0.0,0.0,0.0,0.0,0.0,0.0,0.0,0.0,-1.3468,-1.4034,-1.4877,-1.4916,-1.4916,-1.4916,-1.5057,-1.5478,-1.6143,-1.7287,-1.8026,-1.8458,-1.9332,-1.969,-1.969,-1.969,-1.969,-1.969,-1.969,-1.969,-1.9747,-2.0085,-2.0364,-2.0616,-2.0975,-2.1275,-2.1554,-2.1794,-2.1899,-2.1928,-2.2209,-2.231,-2.231,-2.231,-2.231,-2.231,-2.231,-2.2388,-2.2463,-2.2463,-2.248,-2.2535,-2.2634,-2.2677,-2.2677,-2.2677,-2.2908,-2.3093,-2.3093,-2.3369,-2.3606,-2.3606,-2.3606,-2.3671,-2.3876,-2.4074,-2.419,-2.419,-2.419,-2.419,-2.419,-2.419,-2.419,-2.419,-2.419,-2.419,-2.419,-2.419,-2.419,-2.419,-2.419,-2.419,-2.419,-2.419,-2.419,-2.419,-2.419,-2.419,-0.3178,-0.3241,-0.3542,-0.4273,-0.3883,-0.353,-0.4066,-0.4328,-0.4477,-0.4477,-0.4477,-0.4477,-0.4477,-0.4477,-0.4634,0.0,0.0,0.0,0.0,0.0,0.0,0.0,0.0,0.0,0.0,0.0,0.0,0.0,0.0,0.0,0.0,0.0,0.0,0.0,-1.3089,-1.3668,-1.4726,-1.4765,-1.4765,0.0,-1.5179,-1.5428,-1.5591,-1.6725,-1.7871,-1.8919,-1.9464,-1.969,-1.969,-1.969,-1.9711,-1.9747,-1.9747,-1.9782,-1.9909,-2.0698,-2.1023,-2.1166,-2.1945,-2.2254,-2.231,-2.231,-2.231,-2.231,-2.231,-2.231,-2.231,-2.2321,-2.2349,-2.2349,-2.2377,-2.2563,-2.2746,-2.2797,-2.2807,-2.29,-2.3111,-2.3165,-2.3189,-2.3189,-2.3459,-2.3692,-2.3692,-2.3976,-2.419,-2.419,-2.419,-2.419,-2.419,-2.419,-2.419,-2.419,-2.419,-2.419,-2.419,-2.419,-2.419,-2.419,-2.419,-2.419,-2.419,-2.419,-2.419,-2.419,-2.419,-2.419,-2.419,-2.419,-2.419,-2.419,-2.419,-2.419,-0.3651,-0.3693,-0.3775,-0.4026,-0.3989,-0.3862,-0.4016,-0.4094,-0.4114,-0.4114,-0.4114,-0.4114,-0.4114,-0.4114,0.0,0.0,0.0,0.0,0.0,0.0,0.0,0.0,0.0,0.0,0.0,0.0,0.0,0.0,0.0,0.0,0.0,0.0,0.0,-1.2072,-1.2407,-1.2892,-1.3549,-1.3549,-1.3747,0.0,-1.4204,-1.4836,-1.599,-1.6681,-1.7638,-1.8787,-1.9415,-1.969,-1.969,-1.969,-1.9874,-2.0193,-2.0193,-2.0398,-2.0731,-2.0926,-2.1213,-2.1491,-2.1705,-2.2003,-2.231,-2.231,-2.231,-2.231,-2.231,-2.231,-2.2349,-2.2563,-2.2625,-2.266,-2.294,-2.3063,-2.3165,-2.3414,-2.33,-2.3063,-2.2848,-2.3021,-2.3189,-2.3189,-2.3459,-2.3692,-2.3692,-2.3976,-2.419,-2.419,-2.419,-2.419,-2.419,-2.419,-2.419,-2.419,-2.419,-2.419,-2.419,-2.419,-2.419,-2.419,-2.419,-2.419,-2.419,-2.419,-2.419,-2.419,-2.419,-2.419,-2.419,-2.419,-2.419,-2.419,-2.419,-2.419,-0.3792,-0.3843,-0.3921,-0.3999,-0.4019,-0.3999,-0.3927,-0.391,-0.389,-0.3822,-0.3921,-0.4019,-0.4019,0.0,0.0,0.0,0.0,0.0,0.0,0.0,0.0,0.0,0.0,0.0,0.0,0.0,0.0,0.0,0.0,0.0,0.0,-1.0744,-1.1215,-1.1796,-1.202,-1.2477,-1.3198,-1.3198,-1.3323,-1.3581,-1.4,-1.4826,-1.5977,-1.6866,-1.763,-1.8253,-1.8597,-1.8747,-1.8777,-1.9091,-1.9474,-1.988,-2.019,-2.0583,-2.1023,-2.1213,-2.143,-2.1628,-2.1869,-2.2106,-2.231,-2.231,-2.231,-2.231,-2.231,-2.231,-2.2349,-2.2608,-2.2695,-2.2772,-2.3117,-2.3323,-2.3437,-2.3477,-2.3437,-2.3455,-2.3414,-2.3566,-2.3671,-2.3671,-2.3816,-2.3937,-2.3937,-2.4094,-2.419,-2.419,-2.419,-2.419,-2.419,-2.419,-2.419,-2.419,-2.419,-2.419,-2.419,-2.419,-2.419,-2.419,-2.419,-2.419,-2.419,-2.419,-2.419,-2.419,-2.419,-2.419,-2.419,-2.419,-2.419,-2.419,-2.419,-2.419,-0.3785,-0.3883,-0.3975,-0.3948,-0.3944,-0.391,-0.3785,-0.3734,-0.3683,-0.3565,-0.3754,-0.3944,-0.3944,0.0,0.0,0.0,0.0,0.0,0.0,0.0,0.0,0.0,0.0,0.0,0.0,0.0,0.0,0.0,0.0,0.0,-1.0283,-1.0215,-1.0613,-1.1603,-1.1561,-1.199,-1.291,-1.301,-1.3094,-1.3183,-1.4127,-1.5013,-1.5844,-1.6892,-1.7413,-1.7533,-1.7637,-1.7697,-1.7727,-1.8313,-1.8857,-1.9358,-1.9855,-2.0352,-2.0888,-2.1368,-2.1536,-2.1611,-2.213,-2.231,-2.231,-2.231,-2.2321,-2.236,-2.2377,-2.2432,-2.2508,-2.2789,-2.2855,-2.2947,-2.33,-2.3566,-2.3714,-2.3437,-2.3588,-2.3855,-2.4074,-2.417,-2.419,-2.419,-2.419,-2.419,-2.419,-2.419,-2.419,-2.419,-2.419,-2.419,-2.419,-2.419,-2.419,-2.419,-2.419,-2.419,-2.419,-2.419,-2.419,-2.419,-2.4228,-2.4266,-2.4266,-2.4284,-2.4303,-2.4303,-2.4247,-2.419,-2.419,-2.4228,-2.4228,-2.419,-2.4266,-2.4284,-0.3758,-0.3805,-0.3792,-0.367,-0.3639,-0.3632,-0.3612,-0.3503,-0.336,0.0,-0.3517,-0.3639,0.0,0.0,0.0,0.0,0.0,0.0,0.0,0.0,0.0,0.0,0.0,0.0,0.0,0.0,0.0,0.0,0.0,0.0,-1.0283,-0.9922,-1.0108,-1.1009,-1.0676,-1.0918,-1.1814,-1.2278,-1.2685,-1.3058,-1.4393,-1.5285,-1.5814,-1.5978,-1.6338,-1.6876,-1.7443,-1.7697,-1.7697,-1.7787,-1.8268,-1.898,-1.9076,-1.9512,-2.0226,-2.0979,-2.1258,-2.136,-2.2062,-2.231,-2.231,-2.231,-2.2463,-2.2678,-2.2712,-2.29,-2.3159,-2.3459,-2.3566,-2.3631,-2.3976,-2.4094,-2.4113,-2.4074,-2.4094,-2.4074,-2.3816,-2.3996,-2.419,-2.419,-2.419,-2.419,-2.419,-2.419,-2.419,-2.419,-2.419,-2.419,-2.419,-2.419,-2.419,-2.419,-2.419,-2.419,-2.419,-2.419,-2.419,-2.419,-2.4357,-2.4461,-2.4461,-2.4623,-2.4716,-2.4716,-2.4375,-2.419,-2.419,-2.4375,-2.4375,-2.4209,-2.4561,-2.4545,-0.3656,-0.3673,-0.3656,-0.3595,-0.3581,-0.3602,-0.3512,-0.3398,-0.3283,-0.3199,-0.3276,0.0,0.0,0.0,0.0,0.0,0.0,0.0,0.0,0.0,0.0,0.0,0.0,0.0,0.0,0.0,0.0,0.0,0.0,-0.957,-0.957,-0.9587,-0.988,-1.0543,-1.0557,-1.0896,-1.1588,-1.1826,-1.2264,-1.2848,-1.3657,-1.444,-1.5244,-1.5244,-1.5575,-1.6219,-1.6503,-1.6637,-1.6683,-1.7258,-1.7831,-1.8391,-1.8961,-1.9524,-2.0035,-2.0416,-2.0805,-2.1254,-2.1566,-2.1955,-2.231,-2.231,-2.2388,-2.25,-2.2695,-2.284,-2.3021,-2.3544,-2.3692,-2.3774,-2.4113,-2.419,-2.419,-2.419,-2.419,-2.417,-2.4016,-2.4094,-2.419,-2.419,-2.419,-2.419,-2.419,-2.419,-2.419,-2.419,-2.419,-2.419,-2.419,-2.419,-2.419,-2.419,-2.419,-2.419,-2.419,-2.419,-2.419,-2.419,-2.4284,-2.4321,-2.4321,-2.4528,-2.4623,-2.4623,-2.4559,-2.4545,-2.4545,-2.4623,-2.4623,-2.4545,-2.4716,-2.47,-0.3564,-0.3595,-0.3581,-0.3581,-0.3581,-0.3595,-0.3478,-0.3347,-0.3219,0.0,-0.3059,0.0,0.0,0.0,0.0,0.0,0.0,0.0,0.0,0.0,0.0,0.0,0.0,0.0,0.0,0.0,0.0,0.0,0.0,-0.8902,-0.9004,-0.9197,-0.9552,-1.0073,-1.0217,-1.0582,-1.1161,-1.1387,-1.1937,-1.2844,-1.3088,-1.3668,-1.4543,-1.4543,-1.4902,-1.5559,-1.5838,-1.5926,-1.6,-1.6815,-1.7393,-1.7801,-1.8565,-1.9109,-1.9461,-1.9647,-2.0094,-2.0679,-2.1156,-2.1649,-2.216,-2.2439,-2.2588,-2.2686,-2.289,-2.3021,-2.3189,-2.3692,-2.3816,-2.3896,-2.4151,-2.419,-2.419,-2.419,-2.419,-2.419,-2.419,-2.419,-2.419,-2.419,-2.419,-2.419,-2.419,-2.419,-2.419,-2.419,-2.419,-2.419,-2.419,-2.419,-2.419,-2.419,-2.419,-2.4228,-2.4266,-2.4266,-2.4266,-2.4266,-2.4303,-2.4339,-2.4339,-2.4526,-2.4651,-2.4697,-2.4842,-2.4888,-2.4804,-2.4828,-2.4828,-2.4804,-2.4902,-2.4888,-0.3406,-0.3512,-0.3581,-0.3581,-0.3581,-0.3578,-0.3568,0.0,-0.3092,-0.3085,-0.29,0.0,0.0,0.0,0.0,0.0,0.0,0.0,0.0,0.0,0.0,0.0,0.0,0.0,0.0,0.0,0.0,0.0,0.0,-0.8583,-0.897,-0.8656,-0.8808,-0.9511,-0.9141,-0.9252,-0.9993,-1.0806,-1.1872,-1.3168,-1.3195,-1.3435,-1.3855,-1.3855,-1.4214,-1.4914,-1.586,-1.6274,-1.6301,-1.6665,-1.7041,-1.7345,-1.7395,-1.7619,-1.8014,-1.8707,-1.8978,-1.9263,-2.0963,-2.1604,-2.1809,-2.2816,-2.3369,-2.3628,-2.3649,-2.3876,-2.4132,-2.417,-2.417,-2.417,-2.4208,-2.419,-2.419,-2.419,-2.419,-2.419,-2.419,-2.419,-2.419,-2.419,-2.419,-2.419,-2.419,-2.419,-2.419,-2.419,-2.419,-2.419,-2.419,-2.419,-2.419,-2.419,-2.419,-2.4266,-2.4461,-2.4478,-2.4478,-2.4478,-2.4654,-2.4775,-2.4775,-2.4898,-2.5065,-2.5253,-2.5264,-2.5115,-2.4804,-2.4943,-2.4911,-2.4804,-2.5126,-2.5103,-0.3475,-0.3392,-0.3409,-0.331,-0.3358,-0.3405,-0.3307,-0.3198,-0.3093,-0.3005,0.0,0.0,0.0,0.0,0.0,0.0,0.0,0.0,0.0,0.0,0.0,0.0,0.0,0.0,0.0,0.0,0.0,0.0,0.0,0.0,-0.8153,-0.8279,-0.8561,-0.9029,-0.9138,-0.9422,-0.9893,-1.0646,-1.125,-1.1721,-1.2134,-1.2615,-1.3151,-1.3151,-1.351,-1.4195,-1.495,-1.5659,-1.634,-1.6901,-1.7199,-1.732,-1.7526,-1.7681,-1.7845,-1.8099,-1.8488,-1.8985,-1.9631,-2.0295,-2.0973,-2.1888,-2.2371,-2.2749,-2.3466,-2.3795,-2.3917,-2.4151,-2.419,-2.419,-2.419,-2.419,-2.419,-2.419,-2.419,-2.4247,-2.4357,-2.4284,-2.419,-2.419,-2.419,-2.419,-2.419,-2.419,-2.419,-2.419,-2.4321,-2.4393,-2.4393,-2.4512,-2.4594,-2.4594,-2.4594,-2.4607,-2.4685,-2.4685,-2.4685,-2.4685,-2.476,-2.4804,-2.4804,-2.4943,-2.5034,-2.5099,-2.5224,-2.5243,-2.5126,-2.5171,-2.5171,-2.5126,-2.5243,-2.5233,-0.3927,-0.3715,-0.3567,-0.3418,-0.3312,-0.3219,-0.3208,-0.312,-0.3022,-0.2927,0.0,0.0,0.0,0.0,0.0,0.0,0.0,0.0,0.0,0.0,0.0,0.0,0.0,0.0,0.0,0.0,0.0,0.0,0.0,0.0,-0.7301,-0.7669,-0.8104,-0.857,-0.9221,-0.9738,-1.0072,-1.0619,-1.0944,-1.1048,-1.1549,-1.2029,-1.2471,-1.2561,-1.2962,-1.3621,-1.4241,-1.4984,-1.5826,-1.6741,-1.7096,-1.7153,-1.762,-1.7811,-1.7811,-1.7905,-1.8234,-1.8739,-1.9164,-1.9756,-2.0469,-2.1375,-2.1953,-2.2485,-2.3252,-2.3658,-2.3917,-2.4151,-2.419,-2.419,-2.419,-2.419,-2.419,-2.419,-2.419,-2.4247,-2.4375,-2.4339,-2.4321,-2.4393,-2.441,-2.441,-2.441,-2.441,-2.441,-2.441,-2.4512,-2.4591,-2.4591,-2.4716,-2.4804,-2.4804,-2.4804,-2.4832,-2.485,-2.4869,-2.4869,-2.4869,-2.4869,-2.4869,-2.4869,-2.4949,-2.5034,-2.5099,-2.5224,-2.5303,-2.5303,-2.5303,-2.5303,-2.5303,-2.5303,-2.5303,0.0,0.0,0.0,-0.4024,0.0,0.0,-0.3348,0.0,-0.2907,-0.2907,0.0,0.0,0.0,0.0,0.0,0.0,0.0,0.0,0.0,0.0,0.0,0.0,0.0,0.0,0.0,0.0,0.0,0.0,0.0,-0.6228,-0.6493,-0.6873,-0.7431,-0.8152,-0.9277,-1.0021,-1.0358,-1.0715,-1.1024,-1.1296,-1.1637,-1.1805,-1.1805,-1.2081,-1.2561,-1.3202,-1.38,-1.4288,-1.4732,-1.6113,-1.6682,-1.6783,-1.749,-1.7794,-1.7833,-1.8103,-1.8187,-1.8394,-1.9702,-2.0156,-2.0337,-2.1404,-2.2299,-2.2923,-2.296,-2.3511,-2.4135,-2.4153,-2.4153,-2.4171,-2.419,-2.4209,-2.4209,-2.4209,-2.4209,-2.4209,-2.4228,-2.4375,-2.4559,-2.476,-2.4804,-2.4804,-2.4804,-2.4804,-2.4804,-2.4804,-2.4804,-2.4804,-2.4804,-2.4818,-2.4818,-2.4818,-2.4818,-2.4869,-2.4998,-2.501,-2.501,-2.501,-2.501,-2.501,-2.501,-2.501,-2.5099,-2.5303,-2.5303,-2.5303,-2.5303,-2.5303,-2.5303,-2.5303,-2.5303,-2.5303,-0.514,0.0,0.0,0.0,0.0,0.0,0.0,0.0,-0.3405,-0.3405,0.0,0.0,0.0,0.0,0.0,0.0,0.0,0.0,0.0,0.0,0.0,0.0,0.0,0.0,0.0,0.0,0.0,0.0,-0.6639,-0.6696,-0.6451,-0.68,-0.7191,-0.7551,-0.8525,-0.9169,-0.9458,-1.0403,-1.0944,-1.1024,-1.1549,-1.1805,-1.1805,-1.2081,-1.2298,-1.2505,-1.3051,-1.3371,-1.3593,-1.5241,-1.6224,-1.6716,-1.6936,-1.732,-1.7833,-1.8103,-1.8187,-1.8284,-1.8852,-1.9165,-1.9488,-2.0354,-2.0895,-2.131,-2.1932,-2.2281,-2.2575,-2.318,-2.3327,-2.3474,-2.4043,-2.4428,-2.4591,-2.4444,-2.4528,-2.4651,-2.4762,-2.4812,-2.4804,-2.4623,-2.47,-2.4804,-2.4804,-2.4804,-2.4804,-2.4804,-2.4877,-2.4937,-2.4937,-2.5072,-2.516,-2.516,-2.516,-2.5171,-2.5214,-2.5214,-2.5214,-2.5214,-2.5214,-2.5214,-2.5214,-2.5214,-2.5234,-2.5303,-2.5303,-2.5303,-2.5303,-2.5303,-2.5303,-2.5303,-2.5303,-2.5303,-0.589,-0.5573,-0.5307,-0.4726,0.0,0.0,-0.3733,-0.3677,0.0,0.0,0.0,0.0,0.0,0.0,0.0,0.0,0.0,0.0,0.0,0.0,0.0,0.0,0.0,0.0,0.0,0.0,0.0,-0.6464,-0.6592,-0.6486,-0.6172,-0.651,-0.6825,-0.7035,-0.791,-0.8543,-0.8883,-0.9967,-1.0578,-1.0706,-1.1454,-1.1805,-1.1811,-1.2174,-1.2372,-1.2412,-1.2942,-1.3173,-1.324,-1.4255,-1.5105,-1.5852,-1.6567,-1.712,-1.759,-1.8268,-1.8528,-1.8566,-1.8807,-1.8999,-1.919,-1.9679,-2.0127,-2.0576,-2.1106,-2.1559,-2.1978,-2.2458,-2.2876,-2.3405,-2.4239,-2.4623,-2.4775,-2.4654,-2.4716,-2.4814,-2.4904,-2.4962,-2.4974,-2.485,-2.4923,-2.5019,-2.5019,-2.5019,-2.5019,-2.5019,-2.5084,-2.5141,-2.5141,-2.5224,-2.5303,-2.5303,-2.5303,-2.5303,-2.5303,-2.5303,-2.5303,-2.5303,-2.5303,-2.5303,-2.5303,-2.5303,-2.5303,-2.5303,-2.5303,-2.5303,-2.5303,-2.5303,-2.5303,-2.5303,-2.5303,-2.5303,-0.6707,-0.6354,-0.5975,-0.5722,-0.5158,0.0,-0.4534,-0.4301,-0.4048,0.0,0.0,0.0,0.0,0.0,0.0,0.0,0.0,0.0,0.0,0.0,0.0,0.0,0.0,0.0,0.0,-0.5343,-0.5532,-0.6374,-0.6092,-0.5815,-0.5723,-0.6003,-0.6315,-0.6603,-0.7358,-0.7999,-0.8461,-0.9431,-1.0024,-1.0277,-1.1165,-1.1625,-1.1707,-1.2211,-1.2492,-1.263,-1.3139,-1.3363,-1.3396,-1.3413,-1.3837,-1.4649,-1.6209,-1.6909,-1.7192,-1.8396,-1.8894,-1.8984,-1.9212,-1.9305,-1.9305,-1.9305,-1.9785,-2.0356,-2.0356,-2.1016,-2.1748,-2.1872,-2.2614,-2.3582,-2.4431,-2.47,-2.4747,-2.4814,-2.4847,-2.4861,-2.4861,-2.4943,-2.5088,-2.5264,-2.5303,-2.5303,-2.5303,-2.5303,-2.5303,-2.5303,-2.5303,-2.5303,-2.5303,-2.5303,-2.5303,-2.5303,-2.5303,-2.5303,-2.5303,-2.5303,-2.5303,-2.5303,-2.5303,-2.5303,-2.5303,-2.5303,-2.5303,-2.5303,-2.5303,-2.5303,-2.5303,-2.5303,-2.5303,-2.5303,-2.5303,-2.5303,-0.7079,-0.6851,-0.6574,-0.5734,0.0,0.0,-0.4437,-0.4312,-0.4417,0.0,0.0,0.0,0.0,0.0,0.0,0.0,0.0,0.0,0.0,0.0,0.0,0.0,0.0,0.0,0.0,-0.6412,-0.6295,-0.6125,-0.5379,-0.5027,-0.5224,-0.5294,-0.5558,-0.6046,-0.663,-0.7161,-0.7635,-0.8712,-0.9307,-0.9361,-0.9981,-1.0533,-1.1012,-1.1335,-1.1898,-1.261,-1.2942,-1.3191,-1.3413,-1.3526,-1.3939,-1.453,-1.4873,-1.5744,-1.6843,-1.7541,-1.8164,-1.8734,-1.9164,-1.9305,-1.9305,-1.9305,-1.9399,-1.9528,-1.9528,-1.9775,-2.0224,-2.0977,-2.1916,-2.2854,-2.3558,-2.3998,-2.4366,-2.4853,-2.5077,-2.5212,-2.5212,-2.5214,-2.5253,-2.5284,-2.5303,-2.5303,-2.5303,-2.5303,-2.5303,-2.5303,-2.5303,-2.5303,-2.5303,-2.5303,-2.5303,-2.5303,-2.5303,-2.5303,-2.5303,-2.5303,-2.5303,-2.5303,-2.5303,-2.5303,-2.5303,-2.5303,-2.5303,-2.5303,-2.5303,-2.5303,-2.5303,-2.5303,-2.5303,-2.5303,-2.5303,-2.5303,-0.7855,-0.7648,-0.741,-0.7162,0.0,0.0,0.0,-0.5366,-0.5257,-0.532,-0.4874,0.0,0.0,0.0,0.0,0.0,0.0,0.0,0.0,0.0,0.0,0.0,0.0,0.0,0.0,-0.6702,-0.6671,-0.6552,-0.5923,-0.5523,-0.5448,-0.5353,-0.5482,-0.5893,-0.6268,-0.6679,-0.7145,-0.8149,-0.8707,-0.8865,-0.9563,-1.0094,-1.0473,-1.0732,-1.1356,-1.2261,-1.2538,-1.2958,-1.3509,-1.357,-1.3844,-1.4242,-1.4736,-1.5397,-1.6185,-1.7371,-1.8026,-1.844,-1.9081,-1.9305,-1.9305,-1.9305,-1.9305,-1.932,-1.9427,-1.9612,-1.9994,-2.0991,-2.1607,-2.2172,-2.2939,-2.3619,-2.4188,-2.4483,-2.4936,-2.5303,-2.5303,-2.5303,-2.5303,-2.5303,-2.5303,-2.5303,-2.5303,-2.5303,-2.5303,-2.5303,-2.5303,-2.5303,-2.5303,-2.5303,-2.5303,-2.5303,-2.5303,-2.5303,-2.5303,-2.5303,-2.5303,-2.5303,-2.5303,-2.5303,-2.5303,-2.5303,-2.5303,-2.5303,-2.5303,-2.5303,-2.5303,-2.5303,-2.5303,-2.5303,-2.5303,-2.5303,0.0,0.0,-0.8129,0.0,0.0,-0.7536,0.0,0.0,0.0,-0.6362,0.0,0.0,0.0,0.0,0.0,0.0,0.0,0.0,0.0,0.0,0.0,0.0,0.0,0.0,0.0,-0.6854,-0.6954,-0.7277,-0.6685,-0.6197,-0.59,-0.5735,-0.571,-0.5893,-0.6094,-0.6411,-0.6841,-0.7615,-0.8121,-0.835,-0.9144,-0.965,-0.9912,-1.0144,-1.0849,-1.191,-1.2122,-1.2748,-1.36,-1.363,-1.3783,-1.4023,-1.4805,-1.5202,-1.5504,-1.7012,-1.7764,-1.8111,-1.8834,-1.9161,-1.9305,-1.9335,-1.938,-1.9434,-1.963,-1.9824,-2.0193,-2.1029,-2.1273,-2.1466,-2.2331,-2.3206,-2.3898,-2.4052,-2.4716,-2.5303,-2.5303,-2.5303,-2.5303,-2.5303,-2.5303,-2.5303,-2.5303,-2.5303,-2.5303,-2.5303,-2.5303,-2.5303,-2.5303,-2.5303,-2.5303,-2.5303,-2.5303,-2.5303,-2.5303,-2.5303,-2.5303,-2.5303,-2.5303,-2.5303,-2.5303,-2.5303,-2.5303,-2.5303,-2.5303,-2.5303,-2.5303,-2.5303,-2.5303,-2.5303,-2.5303,-2.5303,0.0,0.0,0.0,0.0,-0.7825,0.0,0.0,0.0,-0.6375,-0.619,0.0,0.0,0.0,0.0,0.0,0.0,0.0,0.0,0.0,0.0,0.0,0.0,0.0,0.0,0.0,0.0,-0.741,-0.8024,-0.6815,-0.6107,-0.6244,-0.616,-0.6052,-0.5904,-0.6094,-0.6336,-0.6633,-0.7082,-0.7322,-0.7367,-0.7885,-0.8515,-0.9204,-0.9235,-1.0224,-1.191,-1.1926,-1.257,-1.36,-1.378,-1.3983,-1.4149,-1.4104,-1.4459,-1.5094,-1.5526,-1.6573,-1.7804,-1.8115,-1.8702,-1.932,-1.9513,-1.9656,-1.9767,-1.9903,-1.9983,-2.005,-2.0356,-2.0446,-2.0619,-2.1446,-2.2293,-2.3148,-2.3918,-2.4716,-2.5303,-2.5303,-2.5303,-2.5303,-2.5303,-2.5303,-2.5303,-2.5303,-2.5303,-2.5303,-2.5303,-2.5303,-2.5303,-2.5303,-2.5303,-2.5303,-2.5303,-2.5303,-2.5303,-2.5303,-2.5303,-2.5303,-2.5303,-2.5303,-2.5303,-2.5303,-2.5303,-2.5303,-2.5303,-2.5303,-2.5303,-2.5303,-2.5303,-2.5303,-2.5303,-2.5303,-2.5303,0.0,0.0,0.0,0.0,0.0,0.0,-0.7461,0.0,-0.6897,0.0,0.0,0.0,0.0,0.0,0.0,0.0,0.0,0.0,0.0,0.0,0.0,0.0,0.0,0.0,0.0,0.0,0.0,0.0,0.0,-0.7311,-0.7402,-0.6826,-0.6531,-0.6591,-0.6348,-0.6376,-0.6774,-0.7064,-0.7272,-0.7439,-0.7753,-0.8179,-0.8696,-0.8696,-0.9463,-1.082,-1.1367,-1.2192,-1.318,-1.3819,-1.4188,-1.4375,-1.4282,-1.4443,-1.48,-1.5447,-1.6103,-1.682,-1.7925,-1.8547,-1.8932,-1.9526,-1.9821,-1.9933,-1.9974,-2.0078,-2.0197,-2.0277,-2.0312,-2.0389,-2.0716,-2.1793,-2.2889,-2.3263,-2.4351,-2.5303,-2.5303,-2.5303,-2.5303,-2.5303,-2.5303,-2.5303,-2.5303,-2.5303,-2.5303,-2.5303,-2.5303,-2.5303,-2.5303,-2.5303,-2.5303,-2.5303,-2.5303,-2.5303,-2.5303,-2.5303,-2.5303,-2.5303,-2.5303,-2.5303,-2.5303,-2.5303,-2.5303,-2.5303,-2.5303,-2.5303,-2.5303,-2.5303,-2.5303,-2.5303,-2.5303,-2.5303,-1.0235,0.0,0.0,0.0,0.0,0.0,0.0,0.0,0.0,0.0,0.0,0.0,0.0,0.0,0.0,0.0,0.0,0.0,0.0,0.0,0.0,0.0,0.0,0.0,0.0,0.0,0.0,0.0,0.0,0.0,-0.8337,-0.7611,-0.7166,-0.7099,-0.6741,-0.6641,-0.6908,-0.7112,-0.7332,-0.7605,-0.7841,-0.8108,-0.8403,-0.8467,-0.9047,-1.0047,-1.0723,-1.1694,-1.2855,-1.3541,-1.4083,-1.4488,-1.4488,-1.4488,-1.4584,-1.5277,-1.5685,-1.612,-1.7626,-1.8485,-1.9023,-1.9639,-1.9953,-2.0078,-2.0078,-2.0169,-2.0312,-2.0312,-2.0312,-2.0312,-2.0312,-2.137,-2.2504,-2.2735,-2.3908,-2.5024,-2.5245,-2.5303,-2.5303,-2.5303,-2.5303,-2.5303,-2.5303,-2.5303,-2.5303,-2.5303,-2.5303,-2.5303,-2.5303,-2.5303,-2.5303,-2.5303,-2.5303,-2.5303,-2.5303,-2.5303,-2.5303,-2.5303,-2.5303,-2.5303,-2.5303,-2.5303,-2.5303,-2.5303,-2.5322,-2.5322,-2.5322,-2.5341,-2.5341,-2.5341,-2.5322,-2.5303,0.0,0.0,0.0,-0.9333,0.0,0.0,0.0,0.0,-0.7695,0.0,0.0,0.0,0.0,0.0,-0.8175,-0.8152,-0.8438,0.0,0.0,0.0,0.0,0.0,0.0,0.0,0.0,0.0,0.0,0.0,0.0,0.0,-0.8681,-0.8537,-0.8027,-0.7143,-0.7271,-0.7217,-0.6908,-0.7112,-0.7332,-0.7605,-0.7938,-0.8198,-0.8415,-0.8592,-0.9176,-1.0001,-1.003,-1.1097,-1.2806,-1.2824,-1.3509,-1.4488,-1.4488,-1.4488,-1.4488,-1.4536,-1.5125,-1.6034,-1.6937,-1.8443,-1.9964,-1.9984,-2.0124,-2.0285,-2.0285,-2.0285,-2.0312,-2.0312,-2.0312,-2.0312,-2.0312,-2.0927,-2.1754,-2.2601,-2.3494,-2.436,-2.5139,-2.5303,-2.5303,-2.5303,-2.5303,-2.5303,-2.5303,-2.5303,-2.5303,-2.5303,-2.5303,-2.5303,-2.5303,-2.5303,-2.5303,-2.5303,-2.5303,-2.5303,-2.5303,-2.5303,-2.5303,-2.5303,-2.5303,-2.5303,-2.5303,-2.5303,-2.5303,-2.5303,-2.537,-2.5409,-2.5409,-2.5466,-2.5486,-2.5486,-2.537,-2.5303,0.0,0.0,-1.0829,-1.048,0.0,0.0,0.0,0.0,0.0,0.0,0.0,0.0,0.0,0.0,-0.8676,-0.8951,-0.8748,-0.8466,0.0,0.0,0.0,0.0,0.0,0.0,0.0,0.0,0.0,0.0,0.0,0.0,0.0,-0.9313,-0.8985,-0.8448,-0.7968,-0.7656,-0.749,-0.7693,-0.7737,-0.7605,-0.7841,-0.8121,-0.8403,-0.8479,-0.8796,-0.9298,-0.9921,-1.0616,-1.1374,-1.2508,-1.3272,-1.3758,-1.4297,-1.4488,-1.4522,-1.4697,-1.4914,-1.525,-1.6253,-1.781,-1.9342,-1.9342,-1.9769,-2.0312,-2.0312,-2.0312,-2.0312,-2.0312,-2.0312,-2.0312,-2.0312,-2.0908,-2.1716,-2.2581,-2.3475,-2.4322,-2.5139,-2.5303,-2.5303,-2.5303,-2.5303,-2.5303,-2.5303,-2.5303,-2.5303,-2.5303,-2.5303,-2.5303,-2.5303,-2.5303,-2.5303,-2.5303,-2.5341,-2.5341,-2.5303,-2.5341,-2.539,-2.5428,-2.5428,-2.5428,-2.5428,-2.5428,-2.5428,-2.5428,-2.5447,-2.5473,-2.5473,-2.5493,-2.5493,-2.5493,-2.5454,-2.5422,-1.114,-1.1035,0.0,-1.0586,-0.9807,0.0,-0.902,0.0,0.0,0.0,0.0,0.0,0.0,0.0,-0.9331,-0.9699,-0.9416,-0.903,0.0,-0.8337,0.0,0.0,0.0,0.0,0.0,0.0,-0.9662,-0.984,0.0,0.0,0.0,0.0,-0.9799,-0.9391,-0.8803,-0.8423,-0.8268,-0.8241,-0.8177,-0.8062,-0.8004,-0.8121,-0.8403,-0.8479,-0.8648,-0.8936,-0.9593,-1.0111,-1.0621,-1.2072,-1.2928,-1.3382,-1.4235,-1.4578,-1.4581,-1.4766,-1.502,-1.5367,-1.6113,-1.7538,-1.8992,-1.8992,-1.9581,-2.0312,-2.0312,-2.0312,-2.0312,-2.0312,-2.0312,-2.0312,-2.0312,-2.0677,-2.137,-2.2524,-2.3225,-2.3928,-2.5063,-2.5303,-2.5303,-2.5322,-2.5341,-2.5341,-2.537,-2.537,-2.5341,-2.5303,-2.5303,-2.5303,-2.5322,-2.5341,-2.5341,-2.537,-2.5409,-2.5428,-2.537,-2.5406,-2.5456,-2.5495,-2.5495,-2.5495,-2.5495,-2.5495,-2.5495,-2.5495,-2.5514,-2.555,-2.5544,-2.555,-2.557,-2.5571,-2.5571,-2.5576]}]]